<?xml version="1.0" encoding="ISO-8859-1" standalone="yes"?>
<gpx
  xmlns="http://www.topografix.com/GPX/1/1"
  version="1.1" creator="LoadMyTracks/099 http://www.cluetrust.com/LoadMyTracks.html"
  xmlns:xsi="http://www.w3.org/2001/XMLSchema-instance"
  xmlns:gpxdata="http://www.cluetrust.com/XML/GPXDATA/1/0"
  xmlns:geocache="http://www.groundspeak.com/cache/1/0"
  xsi:schemaLocation="http://www.topografix.com/GPX/1/1 http://www.topografix.com/GPX/1/1/gpx.xsd
http://www.cluetrust.com/XML/GPXDATA/1/0 http://www.cluetrust.com/Schemas/gpxdata10.xsd">
<trk>
<name>2010/8/18 8:46:27 GMT</name>
<trkseg>
	<trkpt lat="51.95211333" lon="-1.972195"><ele>96.000000</ele><time>2010-08-18T08:46:27Z</time></trkpt>
	<trkpt lat="51.95212333" lon="-1.972186667"><ele>93.000000</ele><time>2010-08-18T08:46:33Z</time></trkpt>
	<trkpt lat="51.95212667" lon="-1.972183333"><ele>94.000000</ele><time>2010-08-18T08:46:38Z</time></trkpt>
	<trkpt lat="51.95212833" lon="-1.97218"><ele>94.000000</ele><time>2010-08-18T08:46:43Z</time></trkpt>
	<trkpt lat="51.95213" lon="-1.972178333"><ele>95.000000</ele><time>2010-08-18T08:46:48Z</time></trkpt>
	<trkpt lat="51.95213333" lon="-1.972175"><ele>95.000000</ele><time>2010-08-18T08:46:53Z</time></trkpt>
	<trkpt lat="51.95212667" lon="-1.972181667"><ele>95.000000</ele><time>2010-08-18T08:46:58Z</time></trkpt>
	<trkpt lat="51.95210833" lon="-1.9722"><ele>93.000000</ele><time>2010-08-18T08:47:03Z</time></trkpt>
	<trkpt lat="51.95208167" lon="-1.972203333"><ele>92.000000</ele><time>2010-08-18T08:47:08Z</time></trkpt>
	<trkpt lat="51.95207333" lon="-1.972215"><ele>90.000000</ele><time>2010-08-18T08:47:13Z</time></trkpt>
	<trkpt lat="51.95207833" lon="-1.972215"><ele>88.000000</ele><time>2010-08-18T08:47:18Z</time></trkpt>
	<trkpt lat="51.95206333" lon="-1.972223333"><ele>86.000000</ele><time>2010-08-18T08:47:25Z</time></trkpt>
	<trkpt lat="51.952075" lon="-1.972218333"><ele>83.000000</ele><time>2010-08-18T08:47:30Z</time></trkpt>
	<trkpt lat="51.95203667" lon="-1.972246667"><ele>85.000000</ele><time>2010-08-18T08:47:35Z</time></trkpt>
	<trkpt lat="51.95203667" lon="-1.97225"><ele>88.000000</ele><time>2010-08-18T08:47:40Z</time></trkpt>
	<trkpt lat="51.95203833" lon="-1.97225"><ele>89.000000</ele><time>2010-08-18T08:47:45Z</time></trkpt>
	<trkpt lat="51.952025" lon="-1.972275"><ele>91.000000</ele><time>2010-08-18T08:47:50Z</time></trkpt>
	<trkpt lat="51.95202833" lon="-1.97229"><ele>93.000000</ele><time>2010-08-18T08:47:55Z</time></trkpt>
	<trkpt lat="51.95203" lon="-1.972288333"><ele>94.000000</ele><time>2010-08-18T08:48:00Z</time></trkpt>
	<trkpt lat="51.95202833" lon="-1.972286667"><ele>94.000000</ele><time>2010-08-18T08:48:05Z</time></trkpt>
	<trkpt lat="51.95203" lon="-1.97228"><ele>95.000000</ele><time>2010-08-18T08:48:10Z</time></trkpt>
	<trkpt lat="51.95203333" lon="-1.97228"><ele>96.000000</ele><time>2010-08-18T08:48:15Z</time></trkpt>
	<trkpt lat="51.95203833" lon="-1.972281667"><ele>97.000000</ele><time>2010-08-18T08:48:20Z</time></trkpt>
	<trkpt lat="51.95204" lon="-1.972276667"><ele>98.000000</ele><time>2010-08-18T08:48:25Z</time></trkpt>
	<trkpt lat="51.95204167" lon="-1.972273333"><ele>99.000000</ele><time>2010-08-18T08:48:30Z</time></trkpt>
	<trkpt lat="51.952045" lon="-1.972271667"><ele>100.000000</ele><time>2010-08-18T08:48:35Z</time></trkpt>
	<trkpt lat="51.952045" lon="-1.97227"><ele>101.000000</ele><time>2010-08-18T08:48:40Z</time></trkpt>
	<trkpt lat="51.952045" lon="-1.972266667"><ele>102.000000</ele><time>2010-08-18T08:48:45Z</time></trkpt>
	<trkpt lat="51.95204667" lon="-1.972266667"><ele>103.000000</ele><time>2010-08-18T08:48:50Z</time></trkpt>
	<trkpt lat="51.95204833" lon="-1.972263333"><ele>104.000000</ele><time>2010-08-18T08:48:55Z</time></trkpt>
	<trkpt lat="51.95204833" lon="-1.972263333"><ele>105.000000</ele><time>2010-08-18T08:49:00Z</time></trkpt>
	<trkpt lat="51.952055" lon="-1.972266667"><ele>105.000000</ele><time>2010-08-18T08:49:05Z</time></trkpt>
	<trkpt lat="51.952055" lon="-1.972266667"><ele>106.000000</ele><time>2010-08-18T08:49:10Z</time></trkpt>
	<trkpt lat="51.952055" lon="-1.972263333"><ele>107.000000</ele><time>2010-08-18T08:49:15Z</time></trkpt>
	<trkpt lat="51.952055" lon="-1.972261667"><ele>107.000000</ele><time>2010-08-18T08:49:20Z</time></trkpt>
	<trkpt lat="51.952055" lon="-1.972261667"><ele>108.000000</ele><time>2010-08-18T08:49:25Z</time></trkpt>
	<trkpt lat="51.95205833" lon="-1.972261667"><ele>108.000000</ele><time>2010-08-18T08:49:30Z</time></trkpt>
	<trkpt lat="51.95205833" lon="-1.97226"><ele>108.000000</ele><time>2010-08-18T08:49:35Z</time></trkpt>
	<trkpt lat="51.95205833" lon="-1.97226"><ele>108.000000</ele><time>2010-08-18T08:49:40Z</time></trkpt>
	<trkpt lat="51.95205833" lon="-1.97226"><ele>108.000000</ele><time>2010-08-18T08:49:45Z</time></trkpt>
	<trkpt lat="51.95205833" lon="-1.972261667"><ele>108.000000</ele><time>2010-08-18T08:49:50Z</time></trkpt>
	<trkpt lat="51.95205833" lon="-1.97226"><ele>109.000000</ele><time>2010-08-18T08:49:55Z</time></trkpt>
	<trkpt lat="51.95205833" lon="-1.972261667"><ele>109.000000</ele><time>2010-08-18T08:50:00Z</time></trkpt>
	<trkpt lat="51.95205833" lon="-1.972261667"><ele>109.000000</ele><time>2010-08-18T08:50:05Z</time></trkpt>
	<trkpt lat="51.95205833" lon="-1.972263333"><ele>109.000000</ele><time>2010-08-18T08:50:10Z</time></trkpt>
	<trkpt lat="51.95205833" lon="-1.972263333"><ele>109.000000</ele><time>2010-08-18T08:50:15Z</time></trkpt>
	<trkpt lat="51.95206167" lon="-1.972283333"><ele>108.000000</ele><time>2010-08-18T08:50:20Z</time></trkpt>
	<trkpt lat="51.95206" lon="-1.972278333"><ele>107.000000</ele><time>2010-08-18T08:50:25Z</time></trkpt>
	<trkpt lat="51.95206167" lon="-1.972278333"><ele>107.000000</ele><time>2010-08-18T08:50:30Z</time></trkpt>
	<trkpt lat="51.95206167" lon="-1.972276667"><ele>107.000000</ele><time>2010-08-18T08:50:35Z</time></trkpt>
	<trkpt lat="51.95206333" lon="-1.97228"><ele>107.000000</ele><time>2010-08-18T08:50:40Z</time></trkpt>
	<trkpt lat="51.95206333" lon="-1.972283333"><ele>106.000000</ele><time>2010-08-18T08:50:45Z</time></trkpt>
	<trkpt lat="51.95206333" lon="-1.972285"><ele>107.000000</ele><time>2010-08-18T08:50:50Z</time></trkpt>
	<trkpt lat="51.95206833" lon="-1.972286667"><ele>107.000000</ele><time>2010-08-18T08:50:55Z</time></trkpt>
	<trkpt lat="51.95206833" lon="-1.972283333"><ele>107.000000</ele><time>2010-08-18T08:51:00Z</time></trkpt>
	<trkpt lat="51.95207167" lon="-1.972285"><ele>107.000000</ele><time>2010-08-18T08:51:05Z</time></trkpt>
	<trkpt lat="51.952075" lon="-1.972285"><ele>107.000000</ele><time>2010-08-18T08:51:10Z</time></trkpt>
	<trkpt lat="51.952075" lon="-1.972281667"><ele>107.000000</ele><time>2010-08-18T08:51:15Z</time></trkpt>
	<trkpt lat="51.95207667" lon="-1.972278333"><ele>108.000000</ele><time>2010-08-18T08:51:20Z</time></trkpt>
	<trkpt lat="51.95207833" lon="-1.972276667"><ele>108.000000</ele><time>2010-08-18T08:51:25Z</time></trkpt>
	<trkpt lat="51.95208167" lon="-1.972276667"><ele>109.000000</ele><time>2010-08-18T08:51:30Z</time></trkpt>
	<trkpt lat="51.95208333" lon="-1.972276667"><ele>109.000000</ele><time>2010-08-18T08:51:35Z</time></trkpt>
	<trkpt lat="51.95208333" lon="-1.972273333"><ele>109.000000</ele><time>2010-08-18T08:51:40Z</time></trkpt>
	<trkpt lat="51.95208667" lon="-1.972271667"><ele>110.000000</ele><time>2010-08-18T08:51:45Z</time></trkpt>
	<trkpt lat="51.95208667" lon="-1.97227"><ele>110.000000</ele><time>2010-08-18T08:51:50Z</time></trkpt>
	<trkpt lat="51.95209" lon="-1.972271667"><ele>110.000000</ele><time>2010-08-18T08:51:55Z</time></trkpt>
	<trkpt lat="51.95209333" lon="-1.97228"><ele>110.000000</ele><time>2010-08-18T08:52:00Z</time></trkpt>
	<trkpt lat="51.95209167" lon="-1.97228"><ele>110.000000</ele><time>2010-08-18T08:52:05Z</time></trkpt>
	<trkpt lat="51.95209" lon="-1.972278333"><ele>110.000000</ele><time>2010-08-18T08:52:10Z</time></trkpt>
	<trkpt lat="51.95208833" lon="-1.972273333"><ele>110.000000</ele><time>2010-08-18T08:52:15Z</time></trkpt>
	<trkpt lat="51.95208667" lon="-1.97227"><ele>111.000000</ele><time>2010-08-18T08:52:20Z</time></trkpt>
	<trkpt lat="51.952085" lon="-1.972266667"><ele>111.000000</ele><time>2010-08-18T08:52:25Z</time></trkpt>
	<trkpt lat="51.95208667" lon="-1.972271667"><ele>111.000000</ele><time>2010-08-18T08:52:30Z</time></trkpt>
	<trkpt lat="51.95208833" lon="-1.972278333"><ele>111.000000</ele><time>2010-08-18T08:52:35Z</time></trkpt>
	<trkpt lat="51.95207167" lon="-1.972321667"><ele>112.000000</ele><time>2010-08-18T08:52:40Z</time></trkpt>
	<trkpt lat="51.95205667" lon="-1.972373333"><ele>112.000000</ele><time>2010-08-18T08:52:45Z</time></trkpt>
	<trkpt lat="51.95201833" lon="-1.972383333"><ele>111.000000</ele><time>2010-08-18T08:52:50Z</time></trkpt>
	<trkpt lat="51.95197167" lon="-1.972343333"><ele>110.000000</ele><time>2010-08-18T08:52:55Z</time></trkpt>
	<trkpt lat="51.95193333" lon="-1.972295"><ele>110.000000</ele><time>2010-08-18T08:53:00Z</time></trkpt>
	<trkpt lat="51.95190167" lon="-1.972238333"><ele>109.000000</ele><time>2010-08-18T08:53:05Z</time></trkpt>
	<trkpt lat="51.95186667" lon="-1.97219"><ele>109.000000</ele><time>2010-08-18T08:53:10Z</time></trkpt>
	<trkpt lat="51.95184167" lon="-1.972148333"><ele>109.000000</ele><time>2010-08-18T08:53:15Z</time></trkpt>
	<trkpt lat="51.95182" lon="-1.97212"><ele>109.000000</ele><time>2010-08-18T08:53:20Z</time></trkpt>
	<trkpt lat="51.95177" lon="-1.972101667"><ele>107.000000</ele><time>2010-08-18T08:53:25Z</time></trkpt>
	<trkpt lat="51.95174" lon="-1.972048333"><ele>106.000000</ele><time>2010-08-18T08:53:30Z</time></trkpt>
	<trkpt lat="51.95170833" lon="-1.972"><ele>105.000000</ele><time>2010-08-18T08:53:35Z</time></trkpt>
	<trkpt lat="51.95168833" lon="-1.971963333"><ele>105.000000</ele><time>2010-08-18T08:53:40Z</time></trkpt>
	<trkpt lat="51.95165667" lon="-1.971906667"><ele>105.000000</ele><time>2010-08-18T08:53:45Z</time></trkpt>
	<trkpt lat="51.95164" lon="-1.971838333"><ele>105.000000</ele><time>2010-08-18T08:53:50Z</time></trkpt>
	<trkpt lat="51.95165833" lon="-1.971771667"><ele>107.000000</ele><time>2010-08-18T08:53:55Z</time></trkpt>
	<trkpt lat="51.95169667" lon="-1.9717"><ele>108.000000</ele><time>2010-08-18T08:54:00Z</time></trkpt>
	<trkpt lat="51.95174667" lon="-1.97161"><ele>109.000000</ele><time>2010-08-18T08:54:05Z</time></trkpt>
	<trkpt lat="51.95179" lon="-1.97153"><ele>110.000000</ele><time>2010-08-18T08:54:10Z</time></trkpt>
	<trkpt lat="51.951815" lon="-1.97145"><ele>111.000000</ele><time>2010-08-18T08:54:15Z</time></trkpt>
	<trkpt lat="51.95185" lon="-1.971365"><ele>110.000000</ele><time>2010-08-18T08:54:20Z</time></trkpt>
	<trkpt lat="51.95188167" lon="-1.971288333"><ele>110.000000</ele><time>2010-08-18T08:54:25Z</time></trkpt>
	<trkpt lat="51.95192" lon="-1.971201667"><ele>111.000000</ele><time>2010-08-18T08:54:30Z</time></trkpt>
	<trkpt lat="51.95195667" lon="-1.971115"><ele>110.000000</ele><time>2010-08-18T08:54:35Z</time></trkpt>
	<trkpt lat="51.95199167" lon="-1.971025"><ele>109.000000</ele><time>2010-08-18T08:54:40Z</time></trkpt>
	<trkpt lat="51.95202333" lon="-1.970933333"><ele>109.000000</ele><time>2010-08-18T08:54:45Z</time></trkpt>
	<trkpt lat="51.95203333" lon="-1.970858333"><ele>110.000000</ele><time>2010-08-18T08:54:50Z</time></trkpt>
	<trkpt lat="51.952055" lon="-1.970768333"><ele>110.000000</ele><time>2010-08-18T08:54:55Z</time></trkpt>
	<trkpt lat="51.95207" lon="-1.970686667"><ele>111.000000</ele><time>2010-08-18T08:55:00Z</time></trkpt>
	<trkpt lat="51.95207667" lon="-1.97061"><ele>111.000000</ele><time>2010-08-18T08:55:05Z</time></trkpt>
	<trkpt lat="51.95209333" lon="-1.970511667"><ele>110.000000</ele><time>2010-08-18T08:55:10Z</time></trkpt>
	<trkpt lat="51.95211333" lon="-1.970421667"><ele>109.000000</ele><time>2010-08-18T08:55:15Z</time></trkpt>
	<trkpt lat="51.95209333" lon="-1.97034"><ele>112.000000</ele><time>2010-08-18T08:55:20Z</time></trkpt>
	<trkpt lat="51.95211167" lon="-1.97025"><ele>113.000000</ele><time>2010-08-18T08:55:25Z</time></trkpt>
	<trkpt lat="51.952135" lon="-1.970155"><ele>113.000000</ele><time>2010-08-18T08:55:30Z</time></trkpt>
	<trkpt lat="51.95215167" lon="-1.97006"><ele>113.000000</ele><time>2010-08-18T08:55:35Z</time></trkpt>
	<trkpt lat="51.95218333" lon="-1.969951667"><ele>112.000000</ele><time>2010-08-18T08:55:40Z</time></trkpt>
	<trkpt lat="51.95220833" lon="-1.969851667"><ele>112.000000</ele><time>2010-08-18T08:55:45Z</time></trkpt>
	<trkpt lat="51.95222333" lon="-1.969745"><ele>112.000000</ele><time>2010-08-18T08:55:50Z</time></trkpt>
	<trkpt lat="51.95222667" lon="-1.969641667"><ele>114.000000</ele><time>2010-08-18T08:55:55Z</time></trkpt>
	<trkpt lat="51.95223833" lon="-1.969548333"><ele>114.000000</ele><time>2010-08-18T08:56:00Z</time></trkpt>
	<trkpt lat="51.95224167" lon="-1.969455"><ele>115.000000</ele><time>2010-08-18T08:56:05Z</time></trkpt>
	<trkpt lat="51.95223833" lon="-1.96937"><ele>113.000000</ele><time>2010-08-18T08:56:10Z</time></trkpt>
	<trkpt lat="51.95225833" lon="-1.969268333"><ele>111.000000</ele><time>2010-08-18T08:56:15Z</time></trkpt>
	<trkpt lat="51.95227167" lon="-1.969153333"><ele>111.000000</ele><time>2010-08-18T08:56:20Z</time></trkpt>
	<trkpt lat="51.95229167" lon="-1.969038333"><ele>111.000000</ele><time>2010-08-18T08:56:25Z</time></trkpt>
	<trkpt lat="51.95228833" lon="-1.968945"><ele>111.000000</ele><time>2010-08-18T08:56:30Z</time></trkpt>
	<trkpt lat="51.95230833" lon="-1.968841667"><ele>111.000000</ele><time>2010-08-18T08:56:35Z</time></trkpt>
	<trkpt lat="51.952325" lon="-1.968735"><ele>110.000000</ele><time>2010-08-18T08:56:40Z</time></trkpt>
	<trkpt lat="51.95233833" lon="-1.968635"><ele>109.000000</ele><time>2010-08-18T08:56:45Z</time></trkpt>
	<trkpt lat="51.95234667" lon="-1.968531667"><ele>109.000000</ele><time>2010-08-18T08:56:50Z</time></trkpt>
	<trkpt lat="51.95234667" lon="-1.968428333"><ele>109.000000</ele><time>2010-08-18T08:56:55Z</time></trkpt>
	<trkpt lat="51.95234833" lon="-1.968326667"><ele>107.000000</ele><time>2010-08-18T08:57:00Z</time></trkpt>
	<trkpt lat="51.95234833" lon="-1.968208333"><ele>105.000000</ele><time>2010-08-18T08:57:05Z</time></trkpt>
	<trkpt lat="51.95234667" lon="-1.968096667"><ele>104.000000</ele><time>2010-08-18T08:57:10Z</time></trkpt>
	<trkpt lat="51.95236333" lon="-1.967971667"><ele>104.000000</ele><time>2010-08-18T08:57:15Z</time></trkpt>
	<trkpt lat="51.95236833" lon="-1.967853333"><ele>103.000000</ele><time>2010-08-18T08:57:20Z</time></trkpt>
	<trkpt lat="51.95237" lon="-1.967736667"><ele>102.000000</ele><time>2010-08-18T08:57:25Z</time></trkpt>
	<trkpt lat="51.95236333" lon="-1.967626667"><ele>101.000000</ele><time>2010-08-18T08:57:30Z</time></trkpt>
	<trkpt lat="51.95235167" lon="-1.967538333"><ele>103.000000</ele><time>2010-08-18T08:57:35Z</time></trkpt>
	<trkpt lat="51.95234" lon="-1.967443333"><ele>104.000000</ele><time>2010-08-18T08:57:40Z</time></trkpt>
	<trkpt lat="51.95234833" lon="-1.967333333"><ele>104.000000</ele><time>2010-08-18T08:57:45Z</time></trkpt>
	<trkpt lat="51.95236333" lon="-1.967246667"><ele>102.000000</ele><time>2010-08-18T08:57:50Z</time></trkpt>
	<trkpt lat="51.95233" lon="-1.967175"><ele>102.000000</ele><time>2010-08-18T08:57:55Z</time></trkpt>
	<trkpt lat="51.95234" lon="-1.967075"><ele>101.000000</ele><time>2010-08-18T08:58:00Z</time></trkpt>
	<trkpt lat="51.95236833" lon="-1.967005"><ele>103.000000</ele><time>2010-08-18T08:58:05Z</time></trkpt>
	<trkpt lat="51.952445" lon="-1.96691"><ele>106.000000</ele><time>2010-08-18T08:58:10Z</time></trkpt>
	<trkpt lat="51.95248833" lon="-1.966846667"><ele>108.000000</ele><time>2010-08-18T08:58:15Z</time></trkpt>
	<trkpt lat="51.95245" lon="-1.96677"><ele>107.000000</ele><time>2010-08-18T08:58:20Z</time></trkpt>
	<trkpt lat="51.95239" lon="-1.966705"><ele>107.000000</ele><time>2010-08-18T08:58:25Z</time></trkpt>
	<trkpt lat="51.952345" lon="-1.966656667"><ele>110.000000</ele><time>2010-08-18T08:58:30Z</time></trkpt>
	<trkpt lat="51.95228833" lon="-1.966586667"><ele>113.000000</ele><time>2010-08-18T08:58:35Z</time></trkpt>
	<trkpt lat="51.95223333" lon="-1.966558333"><ele>115.000000</ele><time>2010-08-18T08:58:40Z</time></trkpt>
	<trkpt lat="51.95221333" lon="-1.9665"><ele>115.000000</ele><time>2010-08-18T08:58:45Z</time></trkpt>
	<trkpt lat="51.95215667" lon="-1.966486667"><ele>113.000000</ele><time>2010-08-18T08:58:50Z</time></trkpt>
	<trkpt lat="51.95207667" lon="-1.966478333"><ele>110.000000</ele><time>2010-08-18T08:58:55Z</time></trkpt>
	<trkpt lat="51.95200333" lon="-1.966465"><ele>108.000000</ele><time>2010-08-18T08:59:00Z</time></trkpt>
	<trkpt lat="51.951935" lon="-1.966458333"><ele>106.000000</ele><time>2010-08-18T08:59:05Z</time></trkpt>
	<trkpt lat="51.95187667" lon="-1.966433333"><ele>105.000000</ele><time>2010-08-18T08:59:10Z</time></trkpt>
	<trkpt lat="51.951845" lon="-1.966358333"><ele>103.000000</ele><time>2010-08-18T08:59:15Z</time></trkpt>
	<trkpt lat="51.95177667" lon="-1.966353333"><ele>102.000000</ele><time>2010-08-18T08:59:21Z</time></trkpt>
	<trkpt lat="51.951715" lon="-1.966326667"><ele>101.000000</ele><time>2010-08-18T08:59:26Z</time></trkpt>
	<trkpt lat="51.95167333" lon="-1.966305"><ele>100.000000</ele><time>2010-08-18T08:59:31Z</time></trkpt>
	<trkpt lat="51.95162333" lon="-1.96628"><ele>101.000000</ele><time>2010-08-18T08:59:36Z</time></trkpt>
	<trkpt lat="51.95156833" lon="-1.966261667"><ele>101.000000</ele><time>2010-08-18T08:59:41Z</time></trkpt>
	<trkpt lat="51.95150833" lon="-1.966235"><ele>101.000000</ele><time>2010-08-18T08:59:46Z</time></trkpt>
	<trkpt lat="51.95145" lon="-1.96622"><ele>101.000000</ele><time>2010-08-18T08:59:51Z</time></trkpt>
	<trkpt lat="51.95139167" lon="-1.966196667"><ele>102.000000</ele><time>2010-08-18T08:59:56Z</time></trkpt>
	<trkpt lat="51.95134333" lon="-1.966158333"><ele>103.000000</ele><time>2010-08-18T09:00:01Z</time></trkpt>
	<trkpt lat="51.95129167" lon="-1.966116667"><ele>104.000000</ele><time>2010-08-18T09:00:06Z</time></trkpt>
	<trkpt lat="51.95124667" lon="-1.966088333"><ele>106.000000</ele><time>2010-08-18T09:00:11Z</time></trkpt>
	<trkpt lat="51.95119667" lon="-1.966063333"><ele>108.000000</ele><time>2010-08-18T09:00:16Z</time></trkpt>
	<trkpt lat="51.95114833" lon="-1.966026667"><ele>109.000000</ele><time>2010-08-18T09:00:21Z</time></trkpt>
	<trkpt lat="51.95108667" lon="-1.965985"><ele>109.000000</ele><time>2010-08-18T09:00:26Z</time></trkpt>
	<trkpt lat="51.95103167" lon="-1.965973333"><ele>108.000000</ele><time>2010-08-18T09:00:31Z</time></trkpt>
	<trkpt lat="51.95098833" lon="-1.965943333"><ele>108.000000</ele><time>2010-08-18T09:00:36Z</time></trkpt>
	<trkpt lat="51.95096167" lon="-1.965913333"><ele>107.000000</ele><time>2010-08-18T09:00:41Z</time></trkpt>
	<trkpt lat="51.95093667" lon="-1.965886667"><ele>107.000000</ele><time>2010-08-18T09:00:46Z</time></trkpt>
	<trkpt lat="51.95089833" lon="-1.965858333"><ele>108.000000</ele><time>2010-08-18T09:00:51Z</time></trkpt>
	<trkpt lat="51.95083833" lon="-1.965831667"><ele>109.000000</ele><time>2010-08-18T09:00:56Z</time></trkpt>
	<trkpt lat="51.95077167" lon="-1.96583"><ele>108.000000</ele><time>2010-08-18T09:01:01Z</time></trkpt>
	<trkpt lat="51.95071333" lon="-1.965856667"><ele>108.000000</ele><time>2010-08-18T09:01:06Z</time></trkpt>
	<trkpt lat="51.95065333" lon="-1.965886667"><ele>107.000000</ele><time>2010-08-18T09:01:11Z</time></trkpt>
	<trkpt lat="51.95059833" lon="-1.965926667"><ele>107.000000</ele><time>2010-08-18T09:01:16Z</time></trkpt>
	<trkpt lat="51.95054167" lon="-1.965963333"><ele>107.000000</ele><time>2010-08-18T09:01:21Z</time></trkpt>
	<trkpt lat="51.950485" lon="-1.966005"><ele>107.000000</ele><time>2010-08-18T09:01:26Z</time></trkpt>
	<trkpt lat="51.95041833" lon="-1.966041667"><ele>106.000000</ele><time>2010-08-18T09:01:31Z</time></trkpt>
	<trkpt lat="51.95035167" lon="-1.966073333"><ele>105.000000</ele><time>2010-08-18T09:01:36Z</time></trkpt>
	<trkpt lat="51.95029167" lon="-1.966101667"><ele>105.000000</ele><time>2010-08-18T09:01:41Z</time></trkpt>
	<trkpt lat="51.95022333" lon="-1.966125"><ele>104.000000</ele><time>2010-08-18T09:01:46Z</time></trkpt>
	<trkpt lat="51.95015833" lon="-1.966145"><ele>103.000000</ele><time>2010-08-18T09:01:51Z</time></trkpt>
	<trkpt lat="51.950095" lon="-1.966163333"><ele>103.000000</ele><time>2010-08-18T09:01:56Z</time></trkpt>
	<trkpt lat="51.95003333" lon="-1.966173333"><ele>103.000000</ele><time>2010-08-18T09:02:01Z</time></trkpt>
	<trkpt lat="51.94997" lon="-1.966161667"><ele>103.000000</ele><time>2010-08-18T09:02:06Z</time></trkpt>
	<trkpt lat="51.94991667" lon="-1.966135"><ele>104.000000</ele><time>2010-08-18T09:02:11Z</time></trkpt>
	<trkpt lat="51.94987" lon="-1.966106667"><ele>105.000000</ele><time>2010-08-18T09:02:16Z</time></trkpt>
	<trkpt lat="51.94983333" lon="-1.966073333"><ele>107.000000</ele><time>2010-08-18T09:02:21Z</time></trkpt>
	<trkpt lat="51.949795" lon="-1.966033333"><ele>108.000000</ele><time>2010-08-18T09:02:26Z</time></trkpt>
	<trkpt lat="51.94975167" lon="-1.965991667"><ele>109.000000</ele><time>2010-08-18T09:02:31Z</time></trkpt>
	<trkpt lat="51.94970833" lon="-1.965943333"><ele>109.000000</ele><time>2010-08-18T09:02:36Z</time></trkpt>
	<trkpt lat="51.94966333" lon="-1.9659"><ele>110.000000</ele><time>2010-08-18T09:02:41Z</time></trkpt>
	<trkpt lat="51.94961167" lon="-1.965845"><ele>109.000000</ele><time>2010-08-18T09:02:46Z</time></trkpt>
	<trkpt lat="51.94955333" lon="-1.965801667"><ele>108.000000</ele><time>2010-08-18T09:02:51Z</time></trkpt>
	<trkpt lat="51.949495" lon="-1.965753333"><ele>107.000000</ele><time>2010-08-18T09:02:56Z</time></trkpt>
	<trkpt lat="51.94943667" lon="-1.965705"><ele>107.000000</ele><time>2010-08-18T09:03:01Z</time></trkpt>
	<trkpt lat="51.94938" lon="-1.965653333"><ele>106.000000</ele><time>2010-08-18T09:03:06Z</time></trkpt>
	<trkpt lat="51.94932333" lon="-1.965605"><ele>105.000000</ele><time>2010-08-18T09:03:11Z</time></trkpt>
	<trkpt lat="51.94926667" lon="-1.965555"><ele>104.000000</ele><time>2010-08-18T09:03:16Z</time></trkpt>
	<trkpt lat="51.94920833" lon="-1.96551"><ele>103.000000</ele><time>2010-08-18T09:03:21Z</time></trkpt>
	<trkpt lat="51.94916" lon="-1.965465"><ele>103.000000</ele><time>2010-08-18T09:03:26Z</time></trkpt>
	<trkpt lat="51.94910333" lon="-1.965415"><ele>102.000000</ele><time>2010-08-18T09:03:31Z</time></trkpt>
	<trkpt lat="51.94905333" lon="-1.965368333"><ele>102.000000</ele><time>2010-08-18T09:03:36Z</time></trkpt>
	<trkpt lat="51.949005" lon="-1.965316667"><ele>102.000000</ele><time>2010-08-18T09:03:41Z</time></trkpt>
	<trkpt lat="51.94896167" lon="-1.965268333"><ele>101.000000</ele><time>2010-08-18T09:03:46Z</time></trkpt>
	<trkpt lat="51.94890833" lon="-1.965228333"><ele>101.000000</ele><time>2010-08-18T09:03:51Z</time></trkpt>
	<trkpt lat="51.94886167" lon="-1.965183333"><ele>101.000000</ele><time>2010-08-18T09:03:56Z</time></trkpt>
	<trkpt lat="51.94881167" lon="-1.965135"><ele>100.000000</ele><time>2010-08-18T09:04:01Z</time></trkpt>
	<trkpt lat="51.94876167" lon="-1.965093333"><ele>100.000000</ele><time>2010-08-18T09:04:06Z</time></trkpt>
	<trkpt lat="51.94871667" lon="-1.96506"><ele>101.000000</ele><time>2010-08-18T09:04:11Z</time></trkpt>
	<trkpt lat="51.948675" lon="-1.965026667"><ele>102.000000</ele><time>2010-08-18T09:04:16Z</time></trkpt>
	<trkpt lat="51.94862833" lon="-1.964991667"><ele>103.000000</ele><time>2010-08-18T09:04:21Z</time></trkpt>
	<trkpt lat="51.948585" lon="-1.96495"><ele>104.000000</ele><time>2010-08-18T09:04:26Z</time></trkpt>
	<trkpt lat="51.948545" lon="-1.96491"><ele>105.000000</ele><time>2010-08-18T09:04:31Z</time></trkpt>
	<trkpt lat="51.94850833" lon="-1.964871667"><ele>106.000000</ele><time>2010-08-18T09:04:36Z</time></trkpt>
	<trkpt lat="51.94847333" lon="-1.964831667"><ele>107.000000</ele><time>2010-08-18T09:04:41Z</time></trkpt>
	<trkpt lat="51.94842333" lon="-1.964825"><ele>106.000000</ele><time>2010-08-18T09:04:46Z</time></trkpt>
	<trkpt lat="51.94836833" lon="-1.964846667"><ele>104.000000</ele><time>2010-08-18T09:04:51Z</time></trkpt>
	<trkpt lat="51.94831333" lon="-1.964835"><ele>103.000000</ele><time>2010-08-18T09:04:56Z</time></trkpt>
	<trkpt lat="51.94825667" lon="-1.964823333"><ele>102.000000</ele><time>2010-08-18T09:05:01Z</time></trkpt>
	<trkpt lat="51.94820167" lon="-1.964803333"><ele>102.000000</ele><time>2010-08-18T09:05:06Z</time></trkpt>
	<trkpt lat="51.94814833" lon="-1.964803333"><ele>101.000000</ele><time>2010-08-18T09:05:11Z</time></trkpt>
	<trkpt lat="51.94808667" lon="-1.964798333"><ele>100.000000</ele><time>2010-08-18T09:05:16Z</time></trkpt>
	<trkpt lat="51.94806167" lon="-1.964783333"><ele>99.000000</ele><time>2010-08-18T09:05:21Z</time></trkpt>
	<trkpt lat="51.94805833" lon="-1.964786667"><ele>99.000000</ele><time>2010-08-18T09:05:26Z</time></trkpt>
	<trkpt lat="51.94805833" lon="-1.964788333"><ele>99.000000</ele><time>2010-08-18T09:05:31Z</time></trkpt>
	<trkpt lat="51.948045" lon="-1.964773333"><ele>99.000000</ele><time>2010-08-18T09:05:36Z</time></trkpt>
	<trkpt lat="51.94799167" lon="-1.96477"><ele>99.000000</ele><time>2010-08-18T09:05:41Z</time></trkpt>
	<trkpt lat="51.94793167" lon="-1.964755"><ele>99.000000</ele><time>2010-08-18T09:05:46Z</time></trkpt>
	<trkpt lat="51.94787333" lon="-1.96474"><ele>99.000000</ele><time>2010-08-18T09:05:51Z</time></trkpt>
	<trkpt lat="51.947815" lon="-1.964723333"><ele>100.000000</ele><time>2010-08-18T09:05:56Z</time></trkpt>
	<trkpt lat="51.94776167" lon="-1.964708333"><ele>100.000000</ele><time>2010-08-18T09:06:01Z</time></trkpt>
	<trkpt lat="51.94770167" lon="-1.96469"><ele>100.000000</ele><time>2010-08-18T09:06:06Z</time></trkpt>
	<trkpt lat="51.94764167" lon="-1.964668333"><ele>100.000000</ele><time>2010-08-18T09:06:11Z</time></trkpt>
	<trkpt lat="51.947585" lon="-1.964651667"><ele>99.000000</ele><time>2010-08-18T09:06:16Z</time></trkpt>
	<trkpt lat="51.94752667" lon="-1.964638333"><ele>99.000000</ele><time>2010-08-18T09:06:21Z</time></trkpt>
	<trkpt lat="51.94746667" lon="-1.964625"><ele>99.000000</ele><time>2010-08-18T09:06:26Z</time></trkpt>
	<trkpt lat="51.94741167" lon="-1.964613333"><ele>99.000000</ele><time>2010-08-18T09:06:31Z</time></trkpt>
	<trkpt lat="51.947355" lon="-1.964603333"><ele>99.000000</ele><time>2010-08-18T09:06:36Z</time></trkpt>
	<trkpt lat="51.94731667" lon="-1.964586667"><ele>98.000000</ele><time>2010-08-18T09:06:41Z</time></trkpt>
	<trkpt lat="51.94726667" lon="-1.964575"><ele>98.000000</ele><time>2010-08-18T09:06:46Z</time></trkpt>
	<trkpt lat="51.947215" lon="-1.96456"><ele>98.000000</ele><time>2010-08-18T09:06:51Z</time></trkpt>
	<trkpt lat="51.94716333" lon="-1.964545"><ele>98.000000</ele><time>2010-08-18T09:06:56Z</time></trkpt>
	<trkpt lat="51.94711" lon="-1.964526667"><ele>97.000000</ele><time>2010-08-18T09:07:01Z</time></trkpt>
	<trkpt lat="51.947055" lon="-1.964508333"><ele>96.000000</ele><time>2010-08-18T09:07:06Z</time></trkpt>
	<trkpt lat="51.94700167" lon="-1.96449"><ele>96.000000</ele><time>2010-08-18T09:07:11Z</time></trkpt>
	<trkpt lat="51.94695" lon="-1.964475"><ele>95.000000</ele><time>2010-08-18T09:07:16Z</time></trkpt>
	<trkpt lat="51.9469" lon="-1.964463333"><ele>94.000000</ele><time>2010-08-18T09:07:21Z</time></trkpt>
	<trkpt lat="51.94685167" lon="-1.964446667"><ele>94.000000</ele><time>2010-08-18T09:07:26Z</time></trkpt>
	<trkpt lat="51.9468" lon="-1.964436667"><ele>93.000000</ele><time>2010-08-18T09:07:31Z</time></trkpt>
	<trkpt lat="51.94675" lon="-1.964423333"><ele>92.000000</ele><time>2010-08-18T09:07:36Z</time></trkpt>
	<trkpt lat="51.946695" lon="-1.964416667"><ele>92.000000</ele><time>2010-08-18T09:07:41Z</time></trkpt>
	<trkpt lat="51.94664" lon="-1.964406667"><ele>91.000000</ele><time>2010-08-18T09:07:46Z</time></trkpt>
	<trkpt lat="51.94659167" lon="-1.964381667"><ele>91.000000</ele><time>2010-08-18T09:07:51Z</time></trkpt>
	<trkpt lat="51.94654" lon="-1.964366667"><ele>90.000000</ele><time>2010-08-18T09:07:56Z</time></trkpt>
	<trkpt lat="51.94649333" lon="-1.964355"><ele>90.000000</ele><time>2010-08-18T09:08:01Z</time></trkpt>
	<trkpt lat="51.946455" lon="-1.964343333"><ele>90.000000</ele><time>2010-08-18T09:08:06Z</time></trkpt>
	<trkpt lat="51.94644167" lon="-1.964338333"><ele>90.000000</ele><time>2010-08-18T09:08:11Z</time></trkpt>
	<trkpt lat="51.94644333" lon="-1.96434"><ele>90.000000</ele><time>2010-08-18T09:08:16Z</time></trkpt>
	<trkpt lat="51.94644167" lon="-1.96434"><ele>90.000000</ele><time>2010-08-18T09:08:21Z</time></trkpt>
	<trkpt lat="51.94644" lon="-1.96434"><ele>91.000000</ele><time>2010-08-18T09:08:26Z</time></trkpt>
	<trkpt lat="51.946435" lon="-1.964336667"><ele>90.000000</ele><time>2010-08-18T09:08:31Z</time></trkpt>
	<trkpt lat="51.946435" lon="-1.964335"><ele>90.000000</ele><time>2010-08-18T09:08:36Z</time></trkpt>
	<trkpt lat="51.946435" lon="-1.964335"><ele>90.000000</ele><time>2010-08-18T09:08:41Z</time></trkpt>
	<trkpt lat="51.94643167" lon="-1.964335"><ele>90.000000</ele><time>2010-08-18T09:08:46Z</time></trkpt>
	<trkpt lat="51.94642" lon="-1.964328333"><ele>90.000000</ele><time>2010-08-18T09:08:51Z</time></trkpt>
	<trkpt lat="51.94641167" lon="-1.964315"><ele>90.000000</ele><time>2010-08-18T09:08:56Z</time></trkpt>
	<trkpt lat="51.94641167" lon="-1.964315"><ele>91.000000</ele><time>2010-08-18T09:09:01Z</time></trkpt>
	<trkpt lat="51.94641333" lon="-1.964315"><ele>91.000000</ele><time>2010-08-18T09:09:06Z</time></trkpt>
	<trkpt lat="51.94641333" lon="-1.964315"><ele>91.000000</ele><time>2010-08-18T09:09:11Z</time></trkpt>
	<trkpt lat="51.94640833" lon="-1.964305"><ele>91.000000</ele><time>2010-08-18T09:09:16Z</time></trkpt>
	<trkpt lat="51.94640833" lon="-1.964303333"><ele>91.000000</ele><time>2010-08-18T09:09:21Z</time></trkpt>
	<trkpt lat="51.94640333" lon="-1.964298333"><ele>91.000000</ele><time>2010-08-18T09:09:26Z</time></trkpt>
	<trkpt lat="51.94640167" lon="-1.964296667"><ele>91.000000</ele><time>2010-08-18T09:09:31Z</time></trkpt>
	<trkpt lat="51.94640333" lon="-1.964295"><ele>91.000000</ele><time>2010-08-18T09:09:36Z</time></trkpt>
	<trkpt lat="51.94639833" lon="-1.964296667"><ele>91.000000</ele><time>2010-08-18T09:09:41Z</time></trkpt>
	<trkpt lat="51.94639" lon="-1.964293333"><ele>91.000000</ele><time>2010-08-18T09:09:46Z</time></trkpt>
	<trkpt lat="51.94634167" lon="-1.964266667"><ele>92.000000</ele><time>2010-08-18T09:09:51Z</time></trkpt>
	<trkpt lat="51.94628333" lon="-1.964261667"><ele>92.000000</ele><time>2010-08-18T09:09:56Z</time></trkpt>
	<trkpt lat="51.94622333" lon="-1.964265"><ele>92.000000</ele><time>2010-08-18T09:10:01Z</time></trkpt>
	<trkpt lat="51.94616" lon="-1.964265"><ele>93.000000</ele><time>2010-08-18T09:10:06Z</time></trkpt>
	<trkpt lat="51.94609833" lon="-1.964266667"><ele>94.000000</ele><time>2010-08-18T09:10:11Z</time></trkpt>
	<trkpt lat="51.94603167" lon="-1.964266667"><ele>94.000000</ele><time>2010-08-18T09:10:16Z</time></trkpt>
	<trkpt lat="51.94596333" lon="-1.964273333"><ele>95.000000</ele><time>2010-08-18T09:10:21Z</time></trkpt>
	<trkpt lat="51.94589667" lon="-1.964275"><ele>95.000000</ele><time>2010-08-18T09:10:26Z</time></trkpt>
	<trkpt lat="51.94582667" lon="-1.964278333"><ele>95.000000</ele><time>2010-08-18T09:10:31Z</time></trkpt>
	<trkpt lat="51.94575833" lon="-1.96428"><ele>95.000000</ele><time>2010-08-18T09:10:36Z</time></trkpt>
	<trkpt lat="51.94569" lon="-1.964281667"><ele>96.000000</ele><time>2010-08-18T09:10:41Z</time></trkpt>
	<trkpt lat="51.945625" lon="-1.964283333"><ele>96.000000</ele><time>2010-08-18T09:10:46Z</time></trkpt>
	<trkpt lat="51.94555833" lon="-1.964285"><ele>96.000000</ele><time>2010-08-18T09:10:51Z</time></trkpt>
	<trkpt lat="51.94549333" lon="-1.964283333"><ele>96.000000</ele><time>2010-08-18T09:10:56Z</time></trkpt>
	<trkpt lat="51.94542667" lon="-1.964285"><ele>96.000000</ele><time>2010-08-18T09:11:01Z</time></trkpt>
	<trkpt lat="51.94536167" lon="-1.964288333"><ele>96.000000</ele><time>2010-08-18T09:11:06Z</time></trkpt>
	<trkpt lat="51.94529333" lon="-1.96429"><ele>97.000000</ele><time>2010-08-18T09:11:11Z</time></trkpt>
	<trkpt lat="51.94522333" lon="-1.96429"><ele>97.000000</ele><time>2010-08-18T09:11:16Z</time></trkpt>
	<trkpt lat="51.94515333" lon="-1.96429"><ele>97.000000</ele><time>2010-08-18T09:11:21Z</time></trkpt>
	<trkpt lat="51.94508" lon="-1.964295"><ele>97.000000</ele><time>2010-08-18T09:11:26Z</time></trkpt>
	<trkpt lat="51.94500833" lon="-1.96429"><ele>98.000000</ele><time>2010-08-18T09:11:31Z</time></trkpt>
	<trkpt lat="51.94494" lon="-1.964293333"><ele>98.000000</ele><time>2010-08-18T09:11:36Z</time></trkpt>
	<trkpt lat="51.94487333" lon="-1.964295"><ele>98.000000</ele><time>2010-08-18T09:11:41Z</time></trkpt>
	<trkpt lat="51.944805" lon="-1.964296667"><ele>98.000000</ele><time>2010-08-18T09:11:46Z</time></trkpt>
	<trkpt lat="51.94473667" lon="-1.964301667"><ele>99.000000</ele><time>2010-08-18T09:11:51Z</time></trkpt>
	<trkpt lat="51.94467" lon="-1.964303333"><ele>99.000000</ele><time>2010-08-18T09:11:56Z</time></trkpt>
	<trkpt lat="51.94460333" lon="-1.964305"><ele>99.000000</ele><time>2010-08-18T09:12:01Z</time></trkpt>
	<trkpt lat="51.94453667" lon="-1.96431"><ele>99.000000</ele><time>2010-08-18T09:12:06Z</time></trkpt>
	<trkpt lat="51.94447" lon="-1.964313333"><ele>100.000000</ele><time>2010-08-18T09:12:11Z</time></trkpt>
	<trkpt lat="51.94440167" lon="-1.964318333"><ele>100.000000</ele><time>2010-08-18T09:12:16Z</time></trkpt>
	<trkpt lat="51.944335" lon="-1.964315"><ele>100.000000</ele><time>2010-08-18T09:12:21Z</time></trkpt>
	<trkpt lat="51.94426667" lon="-1.964323333"><ele>100.000000</ele><time>2010-08-18T09:12:26Z</time></trkpt>
	<trkpt lat="51.94420167" lon="-1.964323333"><ele>100.000000</ele><time>2010-08-18T09:12:31Z</time></trkpt>
	<trkpt lat="51.944135" lon="-1.96433"><ele>100.000000</ele><time>2010-08-18T09:12:36Z</time></trkpt>
	<trkpt lat="51.94406667" lon="-1.964333333"><ele>101.000000</ele><time>2010-08-18T09:12:41Z</time></trkpt>
	<trkpt lat="51.944" lon="-1.964336667"><ele>101.000000</ele><time>2010-08-18T09:12:46Z</time></trkpt>
	<trkpt lat="51.943935" lon="-1.964338333"><ele>101.000000</ele><time>2010-08-18T09:12:51Z</time></trkpt>
	<trkpt lat="51.94387167" lon="-1.964341667"><ele>101.000000</ele><time>2010-08-18T09:12:56Z</time></trkpt>
	<trkpt lat="51.94380833" lon="-1.964345"><ele>101.000000</ele><time>2010-08-18T09:13:01Z</time></trkpt>
	<trkpt lat="51.943745" lon="-1.964343333"><ele>102.000000</ele><time>2010-08-18T09:13:06Z</time></trkpt>
	<trkpt lat="51.94369167" lon="-1.964323333"><ele>102.000000</ele><time>2010-08-18T09:13:11Z</time></trkpt>
	<trkpt lat="51.94367667" lon="-1.964308333"><ele>102.000000</ele><time>2010-08-18T09:13:16Z</time></trkpt>
	<trkpt lat="51.94367667" lon="-1.964308333"><ele>102.000000</ele><time>2010-08-18T09:13:21Z</time></trkpt>
	<trkpt lat="51.94366333" lon="-1.964318333"><ele>102.000000</ele><time>2010-08-18T09:13:26Z</time></trkpt>
	<trkpt lat="51.94363333" lon="-1.964335"><ele>102.000000</ele><time>2010-08-18T09:13:31Z</time></trkpt>
	<trkpt lat="51.943595" lon="-1.964296667"><ele>103.000000</ele><time>2010-08-18T09:13:36Z</time></trkpt>
	<trkpt lat="51.94358333" lon="-1.96427"><ele>103.000000</ele><time>2010-08-18T09:13:41Z</time></trkpt>
	<trkpt lat="51.94355333" lon="-1.964233333"><ele>104.000000</ele><time>2010-08-18T09:13:46Z</time></trkpt>
	<trkpt lat="51.9435" lon="-1.964208333"><ele>104.000000</ele><time>2010-08-18T09:13:51Z</time></trkpt>
	<trkpt lat="51.943445" lon="-1.964181667"><ele>104.000000</ele><time>2010-08-18T09:13:56Z</time></trkpt>
	<trkpt lat="51.94339167" lon="-1.964151667"><ele>104.000000</ele><time>2010-08-18T09:14:01Z</time></trkpt>
	<trkpt lat="51.94334" lon="-1.964121667"><ele>104.000000</ele><time>2010-08-18T09:14:06Z</time></trkpt>
	<trkpt lat="51.94328833" lon="-1.964095"><ele>104.000000</ele><time>2010-08-18T09:14:11Z</time></trkpt>
	<trkpt lat="51.94323833" lon="-1.964065"><ele>104.000000</ele><time>2010-08-18T09:14:16Z</time></trkpt>
	<trkpt lat="51.943185" lon="-1.964018333"><ele>105.000000</ele><time>2010-08-18T09:14:21Z</time></trkpt>
	<trkpt lat="51.943125" lon="-1.963983333"><ele>105.000000</ele><time>2010-08-18T09:14:26Z</time></trkpt>
	<trkpt lat="51.94306667" lon="-1.963945"><ele>105.000000</ele><time>2010-08-18T09:14:31Z</time></trkpt>
	<trkpt lat="51.94300833" lon="-1.963903333"><ele>105.000000</ele><time>2010-08-18T09:14:36Z</time></trkpt>
	<trkpt lat="51.94295167" lon="-1.96386"><ele>105.000000</ele><time>2010-08-18T09:14:41Z</time></trkpt>
	<trkpt lat="51.942895" lon="-1.963815"><ele>105.000000</ele><time>2010-08-18T09:14:46Z</time></trkpt>
	<trkpt lat="51.94283833" lon="-1.963773333"><ele>105.000000</ele><time>2010-08-18T09:14:51Z</time></trkpt>
	<trkpt lat="51.94278167" lon="-1.963738333"><ele>105.000000</ele><time>2010-08-18T09:14:56Z</time></trkpt>
	<trkpt lat="51.94272167" lon="-1.963705"><ele>105.000000</ele><time>2010-08-18T09:15:01Z</time></trkpt>
	<trkpt lat="51.94266333" lon="-1.963666667"><ele>105.000000</ele><time>2010-08-18T09:15:06Z</time></trkpt>
	<trkpt lat="51.94260833" lon="-1.96363"><ele>105.000000</ele><time>2010-08-18T09:15:11Z</time></trkpt>
	<trkpt lat="51.94255333" lon="-1.963595"><ele>105.000000</ele><time>2010-08-18T09:15:16Z</time></trkpt>
	<trkpt lat="51.94250333" lon="-1.963565"><ele>105.000000</ele><time>2010-08-18T09:15:21Z</time></trkpt>
	<trkpt lat="51.94245833" lon="-1.963518333"><ele>105.000000</ele><time>2010-08-18T09:15:26Z</time></trkpt>
	<trkpt lat="51.94241" lon="-1.96348"><ele>104.000000</ele><time>2010-08-18T09:15:31Z</time></trkpt>
	<trkpt lat="51.94235833" lon="-1.963445"><ele>104.000000</ele><time>2010-08-18T09:15:36Z</time></trkpt>
	<trkpt lat="51.94231" lon="-1.96341"><ele>103.000000</ele><time>2010-08-18T09:15:41Z</time></trkpt>
	<trkpt lat="51.94225833" lon="-1.96338"><ele>102.000000</ele><time>2010-08-18T09:15:46Z</time></trkpt>
	<trkpt lat="51.94220667" lon="-1.963345"><ele>101.000000</ele><time>2010-08-18T09:15:51Z</time></trkpt>
	<trkpt lat="51.942155" lon="-1.963311667"><ele>101.000000</ele><time>2010-08-18T09:15:56Z</time></trkpt>
	<trkpt lat="51.94210667" lon="-1.963275"><ele>100.000000</ele><time>2010-08-18T09:16:01Z</time></trkpt>
	<trkpt lat="51.94205333" lon="-1.963246667"><ele>100.000000</ele><time>2010-08-18T09:16:06Z</time></trkpt>
	<trkpt lat="51.94200167" lon="-1.963213333"><ele>99.000000</ele><time>2010-08-18T09:16:11Z</time></trkpt>
	<trkpt lat="51.94195167" lon="-1.963176667"><ele>99.000000</ele><time>2010-08-18T09:16:16Z</time></trkpt>
	<trkpt lat="51.941905" lon="-1.963143333"><ele>99.000000</ele><time>2010-08-18T09:16:21Z</time></trkpt>
	<trkpt lat="51.941855" lon="-1.963115"><ele>99.000000</ele><time>2010-08-18T09:16:26Z</time></trkpt>
	<trkpt lat="51.94181" lon="-1.963073333"><ele>99.000000</ele><time>2010-08-18T09:16:31Z</time></trkpt>
	<trkpt lat="51.94177167" lon="-1.963033333"><ele>101.000000</ele><time>2010-08-18T09:16:36Z</time></trkpt>
	<trkpt lat="51.94172833" lon="-1.962996667"><ele>101.000000</ele><time>2010-08-18T09:16:41Z</time></trkpt>
	<trkpt lat="51.94168167" lon="-1.962956667"><ele>101.000000</ele><time>2010-08-18T09:16:46Z</time></trkpt>
	<trkpt lat="51.94163167" lon="-1.962916667"><ele>101.000000</ele><time>2010-08-18T09:16:51Z</time></trkpt>
	<trkpt lat="51.94158167" lon="-1.962886667"><ele>101.000000</ele><time>2010-08-18T09:16:56Z</time></trkpt>
	<trkpt lat="51.94153833" lon="-1.962855"><ele>101.000000</ele><time>2010-08-18T09:17:01Z</time></trkpt>
	<trkpt lat="51.94149" lon="-1.962825"><ele>102.000000</ele><time>2010-08-18T09:17:06Z</time></trkpt>
	<trkpt lat="51.94144333" lon="-1.962798333"><ele>102.000000</ele><time>2010-08-18T09:17:11Z</time></trkpt>
	<trkpt lat="51.94139667" lon="-1.962775"><ele>102.000000</ele><time>2010-08-18T09:17:16Z</time></trkpt>
	<trkpt lat="51.94135833" lon="-1.962753333"><ele>102.000000</ele><time>2010-08-18T09:17:21Z</time></trkpt>
	<trkpt lat="51.94132667" lon="-1.962723333"><ele>102.000000</ele><time>2010-08-18T09:17:26Z</time></trkpt>
	<trkpt lat="51.941305" lon="-1.962688333"><ele>103.000000</ele><time>2010-08-18T09:17:31Z</time></trkpt>
	<trkpt lat="51.941295" lon="-1.96268"><ele>103.000000</ele><time>2010-08-18T09:17:36Z</time></trkpt>
	<trkpt lat="51.94129333" lon="-1.962668333"><ele>103.000000</ele><time>2010-08-18T09:17:41Z</time></trkpt>
	<trkpt lat="51.94128167" lon="-1.962631667"><ele>104.000000</ele><time>2010-08-18T09:17:46Z</time></trkpt>
	<trkpt lat="51.94124667" lon="-1.962611667"><ele>105.000000</ele><time>2010-08-18T09:17:51Z</time></trkpt>
	<trkpt lat="51.941205" lon="-1.962613333"><ele>105.000000</ele><time>2010-08-18T09:17:56Z</time></trkpt>
	<trkpt lat="51.94116" lon="-1.962611667"><ele>106.000000</ele><time>2010-08-18T09:18:01Z</time></trkpt>
	<trkpt lat="51.94111833" lon="-1.962591667"><ele>106.000000</ele><time>2010-08-18T09:18:06Z</time></trkpt>
	<trkpt lat="51.941075" lon="-1.96257"><ele>107.000000</ele><time>2010-08-18T09:18:11Z</time></trkpt>
	<trkpt lat="51.94103333" lon="-1.962543333"><ele>107.000000</ele><time>2010-08-18T09:18:16Z</time></trkpt>
	<trkpt lat="51.94102" lon="-1.962513333"><ele>108.000000</ele><time>2010-08-18T09:18:21Z</time></trkpt>
	<trkpt lat="51.94101167" lon="-1.962528333"><ele>106.000000</ele><time>2010-08-18T09:18:26Z</time></trkpt>
	<trkpt lat="51.94101333" lon="-1.962528333"><ele>106.000000</ele><time>2010-08-18T09:18:31Z</time></trkpt>
	<trkpt lat="51.94101333" lon="-1.96253"><ele>105.000000</ele><time>2010-08-18T09:18:36Z</time></trkpt>
	<trkpt lat="51.941015" lon="-1.96253"><ele>105.000000</ele><time>2010-08-18T09:18:41Z</time></trkpt>
	<trkpt lat="51.94101667" lon="-1.962531667"><ele>105.000000</ele><time>2010-08-18T09:18:46Z</time></trkpt>
	<trkpt lat="51.94101667" lon="-1.962531667"><ele>105.000000</ele><time>2010-08-18T09:18:51Z</time></trkpt>
	<trkpt lat="51.94101833" lon="-1.962531667"><ele>105.000000</ele><time>2010-08-18T09:18:56Z</time></trkpt>
	<trkpt lat="51.94101833" lon="-1.962531667"><ele>105.000000</ele><time>2010-08-18T09:19:01Z</time></trkpt>
	<trkpt lat="51.94101833" lon="-1.962531667"><ele>105.000000</ele><time>2010-08-18T09:19:06Z</time></trkpt>
	<trkpt lat="51.94101833" lon="-1.962531667"><ele>105.000000</ele><time>2010-08-18T09:19:11Z</time></trkpt>
	<trkpt lat="51.94102" lon="-1.962531667"><ele>105.000000</ele><time>2010-08-18T09:19:16Z</time></trkpt>
	<trkpt lat="51.94102" lon="-1.962531667"><ele>105.000000</ele><time>2010-08-18T09:19:21Z</time></trkpt>
	<trkpt lat="51.94102" lon="-1.962531667"><ele>105.000000</ele><time>2010-08-18T09:19:26Z</time></trkpt>
	<trkpt lat="51.94102167" lon="-1.962533333"><ele>105.000000</ele><time>2010-08-18T09:19:31Z</time></trkpt>
	<trkpt lat="51.94102167" lon="-1.962533333"><ele>105.000000</ele><time>2010-08-18T09:19:36Z</time></trkpt>
	<trkpt lat="51.94102333" lon="-1.962533333"><ele>105.000000</ele><time>2010-08-18T09:19:41Z</time></trkpt>
	<trkpt lat="51.94102333" lon="-1.962533333"><ele>105.000000</ele><time>2010-08-18T09:19:46Z</time></trkpt>
	<trkpt lat="51.94102333" lon="-1.962535"><ele>105.000000</ele><time>2010-08-18T09:19:51Z</time></trkpt>
	<trkpt lat="51.94102333" lon="-1.962535"><ele>105.000000</ele><time>2010-08-18T09:19:56Z</time></trkpt>
	<trkpt lat="51.94102333" lon="-1.962535"><ele>105.000000</ele><time>2010-08-18T09:20:01Z</time></trkpt>
	<trkpt lat="51.94102333" lon="-1.962535"><ele>105.000000</ele><time>2010-08-18T09:20:06Z</time></trkpt>
	<trkpt lat="51.94102333" lon="-1.962535"><ele>105.000000</ele><time>2010-08-18T09:20:11Z</time></trkpt>
	<trkpt lat="51.94102333" lon="-1.962538333"><ele>105.000000</ele><time>2010-08-18T09:20:16Z</time></trkpt>
	<trkpt lat="51.94102333" lon="-1.962538333"><ele>105.000000</ele><time>2010-08-18T09:20:21Z</time></trkpt>
	<trkpt lat="51.94102333" lon="-1.96254"><ele>105.000000</ele><time>2010-08-18T09:20:26Z</time></trkpt>
	<trkpt lat="51.94102333" lon="-1.96254"><ele>106.000000</ele><time>2010-08-18T09:20:31Z</time></trkpt>
	<trkpt lat="51.941025" lon="-1.96254"><ele>106.000000</ele><time>2010-08-18T09:20:36Z</time></trkpt>
	<trkpt lat="51.941025" lon="-1.962541667"><ele>106.000000</ele><time>2010-08-18T09:20:41Z</time></trkpt>
	<trkpt lat="51.941025" lon="-1.962541667"><ele>106.000000</ele><time>2010-08-18T09:20:46Z</time></trkpt>
	<trkpt lat="51.941025" lon="-1.962541667"><ele>106.000000</ele><time>2010-08-18T09:20:51Z</time></trkpt>
	<trkpt lat="51.941025" lon="-1.962541667"><ele>106.000000</ele><time>2010-08-18T09:20:56Z</time></trkpt>
	<trkpt lat="51.941025" lon="-1.962541667"><ele>106.000000</ele><time>2010-08-18T09:21:01Z</time></trkpt>
	<trkpt lat="51.941025" lon="-1.962543333"><ele>106.000000</ele><time>2010-08-18T09:21:06Z</time></trkpt>
	<trkpt lat="51.941025" lon="-1.962543333"><ele>106.000000</ele><time>2010-08-18T09:21:11Z</time></trkpt>
	<trkpt lat="51.941025" lon="-1.962543333"><ele>107.000000</ele><time>2010-08-18T09:21:16Z</time></trkpt>
	<trkpt lat="51.941025" lon="-1.962543333"><ele>107.000000</ele><time>2010-08-18T09:21:21Z</time></trkpt>
	<trkpt lat="51.94102667" lon="-1.962545"><ele>107.000000</ele><time>2010-08-18T09:21:26Z</time></trkpt>
	<trkpt lat="51.94102667" lon="-1.962545"><ele>107.000000</ele><time>2010-08-18T09:21:31Z</time></trkpt>
	<trkpt lat="51.94102667" lon="-1.962545"><ele>107.000000</ele><time>2010-08-18T09:21:36Z</time></trkpt>
	<trkpt lat="51.94102667" lon="-1.962546667"><ele>107.000000</ele><time>2010-08-18T09:21:41Z</time></trkpt>
	<trkpt lat="51.94102667" lon="-1.962546667"><ele>107.000000</ele><time>2010-08-18T09:21:46Z</time></trkpt>
	<trkpt lat="51.94102667" lon="-1.962546667"><ele>107.000000</ele><time>2010-08-18T09:21:51Z</time></trkpt>
	<trkpt lat="51.94102667" lon="-1.962546667"><ele>107.000000</ele><time>2010-08-18T09:21:56Z</time></trkpt>
	<trkpt lat="51.94102667" lon="-1.962546667"><ele>107.000000</ele><time>2010-08-18T09:22:01Z</time></trkpt>
	<trkpt lat="51.94102667" lon="-1.962548333"><ele>107.000000</ele><time>2010-08-18T09:22:06Z</time></trkpt>
	<trkpt lat="51.94102667" lon="-1.962548333"><ele>107.000000</ele><time>2010-08-18T09:22:11Z</time></trkpt>
	<trkpt lat="51.94102667" lon="-1.962548333"><ele>107.000000</ele><time>2010-08-18T09:22:16Z</time></trkpt>
	<trkpt lat="51.94102667" lon="-1.962548333"><ele>107.000000</ele><time>2010-08-18T09:22:21Z</time></trkpt>
	<trkpt lat="51.94102833" lon="-1.962548333"><ele>107.000000</ele><time>2010-08-18T09:22:26Z</time></trkpt>
	<trkpt lat="51.94102833" lon="-1.962548333"><ele>107.000000</ele><time>2010-08-18T09:22:31Z</time></trkpt>
	<trkpt lat="51.94102833" lon="-1.962548333"><ele>107.000000</ele><time>2010-08-18T09:22:36Z</time></trkpt>
	<trkpt lat="51.94102833" lon="-1.962551667"><ele>107.000000</ele><time>2010-08-18T09:22:41Z</time></trkpt>
	<trkpt lat="51.94102833" lon="-1.962553333"><ele>107.000000</ele><time>2010-08-18T09:22:46Z</time></trkpt>
	<trkpt lat="51.94103333" lon="-1.962548333"><ele>107.000000</ele><time>2010-08-18T09:22:51Z</time></trkpt>
	<trkpt lat="51.941035" lon="-1.962548333"><ele>107.000000</ele><time>2010-08-18T09:22:56Z</time></trkpt>
	<trkpt lat="51.941035" lon="-1.962553333"><ele>108.000000</ele><time>2010-08-18T09:23:01Z</time></trkpt>
	<trkpt lat="51.94103333" lon="-1.962558333"><ele>108.000000</ele><time>2010-08-18T09:23:06Z</time></trkpt>
	<trkpt lat="51.94103333" lon="-1.962556667"><ele>108.000000</ele><time>2010-08-18T09:23:11Z</time></trkpt>
	<trkpt lat="51.94103333" lon="-1.962556667"><ele>108.000000</ele><time>2010-08-18T09:23:16Z</time></trkpt>
	<trkpt lat="51.94103" lon="-1.962548333"><ele>108.000000</ele><time>2010-08-18T09:23:21Z</time></trkpt>
	<trkpt lat="51.94100333" lon="-1.96254"><ele>108.000000</ele><time>2010-08-18T09:23:26Z</time></trkpt>
	<trkpt lat="51.940975" lon="-1.962513333"><ele>109.000000</ele><time>2010-08-18T09:23:31Z</time></trkpt>
	<trkpt lat="51.94095167" lon="-1.962475"><ele>110.000000</ele><time>2010-08-18T09:23:36Z</time></trkpt>
	<trkpt lat="51.94094833" lon="-1.962463333"><ele>111.000000</ele><time>2010-08-18T09:23:41Z</time></trkpt>
	<trkpt lat="51.94095" lon="-1.96246"><ele>111.000000</ele><time>2010-08-18T09:23:46Z</time></trkpt>
	<trkpt lat="51.94089333" lon="-1.96241"><ele>112.000000</ele><time>2010-08-18T09:23:51Z</time></trkpt>
	<trkpt lat="51.94082667" lon="-1.962353333"><ele>112.000000</ele><time>2010-08-18T09:23:56Z</time></trkpt>
	<trkpt lat="51.94076333" lon="-1.962303333"><ele>113.000000</ele><time>2010-08-18T09:24:01Z</time></trkpt>
	<trkpt lat="51.940695" lon="-1.962253333"><ele>114.000000</ele><time>2010-08-18T09:24:06Z</time></trkpt>
	<trkpt lat="51.94061667" lon="-1.962206667"><ele>114.000000</ele><time>2010-08-18T09:24:11Z</time></trkpt>
	<trkpt lat="51.94054333" lon="-1.962161667"><ele>114.000000</ele><time>2010-08-18T09:24:16Z</time></trkpt>
	<trkpt lat="51.94047" lon="-1.962116667"><ele>115.000000</ele><time>2010-08-18T09:24:21Z</time></trkpt>
	<trkpt lat="51.94040333" lon="-1.962073333"><ele>116.000000</ele><time>2010-08-18T09:24:26Z</time></trkpt>
	<trkpt lat="51.94033333" lon="-1.962035"><ele>116.000000</ele><time>2010-08-18T09:24:31Z</time></trkpt>
	<trkpt lat="51.94027" lon="-1.962035"><ele>116.000000</ele><time>2010-08-18T09:24:36Z</time></trkpt>
	<trkpt lat="51.94022667" lon="-1.962075"><ele>117.000000</ele><time>2010-08-18T09:24:41Z</time></trkpt>
	<trkpt lat="51.94022333" lon="-1.962095"><ele>118.000000</ele><time>2010-08-18T09:24:46Z</time></trkpt>
	<trkpt lat="51.94018" lon="-1.962121667"><ele>119.000000</ele><time>2010-08-18T09:24:51Z</time></trkpt>
	<trkpt lat="51.94012" lon="-1.962118333"><ele>119.000000</ele><time>2010-08-18T09:24:56Z</time></trkpt>
	<trkpt lat="51.94006333" lon="-1.962105"><ele>120.000000</ele><time>2010-08-18T09:25:01Z</time></trkpt>
	<trkpt lat="51.94000667" lon="-1.96209"><ele>120.000000</ele><time>2010-08-18T09:25:06Z</time></trkpt>
	<trkpt lat="51.93995167" lon="-1.962076667"><ele>120.000000</ele><time>2010-08-18T09:25:11Z</time></trkpt>
	<trkpt lat="51.93989333" lon="-1.962066667"><ele>121.000000</ele><time>2010-08-18T09:25:16Z</time></trkpt>
	<trkpt lat="51.939845" lon="-1.96205"><ele>122.000000</ele><time>2010-08-18T09:25:21Z</time></trkpt>
	<trkpt lat="51.93979333" lon="-1.962033333"><ele>122.000000</ele><time>2010-08-18T09:25:26Z</time></trkpt>
	<trkpt lat="51.93974667" lon="-1.962015"><ele>123.000000</ele><time>2010-08-18T09:25:31Z</time></trkpt>
	<trkpt lat="51.93969833" lon="-1.961995"><ele>123.000000</ele><time>2010-08-18T09:25:36Z</time></trkpt>
	<trkpt lat="51.93965333" lon="-1.961975"><ele>124.000000</ele><time>2010-08-18T09:25:41Z</time></trkpt>
	<trkpt lat="51.93961333" lon="-1.96196"><ele>125.000000</ele><time>2010-08-18T09:25:46Z</time></trkpt>
	<trkpt lat="51.93957333" lon="-1.961941667"><ele>126.000000</ele><time>2010-08-18T09:25:51Z</time></trkpt>
	<trkpt lat="51.93953333" lon="-1.96192"><ele>126.000000</ele><time>2010-08-18T09:25:56Z</time></trkpt>
	<trkpt lat="51.93948833" lon="-1.961906667"><ele>127.000000</ele><time>2010-08-18T09:26:01Z</time></trkpt>
	<trkpt lat="51.93944667" lon="-1.96189"><ele>128.000000</ele><time>2010-08-18T09:26:06Z</time></trkpt>
	<trkpt lat="51.93940833" lon="-1.961865"><ele>128.000000</ele><time>2010-08-18T09:26:11Z</time></trkpt>
	<trkpt lat="51.93938333" lon="-1.961825"><ele>130.000000</ele><time>2010-08-18T09:26:16Z</time></trkpt>
	<trkpt lat="51.93935333" lon="-1.961791667"><ele>131.000000</ele><time>2010-08-18T09:26:21Z</time></trkpt>
	<trkpt lat="51.93932" lon="-1.961776667"><ele>132.000000</ele><time>2010-08-18T09:26:26Z</time></trkpt>
	<trkpt lat="51.93927167" lon="-1.961768333"><ele>133.000000</ele><time>2010-08-18T09:26:31Z</time></trkpt>
	<trkpt lat="51.93922833" lon="-1.961758333"><ele>133.000000</ele><time>2010-08-18T09:26:36Z</time></trkpt>
	<trkpt lat="51.939185" lon="-1.961746667"><ele>133.000000</ele><time>2010-08-18T09:26:41Z</time></trkpt>
	<trkpt lat="51.93914333" lon="-1.961735"><ele>134.000000</ele><time>2010-08-18T09:26:46Z</time></trkpt>
	<trkpt lat="51.93912833" lon="-1.961725"><ele>134.000000</ele><time>2010-08-18T09:26:51Z</time></trkpt>
	<trkpt lat="51.93909833" lon="-1.961716667"><ele>136.000000</ele><time>2010-08-18T09:26:56Z</time></trkpt>
	<trkpt lat="51.93907333" lon="-1.961693333"><ele>137.000000</ele><time>2010-08-18T09:27:01Z</time></trkpt>
	<trkpt lat="51.939045" lon="-1.961681667"><ele>137.000000</ele><time>2010-08-18T09:27:06Z</time></trkpt>
	<trkpt lat="51.93904" lon="-1.961691667"><ele>138.000000</ele><time>2010-08-18T09:27:11Z</time></trkpt>
	<trkpt lat="51.93901" lon="-1.961683333"><ele>138.000000</ele><time>2010-08-18T09:27:16Z</time></trkpt>
	<trkpt lat="51.93897333" lon="-1.961686667"><ele>138.000000</ele><time>2010-08-18T09:27:21Z</time></trkpt>
	<trkpt lat="51.93893333" lon="-1.961691667"><ele>139.000000</ele><time>2010-08-18T09:27:26Z</time></trkpt>
	<trkpt lat="51.93889333" lon="-1.961691667"><ele>139.000000</ele><time>2010-08-18T09:27:31Z</time></trkpt>
	<trkpt lat="51.93885833" lon="-1.9617"><ele>139.000000</ele><time>2010-08-18T09:27:36Z</time></trkpt>
	<trkpt lat="51.93882167" lon="-1.961718333"><ele>139.000000</ele><time>2010-08-18T09:27:41Z</time></trkpt>
	<trkpt lat="51.93878667" lon="-1.961753333"><ele>139.000000</ele><time>2010-08-18T09:27:46Z</time></trkpt>
	<trkpt lat="51.93874667" lon="-1.961781667"><ele>140.000000</ele><time>2010-08-18T09:27:51Z</time></trkpt>
	<trkpt lat="51.93871667" lon="-1.961825"><ele>141.000000</ele><time>2010-08-18T09:27:56Z</time></trkpt>
	<trkpt lat="51.93867833" lon="-1.961848333"><ele>142.000000</ele><time>2010-08-18T09:28:01Z</time></trkpt>
	<trkpt lat="51.93864" lon="-1.961885"><ele>142.000000</ele><time>2010-08-18T09:28:06Z</time></trkpt>
	<trkpt lat="51.93860667" lon="-1.961913333"><ele>143.000000</ele><time>2010-08-18T09:28:11Z</time></trkpt>
	<trkpt lat="51.93859667" lon="-1.961911667"><ele>143.000000</ele><time>2010-08-18T09:28:16Z</time></trkpt>
	<trkpt lat="51.93859667" lon="-1.961905"><ele>144.000000</ele><time>2010-08-18T09:28:21Z</time></trkpt>
	<trkpt lat="51.93859667" lon="-1.961903333"><ele>144.000000</ele><time>2010-08-18T09:28:26Z</time></trkpt>
	<trkpt lat="51.93859667" lon="-1.961901667"><ele>144.000000</ele><time>2010-08-18T09:28:31Z</time></trkpt>
	<trkpt lat="51.93859" lon="-1.961903333"><ele>145.000000</ele><time>2010-08-18T09:28:36Z</time></trkpt>
	<trkpt lat="51.93859" lon="-1.961901667"><ele>145.000000</ele><time>2010-08-18T09:28:41Z</time></trkpt>
	<trkpt lat="51.93859" lon="-1.9619"><ele>145.000000</ele><time>2010-08-18T09:28:46Z</time></trkpt>
	<trkpt lat="51.93859333" lon="-1.961901667"><ele>144.000000</ele><time>2010-08-18T09:28:51Z</time></trkpt>
	<trkpt lat="51.93859667" lon="-1.961905"><ele>144.000000</ele><time>2010-08-18T09:28:56Z</time></trkpt>
	<trkpt lat="51.93859667" lon="-1.961911667"><ele>144.000000</ele><time>2010-08-18T09:29:01Z</time></trkpt>
	<trkpt lat="51.93859667" lon="-1.961915"><ele>143.000000</ele><time>2010-08-18T09:29:06Z</time></trkpt>
	<trkpt lat="51.938595" lon="-1.961918333"><ele>143.000000</ele><time>2010-08-18T09:29:11Z</time></trkpt>
	<trkpt lat="51.93859333" lon="-1.961921667"><ele>143.000000</ele><time>2010-08-18T09:29:16Z</time></trkpt>
	<trkpt lat="51.93859333" lon="-1.961921667"><ele>142.000000</ele><time>2010-08-18T09:29:21Z</time></trkpt>
	<trkpt lat="51.93859" lon="-1.96194"><ele>142.000000</ele><time>2010-08-18T09:29:26Z</time></trkpt>
	<trkpt lat="51.93857" lon="-1.961958333"><ele>142.000000</ele><time>2010-08-18T09:29:31Z</time></trkpt>
	<trkpt lat="51.93854333" lon="-1.961988333"><ele>143.000000</ele><time>2010-08-18T09:29:36Z</time></trkpt>
	<trkpt lat="51.938515" lon="-1.962025"><ele>143.000000</ele><time>2010-08-18T09:29:41Z</time></trkpt>
	<trkpt lat="51.93848167" lon="-1.962056667"><ele>143.000000</ele><time>2010-08-18T09:29:46Z</time></trkpt>
	<trkpt lat="51.93845" lon="-1.962091667"><ele>144.000000</ele><time>2010-08-18T09:29:51Z</time></trkpt>
	<trkpt lat="51.93841667" lon="-1.962125"><ele>144.000000</ele><time>2010-08-18T09:29:56Z</time></trkpt>
	<trkpt lat="51.93838667" lon="-1.96216"><ele>145.000000</ele><time>2010-08-18T09:30:01Z</time></trkpt>
	<trkpt lat="51.938355" lon="-1.962188333"><ele>145.000000</ele><time>2010-08-18T09:30:06Z</time></trkpt>
	<trkpt lat="51.938325" lon="-1.96222"><ele>146.000000</ele><time>2010-08-18T09:30:11Z</time></trkpt>
	<trkpt lat="51.93829" lon="-1.962245"><ele>146.000000</ele><time>2010-08-18T09:30:16Z</time></trkpt>
	<trkpt lat="51.93825833" lon="-1.962276667"><ele>146.000000</ele><time>2010-08-18T09:30:21Z</time></trkpt>
	<trkpt lat="51.938225" lon="-1.962306667"><ele>147.000000</ele><time>2010-08-18T09:30:26Z</time></trkpt>
	<trkpt lat="51.93819167" lon="-1.96234"><ele>147.000000</ele><time>2010-08-18T09:30:31Z</time></trkpt>
	<trkpt lat="51.93816667" lon="-1.962375"><ele>148.000000</ele><time>2010-08-18T09:30:36Z</time></trkpt>
	<trkpt lat="51.93813667" lon="-1.96241"><ele>148.000000</ele><time>2010-08-18T09:30:41Z</time></trkpt>
	<trkpt lat="51.93810667" lon="-1.962445"><ele>149.000000</ele><time>2010-08-18T09:30:46Z</time></trkpt>
	<trkpt lat="51.93808" lon="-1.962483333"><ele>149.000000</ele><time>2010-08-18T09:30:51Z</time></trkpt>
	<trkpt lat="51.93805" lon="-1.962518333"><ele>150.000000</ele><time>2010-08-18T09:30:56Z</time></trkpt>
	<trkpt lat="51.93802167" lon="-1.962555"><ele>150.000000</ele><time>2010-08-18T09:31:01Z</time></trkpt>
	<trkpt lat="51.93799" lon="-1.962588333"><ele>150.000000</ele><time>2010-08-18T09:31:06Z</time></trkpt>
	<trkpt lat="51.93796167" lon="-1.962625"><ele>151.000000</ele><time>2010-08-18T09:31:11Z</time></trkpt>
	<trkpt lat="51.93793333" lon="-1.962663333"><ele>151.000000</ele><time>2010-08-18T09:31:16Z</time></trkpt>
	<trkpt lat="51.9379" lon="-1.962688333"><ele>152.000000</ele><time>2010-08-18T09:31:21Z</time></trkpt>
	<trkpt lat="51.93786833" lon="-1.962718333"><ele>152.000000</ele><time>2010-08-18T09:31:26Z</time></trkpt>
	<trkpt lat="51.93783833" lon="-1.962753333"><ele>153.000000</ele><time>2010-08-18T09:31:31Z</time></trkpt>
	<trkpt lat="51.93780667" lon="-1.962776667"><ele>153.000000</ele><time>2010-08-18T09:31:36Z</time></trkpt>
	<trkpt lat="51.937775" lon="-1.962796667"><ele>154.000000</ele><time>2010-08-18T09:31:41Z</time></trkpt>
	<trkpt lat="51.93774667" lon="-1.962808333"><ele>155.000000</ele><time>2010-08-18T09:31:46Z</time></trkpt>
	<trkpt lat="51.93772833" lon="-1.96281"><ele>155.000000</ele><time>2010-08-18T09:31:51Z</time></trkpt>
	<trkpt lat="51.937725" lon="-1.96281"><ele>155.000000</ele><time>2010-08-18T09:31:56Z</time></trkpt>
	<trkpt lat="51.93772333" lon="-1.962813333"><ele>155.000000</ele><time>2010-08-18T09:32:01Z</time></trkpt>
	<trkpt lat="51.93771833" lon="-1.962816667"><ele>154.000000</ele><time>2010-08-18T09:32:06Z</time></trkpt>
	<trkpt lat="51.93770833" lon="-1.96282"><ele>155.000000</ele><time>2010-08-18T09:32:11Z</time></trkpt>
	<trkpt lat="51.93769" lon="-1.96282"><ele>155.000000</ele><time>2010-08-18T09:32:16Z</time></trkpt>
	<trkpt lat="51.93768833" lon="-1.962815"><ele>154.000000</ele><time>2010-08-18T09:32:21Z</time></trkpt>
	<trkpt lat="51.937685" lon="-1.962816667"><ele>154.000000</ele><time>2010-08-18T09:32:26Z</time></trkpt>
	<trkpt lat="51.93768167" lon="-1.962818333"><ele>154.000000</ele><time>2010-08-18T09:32:31Z</time></trkpt>
	<trkpt lat="51.93767167" lon="-1.962816667"><ele>155.000000</ele><time>2010-08-18T09:32:36Z</time></trkpt>
	<trkpt lat="51.93766" lon="-1.962831667"><ele>156.000000</ele><time>2010-08-18T09:32:41Z</time></trkpt>
	<trkpt lat="51.93763" lon="-1.962863333"><ele>158.000000</ele><time>2010-08-18T09:32:46Z</time></trkpt>
	<trkpt lat="51.93759833" lon="-1.962891667"><ele>159.000000</ele><time>2010-08-18T09:32:51Z</time></trkpt>
	<trkpt lat="51.93756167" lon="-1.962925"><ele>160.000000</ele><time>2010-08-18T09:32:56Z</time></trkpt>
	<trkpt lat="51.93753" lon="-1.962955"><ele>160.000000</ele><time>2010-08-18T09:33:01Z</time></trkpt>
	<trkpt lat="51.937495" lon="-1.962983333"><ele>161.000000</ele><time>2010-08-18T09:33:06Z</time></trkpt>
	<trkpt lat="51.93746333" lon="-1.963011667"><ele>161.000000</ele><time>2010-08-18T09:33:11Z</time></trkpt>
	<trkpt lat="51.937435" lon="-1.963041667"><ele>161.000000</ele><time>2010-08-18T09:33:16Z</time></trkpt>
	<trkpt lat="51.93740833" lon="-1.963066667"><ele>162.000000</ele><time>2010-08-18T09:33:21Z</time></trkpt>
	<trkpt lat="51.93738" lon="-1.963091667"><ele>162.000000</ele><time>2010-08-18T09:33:26Z</time></trkpt>
	<trkpt lat="51.93735" lon="-1.96312"><ele>163.000000</ele><time>2010-08-18T09:33:31Z</time></trkpt>
	<trkpt lat="51.93732167" lon="-1.963146667"><ele>163.000000</ele><time>2010-08-18T09:33:36Z</time></trkpt>
	<trkpt lat="51.937295" lon="-1.96317"><ele>164.000000</ele><time>2010-08-18T09:33:41Z</time></trkpt>
	<trkpt lat="51.93726333" lon="-1.963183333"><ele>164.000000</ele><time>2010-08-18T09:33:46Z</time></trkpt>
	<trkpt lat="51.93723167" lon="-1.963188333"><ele>165.000000</ele><time>2010-08-18T09:33:51Z</time></trkpt>
	<trkpt lat="51.9372" lon="-1.963191667"><ele>165.000000</ele><time>2010-08-18T09:33:56Z</time></trkpt>
	<trkpt lat="51.937165" lon="-1.963198333"><ele>165.000000</ele><time>2010-08-18T09:34:01Z</time></trkpt>
	<trkpt lat="51.93712833" lon="-1.963208333"><ele>166.000000</ele><time>2010-08-18T09:34:06Z</time></trkpt>
	<trkpt lat="51.93709333" lon="-1.963216667"><ele>166.000000</ele><time>2010-08-18T09:34:11Z</time></trkpt>
	<trkpt lat="51.93705833" lon="-1.963223333"><ele>167.000000</ele><time>2010-08-18T09:34:16Z</time></trkpt>
	<trkpt lat="51.93702333" lon="-1.963233333"><ele>167.000000</ele><time>2010-08-18T09:34:21Z</time></trkpt>
	<trkpt lat="51.93698833" lon="-1.963243333"><ele>168.000000</ele><time>2010-08-18T09:34:26Z</time></trkpt>
	<trkpt lat="51.93695" lon="-1.963253333"><ele>168.000000</ele><time>2010-08-18T09:34:31Z</time></trkpt>
	<trkpt lat="51.93691167" lon="-1.963265"><ele>168.000000</ele><time>2010-08-18T09:34:36Z</time></trkpt>
	<trkpt lat="51.93688667" lon="-1.963266667"><ele>169.000000</ele><time>2010-08-18T09:34:41Z</time></trkpt>
	<trkpt lat="51.93687" lon="-1.963271667"><ele>169.000000</ele><time>2010-08-18T09:34:46Z</time></trkpt>
	<trkpt lat="51.93683667" lon="-1.963281667"><ele>169.000000</ele><time>2010-08-18T09:34:51Z</time></trkpt>
	<trkpt lat="51.936795" lon="-1.963293333"><ele>170.000000</ele><time>2010-08-18T09:34:56Z</time></trkpt>
	<trkpt lat="51.93674667" lon="-1.963305"><ele>170.000000</ele><time>2010-08-18T09:35:01Z</time></trkpt>
	<trkpt lat="51.93670167" lon="-1.96332"><ele>170.000000</ele><time>2010-08-18T09:35:06Z</time></trkpt>
	<trkpt lat="51.93665833" lon="-1.963333333"><ele>170.000000</ele><time>2010-08-18T09:35:11Z</time></trkpt>
	<trkpt lat="51.93661833" lon="-1.963345"><ele>171.000000</ele><time>2010-08-18T09:35:16Z</time></trkpt>
	<trkpt lat="51.93657333" lon="-1.963355"><ele>171.000000</ele><time>2010-08-18T09:35:21Z</time></trkpt>
	<trkpt lat="51.93653167" lon="-1.96337"><ele>171.000000</ele><time>2010-08-18T09:35:26Z</time></trkpt>
	<trkpt lat="51.93648667" lon="-1.96338"><ele>171.000000</ele><time>2010-08-18T09:35:31Z</time></trkpt>
	<trkpt lat="51.93644333" lon="-1.963395"><ele>172.000000</ele><time>2010-08-18T09:35:36Z</time></trkpt>
	<trkpt lat="51.93640167" lon="-1.963408333"><ele>172.000000</ele><time>2010-08-18T09:35:41Z</time></trkpt>
	<trkpt lat="51.93636167" lon="-1.963418333"><ele>173.000000</ele><time>2010-08-18T09:35:46Z</time></trkpt>
	<trkpt lat="51.93632167" lon="-1.96343"><ele>173.000000</ele><time>2010-08-18T09:35:51Z</time></trkpt>
	<trkpt lat="51.93627833" lon="-1.963441667"><ele>173.000000</ele><time>2010-08-18T09:35:56Z</time></trkpt>
	<trkpt lat="51.93622833" lon="-1.963456667"><ele>174.000000</ele><time>2010-08-18T09:36:01Z</time></trkpt>
	<trkpt lat="51.93619333" lon="-1.963466667"><ele>174.000000</ele><time>2010-08-18T09:36:06Z</time></trkpt>
	<trkpt lat="51.93615833" lon="-1.96349"><ele>174.000000</ele><time>2010-08-18T09:36:11Z</time></trkpt>
	<trkpt lat="51.93611833" lon="-1.963516667"><ele>175.000000</ele><time>2010-08-18T09:36:16Z</time></trkpt>
	<trkpt lat="51.93607833" lon="-1.963543333"><ele>175.000000</ele><time>2010-08-18T09:36:21Z</time></trkpt>
	<trkpt lat="51.93603833" lon="-1.963566667"><ele>176.000000</ele><time>2010-08-18T09:36:26Z</time></trkpt>
	<trkpt lat="51.935995" lon="-1.963598333"><ele>176.000000</ele><time>2010-08-18T09:36:31Z</time></trkpt>
	<trkpt lat="51.93595167" lon="-1.963631667"><ele>176.000000</ele><time>2010-08-18T09:36:36Z</time></trkpt>
	<trkpt lat="51.93591167" lon="-1.96366"><ele>177.000000</ele><time>2010-08-18T09:36:41Z</time></trkpt>
	<trkpt lat="51.93587667" lon="-1.963698333"><ele>178.000000</ele><time>2010-08-18T09:36:46Z</time></trkpt>
	<trkpt lat="51.93584" lon="-1.963738333"><ele>179.000000</ele><time>2010-08-18T09:36:51Z</time></trkpt>
	<trkpt lat="51.93580333" lon="-1.963788333"><ele>179.000000</ele><time>2010-08-18T09:36:56Z</time></trkpt>
	<trkpt lat="51.93576333" lon="-1.96384"><ele>179.000000</ele><time>2010-08-18T09:37:01Z</time></trkpt>
	<trkpt lat="51.93572" lon="-1.96389"><ele>179.000000</ele><time>2010-08-18T09:37:06Z</time></trkpt>
	<trkpt lat="51.93568" lon="-1.963946667"><ele>178.000000</ele><time>2010-08-18T09:37:11Z</time></trkpt>
	<trkpt lat="51.93563667" lon="-1.963993333"><ele>178.000000</ele><time>2010-08-18T09:37:16Z</time></trkpt>
	<trkpt lat="51.93559167" lon="-1.964041667"><ele>177.000000</ele><time>2010-08-18T09:37:21Z</time></trkpt>
	<trkpt lat="51.93555" lon="-1.964083333"><ele>177.000000</ele><time>2010-08-18T09:37:26Z</time></trkpt>
	<trkpt lat="51.93551" lon="-1.964125"><ele>177.000000</ele><time>2010-08-18T09:37:31Z</time></trkpt>
	<trkpt lat="51.93547" lon="-1.964168333"><ele>177.000000</ele><time>2010-08-18T09:37:36Z</time></trkpt>
	<trkpt lat="51.93543333" lon="-1.964221667"><ele>177.000000</ele><time>2010-08-18T09:37:41Z</time></trkpt>
	<trkpt lat="51.93539667" lon="-1.964278333"><ele>177.000000</ele><time>2010-08-18T09:37:46Z</time></trkpt>
	<trkpt lat="51.93536667" lon="-1.96434"><ele>176.000000</ele><time>2010-08-18T09:37:51Z</time></trkpt>
	<trkpt lat="51.93533667" lon="-1.96441"><ele>177.000000</ele><time>2010-08-18T09:37:56Z</time></trkpt>
	<trkpt lat="51.93532" lon="-1.964488333"><ele>177.000000</ele><time>2010-08-18T09:38:01Z</time></trkpt>
	<trkpt lat="51.93529667" lon="-1.964561667"><ele>177.000000</ele><time>2010-08-18T09:38:06Z</time></trkpt>
	<trkpt lat="51.93526833" lon="-1.96463"><ele>177.000000</ele><time>2010-08-18T09:38:11Z</time></trkpt>
	<trkpt lat="51.93523833" lon="-1.964698333"><ele>178.000000</ele><time>2010-08-18T09:38:16Z</time></trkpt>
	<trkpt lat="51.935205" lon="-1.964758333"><ele>178.000000</ele><time>2010-08-18T09:38:21Z</time></trkpt>
	<trkpt lat="51.93517" lon="-1.964816667"><ele>178.000000</ele><time>2010-08-18T09:38:26Z</time></trkpt>
	<trkpt lat="51.935135" lon="-1.964878333"><ele>178.000000</ele><time>2010-08-18T09:38:31Z</time></trkpt>
	<trkpt lat="51.93509667" lon="-1.96494"><ele>178.000000</ele><time>2010-08-18T09:38:36Z</time></trkpt>
	<trkpt lat="51.93506667" lon="-1.965006667"><ele>178.000000</ele><time>2010-08-18T09:38:41Z</time></trkpt>
	<trkpt lat="51.935035" lon="-1.965063333"><ele>179.000000</ele><time>2010-08-18T09:38:46Z</time></trkpt>
	<trkpt lat="51.93500667" lon="-1.965121667"><ele>179.000000</ele><time>2010-08-18T09:38:51Z</time></trkpt>
	<trkpt lat="51.93497333" lon="-1.965178333"><ele>179.000000</ele><time>2010-08-18T09:38:56Z</time></trkpt>
	<trkpt lat="51.93494" lon="-1.965231667"><ele>179.000000</ele><time>2010-08-18T09:39:01Z</time></trkpt>
	<trkpt lat="51.93490667" lon="-1.96528"><ele>180.000000</ele><time>2010-08-18T09:39:06Z</time></trkpt>
	<trkpt lat="51.934875" lon="-1.965323333"><ele>180.000000</ele><time>2010-08-18T09:39:11Z</time></trkpt>
	<trkpt lat="51.93484" lon="-1.965368333"><ele>180.000000</ele><time>2010-08-18T09:39:16Z</time></trkpt>
	<trkpt lat="51.934805" lon="-1.965411667"><ele>181.000000</ele><time>2010-08-18T09:39:21Z</time></trkpt>
	<trkpt lat="51.93476833" lon="-1.965453333"><ele>181.000000</ele><time>2010-08-18T09:39:26Z</time></trkpt>
	<trkpt lat="51.93473" lon="-1.965493333"><ele>181.000000</ele><time>2010-08-18T09:39:31Z</time></trkpt>
	<trkpt lat="51.93469333" lon="-1.96553"><ele>182.000000</ele><time>2010-08-18T09:39:36Z</time></trkpt>
	<trkpt lat="51.93465333" lon="-1.96556"><ele>182.000000</ele><time>2010-08-18T09:39:41Z</time></trkpt>
	<trkpt lat="51.93461667" lon="-1.965585"><ele>182.000000</ele><time>2010-08-18T09:39:46Z</time></trkpt>
	<trkpt lat="51.93458333" lon="-1.965608333"><ele>182.000000</ele><time>2010-08-18T09:39:51Z</time></trkpt>
	<trkpt lat="51.934545" lon="-1.96563"><ele>183.000000</ele><time>2010-08-18T09:39:56Z</time></trkpt>
	<trkpt lat="51.93450333" lon="-1.965651667"><ele>183.000000</ele><time>2010-08-18T09:40:01Z</time></trkpt>
	<trkpt lat="51.93446" lon="-1.965673333"><ele>183.000000</ele><time>2010-08-18T09:40:06Z</time></trkpt>
	<trkpt lat="51.934415" lon="-1.965688333"><ele>183.000000</ele><time>2010-08-18T09:40:11Z</time></trkpt>
	<trkpt lat="51.93437" lon="-1.965711667"><ele>184.000000</ele><time>2010-08-18T09:40:16Z</time></trkpt>
	<trkpt lat="51.93432833" lon="-1.965728333"><ele>184.000000</ele><time>2010-08-18T09:40:21Z</time></trkpt>
	<trkpt lat="51.93428667" lon="-1.965745"><ele>184.000000</ele><time>2010-08-18T09:40:26Z</time></trkpt>
	<trkpt lat="51.934245" lon="-1.965766667"><ele>184.000000</ele><time>2010-08-18T09:40:31Z</time></trkpt>
	<trkpt lat="51.93420333" lon="-1.965786667"><ele>184.000000</ele><time>2010-08-18T09:40:36Z</time></trkpt>
	<trkpt lat="51.93415833" lon="-1.9658"><ele>184.000000</ele><time>2010-08-18T09:40:41Z</time></trkpt>
	<trkpt lat="51.93411333" lon="-1.96582"><ele>184.000000</ele><time>2010-08-18T09:40:46Z</time></trkpt>
	<trkpt lat="51.93407" lon="-1.965836667"><ele>184.000000</ele><time>2010-08-18T09:40:51Z</time></trkpt>
	<trkpt lat="51.93402833" lon="-1.96585"><ele>185.000000</ele><time>2010-08-18T09:40:56Z</time></trkpt>
	<trkpt lat="51.933985" lon="-1.965865"><ele>185.000000</ele><time>2010-08-18T09:41:01Z</time></trkpt>
	<trkpt lat="51.93394333" lon="-1.965883333"><ele>185.000000</ele><time>2010-08-18T09:41:06Z</time></trkpt>
	<trkpt lat="51.933905" lon="-1.9659"><ele>185.000000</ele><time>2010-08-18T09:41:11Z</time></trkpt>
	<trkpt lat="51.93389" lon="-1.965906667"><ele>185.000000</ele><time>2010-08-18T09:41:16Z</time></trkpt>
	<trkpt lat="51.93389" lon="-1.965906667"><ele>185.000000</ele><time>2010-08-18T09:41:21Z</time></trkpt>
	<trkpt lat="51.93389" lon="-1.965908333"><ele>185.000000</ele><time>2010-08-18T09:41:26Z</time></trkpt>
	<trkpt lat="51.93389" lon="-1.965908333"><ele>185.000000</ele><time>2010-08-18T09:41:31Z</time></trkpt>
	<trkpt lat="51.93389" lon="-1.96591"><ele>185.000000</ele><time>2010-08-18T09:41:36Z</time></trkpt>
	<trkpt lat="51.93389" lon="-1.96591"><ele>184.000000</ele><time>2010-08-18T09:41:41Z</time></trkpt>
	<trkpt lat="51.93389" lon="-1.96591"><ele>184.000000</ele><time>2010-08-18T09:41:46Z</time></trkpt>
	<trkpt lat="51.933895" lon="-1.965908333"><ele>185.000000</ele><time>2010-08-18T09:41:51Z</time></trkpt>
	<trkpt lat="51.93389667" lon="-1.965906667"><ele>185.000000</ele><time>2010-08-18T09:41:56Z</time></trkpt>
	<trkpt lat="51.93389667" lon="-1.965905"><ele>185.000000</ele><time>2010-08-18T09:42:01Z</time></trkpt>
	<trkpt lat="51.93389833" lon="-1.965905"><ele>185.000000</ele><time>2010-08-18T09:42:06Z</time></trkpt>
	<trkpt lat="51.93388833" lon="-1.965906667"><ele>185.000000</ele><time>2010-08-18T09:42:11Z</time></trkpt>
	<trkpt lat="51.93386" lon="-1.965916667"><ele>185.000000</ele><time>2010-08-18T09:42:16Z</time></trkpt>
	<trkpt lat="51.93382333" lon="-1.965941667"><ele>186.000000</ele><time>2010-08-18T09:42:21Z</time></trkpt>
	<trkpt lat="51.93378667" lon="-1.965961667"><ele>186.000000</ele><time>2010-08-18T09:42:26Z</time></trkpt>
	<trkpt lat="51.93374667" lon="-1.965981667"><ele>186.000000</ele><time>2010-08-18T09:42:31Z</time></trkpt>
	<trkpt lat="51.93370667" lon="-1.966"><ele>186.000000</ele><time>2010-08-18T09:42:36Z</time></trkpt>
	<trkpt lat="51.93366333" lon="-1.96602"><ele>187.000000</ele><time>2010-08-18T09:42:41Z</time></trkpt>
	<trkpt lat="51.93361833" lon="-1.966038333"><ele>187.000000</ele><time>2010-08-18T09:42:46Z</time></trkpt>
	<trkpt lat="51.93357333" lon="-1.966051667"><ele>187.000000</ele><time>2010-08-18T09:42:51Z</time></trkpt>
	<trkpt lat="51.93352667" lon="-1.966068333"><ele>188.000000</ele><time>2010-08-18T09:42:56Z</time></trkpt>
	<trkpt lat="51.93347833" lon="-1.966083333"><ele>188.000000</ele><time>2010-08-18T09:43:01Z</time></trkpt>
	<trkpt lat="51.93343333" lon="-1.9661"><ele>188.000000</ele><time>2010-08-18T09:43:06Z</time></trkpt>
	<trkpt lat="51.93338833" lon="-1.966113333"><ele>189.000000</ele><time>2010-08-18T09:43:11Z</time></trkpt>
	<trkpt lat="51.93334167" lon="-1.966133333"><ele>189.000000</ele><time>2010-08-18T09:43:16Z</time></trkpt>
	<trkpt lat="51.93329667" lon="-1.966153333"><ele>189.000000</ele><time>2010-08-18T09:43:21Z</time></trkpt>
	<trkpt lat="51.93325167" lon="-1.966173333"><ele>189.000000</ele><time>2010-08-18T09:43:26Z</time></trkpt>
	<trkpt lat="51.93320833" lon="-1.966196667"><ele>190.000000</ele><time>2010-08-18T09:43:31Z</time></trkpt>
	<trkpt lat="51.93316333" lon="-1.966225"><ele>190.000000</ele><time>2010-08-18T09:43:36Z</time></trkpt>
	<trkpt lat="51.93311833" lon="-1.966258333"><ele>190.000000</ele><time>2010-08-18T09:43:41Z</time></trkpt>
	<trkpt lat="51.93307333" lon="-1.966286667"><ele>190.000000</ele><time>2010-08-18T09:43:46Z</time></trkpt>
	<trkpt lat="51.93302833" lon="-1.966315"><ele>191.000000</ele><time>2010-08-18T09:43:51Z</time></trkpt>
	<trkpt lat="51.93298333" lon="-1.966343333"><ele>191.000000</ele><time>2010-08-18T09:43:56Z</time></trkpt>
	<trkpt lat="51.93293667" lon="-1.966363333"><ele>191.000000</ele><time>2010-08-18T09:44:01Z</time></trkpt>
	<trkpt lat="51.93288667" lon="-1.966383333"><ele>191.000000</ele><time>2010-08-18T09:44:06Z</time></trkpt>
	<trkpt lat="51.93283667" lon="-1.9664"><ele>191.000000</ele><time>2010-08-18T09:44:11Z</time></trkpt>
	<trkpt lat="51.93278667" lon="-1.966411667"><ele>192.000000</ele><time>2010-08-18T09:44:16Z</time></trkpt>
	<trkpt lat="51.93274" lon="-1.966428333"><ele>192.000000</ele><time>2010-08-18T09:44:21Z</time></trkpt>
	<trkpt lat="51.93269333" lon="-1.966445"><ele>192.000000</ele><time>2010-08-18T09:44:26Z</time></trkpt>
	<trkpt lat="51.932645" lon="-1.966463333"><ele>193.000000</ele><time>2010-08-18T09:44:31Z</time></trkpt>
	<trkpt lat="51.93259833" lon="-1.966486667"><ele>193.000000</ele><time>2010-08-18T09:44:36Z</time></trkpt>
	<trkpt lat="51.93254833" lon="-1.966513333"><ele>193.000000</ele><time>2010-08-18T09:44:41Z</time></trkpt>
	<trkpt lat="51.93250167" lon="-1.966541667"><ele>193.000000</ele><time>2010-08-18T09:44:46Z</time></trkpt>
	<trkpt lat="51.93245167" lon="-1.966568333"><ele>194.000000</ele><time>2010-08-18T09:44:51Z</time></trkpt>
	<trkpt lat="51.93240667" lon="-1.966593333"><ele>194.000000</ele><time>2010-08-18T09:44:56Z</time></trkpt>
	<trkpt lat="51.93239" lon="-1.966605"><ele>194.000000</ele><time>2010-08-18T09:45:01Z</time></trkpt>
	<trkpt lat="51.93239167" lon="-1.966605"><ele>194.000000</ele><time>2010-08-18T09:45:06Z</time></trkpt>
	<trkpt lat="51.93239" lon="-1.966606667"><ele>194.000000</ele><time>2010-08-18T09:45:11Z</time></trkpt>
	<trkpt lat="51.932395" lon="-1.966608333"><ele>194.000000</ele><time>2010-08-18T09:45:16Z</time></trkpt>
	<trkpt lat="51.93238667" lon="-1.966608333"><ele>195.000000</ele><time>2010-08-18T09:45:21Z</time></trkpt>
	<trkpt lat="51.93238833" lon="-1.966606667"><ele>195.000000</ele><time>2010-08-18T09:45:26Z</time></trkpt>
	<trkpt lat="51.93239167" lon="-1.966606667"><ele>195.000000</ele><time>2010-08-18T09:45:31Z</time></trkpt>
	<trkpt lat="51.932395" lon="-1.96661"><ele>195.000000</ele><time>2010-08-18T09:45:36Z</time></trkpt>
	<trkpt lat="51.93237333" lon="-1.966636667"><ele>195.000000</ele><time>2010-08-18T09:45:41Z</time></trkpt>
	<trkpt lat="51.93233" lon="-1.96667"><ele>195.000000</ele><time>2010-08-18T09:45:46Z</time></trkpt>
	<trkpt lat="51.93228167" lon="-1.966701667"><ele>196.000000</ele><time>2010-08-18T09:45:51Z</time></trkpt>
	<trkpt lat="51.93223333" lon="-1.966735"><ele>196.000000</ele><time>2010-08-18T09:45:56Z</time></trkpt>
	<trkpt lat="51.93219" lon="-1.966766667"><ele>197.000000</ele><time>2010-08-18T09:46:01Z</time></trkpt>
	<trkpt lat="51.93215167" lon="-1.966801667"><ele>197.000000</ele><time>2010-08-18T09:46:06Z</time></trkpt>
	<trkpt lat="51.93212167" lon="-1.966836667"><ele>198.000000</ele><time>2010-08-18T09:46:11Z</time></trkpt>
	<trkpt lat="51.93209167" lon="-1.966881667"><ele>198.000000</ele><time>2010-08-18T09:46:16Z</time></trkpt>
	<trkpt lat="51.932065" lon="-1.96693"><ele>199.000000</ele><time>2010-08-18T09:46:21Z</time></trkpt>
	<trkpt lat="51.93204333" lon="-1.966986667"><ele>199.000000</ele><time>2010-08-18T09:46:26Z</time></trkpt>
	<trkpt lat="51.93202667" lon="-1.967043333"><ele>200.000000</ele><time>2010-08-18T09:46:31Z</time></trkpt>
	<trkpt lat="51.93200833" lon="-1.9671"><ele>201.000000</ele><time>2010-08-18T09:46:36Z</time></trkpt>
	<trkpt lat="51.932" lon="-1.967158333"><ele>201.000000</ele><time>2010-08-18T09:46:41Z</time></trkpt>
	<trkpt lat="51.932" lon="-1.967171667"><ele>202.000000</ele><time>2010-08-18T09:46:46Z</time></trkpt>
	<trkpt lat="51.93199" lon="-1.967221667"><ele>202.000000</ele><time>2010-08-18T09:46:51Z</time></trkpt>
	<trkpt lat="51.93198" lon="-1.967268333"><ele>203.000000</ele><time>2010-08-18T09:46:56Z</time></trkpt>
	<trkpt lat="51.93196667" lon="-1.967321667"><ele>203.000000</ele><time>2010-08-18T09:47:01Z</time></trkpt>
	<trkpt lat="51.93194833" lon="-1.967363333"><ele>204.000000</ele><time>2010-08-18T09:47:06Z</time></trkpt>
	<trkpt lat="51.93193333" lon="-1.967408333"><ele>204.000000</ele><time>2010-08-18T09:47:11Z</time></trkpt>
	<trkpt lat="51.93192167" lon="-1.967453333"><ele>205.000000</ele><time>2010-08-18T09:47:16Z</time></trkpt>
	<trkpt lat="51.93191833" lon="-1.967471667"><ele>205.000000</ele><time>2010-08-18T09:47:21Z</time></trkpt>
	<trkpt lat="51.93191833" lon="-1.967478333"><ele>205.000000</ele><time>2010-08-18T09:47:26Z</time></trkpt>
	<trkpt lat="51.93191833" lon="-1.967483333"><ele>205.000000</ele><time>2010-08-18T09:47:31Z</time></trkpt>
	<trkpt lat="51.93192167" lon="-1.967483333"><ele>205.000000</ele><time>2010-08-18T09:47:36Z</time></trkpt>
	<trkpt lat="51.93191667" lon="-1.967485"><ele>205.000000</ele><time>2010-08-18T09:47:41Z</time></trkpt>
	<trkpt lat="51.93191" lon="-1.967485"><ele>204.000000</ele><time>2010-08-18T09:47:46Z</time></trkpt>
	<trkpt lat="51.93191667" lon="-1.967486667"><ele>204.000000</ele><time>2010-08-18T09:47:51Z</time></trkpt>
	<trkpt lat="51.93191833" lon="-1.967486667"><ele>204.000000</ele><time>2010-08-18T09:47:56Z</time></trkpt>
	<trkpt lat="51.93191167" lon="-1.967503333"><ele>205.000000</ele><time>2010-08-18T09:48:01Z</time></trkpt>
	<trkpt lat="51.93191" lon="-1.967508333"><ele>205.000000</ele><time>2010-08-18T09:48:06Z</time></trkpt>
	<trkpt lat="51.931915" lon="-1.967508333"><ele>205.000000</ele><time>2010-08-18T09:48:11Z</time></trkpt>
	<trkpt lat="51.93191833" lon="-1.96751"><ele>205.000000</ele><time>2010-08-18T09:48:16Z</time></trkpt>
	<trkpt lat="51.93192167" lon="-1.967506667"><ele>204.000000</ele><time>2010-08-18T09:48:21Z</time></trkpt>
	<trkpt lat="51.931925" lon="-1.967505"><ele>205.000000</ele><time>2010-08-18T09:48:26Z</time></trkpt>
	<trkpt lat="51.93193" lon="-1.967505"><ele>205.000000</ele><time>2010-08-18T09:48:31Z</time></trkpt>
	<trkpt lat="51.93190833" lon="-1.967555"><ele>207.000000</ele><time>2010-08-18T09:48:36Z</time></trkpt>
	<trkpt lat="51.93187667" lon="-1.9676"><ele>208.000000</ele><time>2010-08-18T09:48:41Z</time></trkpt>
	<trkpt lat="51.93184" lon="-1.967655"><ele>210.000000</ele><time>2010-08-18T09:48:46Z</time></trkpt>
	<trkpt lat="51.93181833" lon="-1.967683333"><ele>210.000000</ele><time>2010-08-18T09:48:51Z</time></trkpt>
	<trkpt lat="51.93179833" lon="-1.967718333"><ele>211.000000</ele><time>2010-08-18T09:48:56Z</time></trkpt>
	<trkpt lat="51.931765" lon="-1.96777"><ele>211.000000</ele><time>2010-08-18T09:49:01Z</time></trkpt>
	<trkpt lat="51.93173333" lon="-1.96782"><ele>212.000000</ele><time>2010-08-18T09:49:06Z</time></trkpt>
	<trkpt lat="51.931705" lon="-1.967871667"><ele>213.000000</ele><time>2010-08-18T09:49:11Z</time></trkpt>
	<trkpt lat="51.93168333" lon="-1.96791"><ele>213.000000</ele><time>2010-08-18T09:49:16Z</time></trkpt>
	<trkpt lat="51.93166833" lon="-1.967943333"><ele>213.000000</ele><time>2010-08-18T09:49:21Z</time></trkpt>
	<trkpt lat="51.93165167" lon="-1.967965"><ele>213.000000</ele><time>2010-08-18T09:49:26Z</time></trkpt>
	<trkpt lat="51.93162667" lon="-1.968011667"><ele>214.000000</ele><time>2010-08-18T09:49:31Z</time></trkpt>
	<trkpt lat="51.93160667" lon="-1.968061667"><ele>215.000000</ele><time>2010-08-18T09:49:36Z</time></trkpt>
	<trkpt lat="51.93158" lon="-1.968115"><ele>216.000000</ele><time>2010-08-18T09:49:41Z</time></trkpt>
	<trkpt lat="51.93155833" lon="-1.968171667"><ele>217.000000</ele><time>2010-08-18T09:49:46Z</time></trkpt>
	<trkpt lat="51.93153" lon="-1.968226667"><ele>218.000000</ele><time>2010-08-18T09:49:51Z</time></trkpt>
	<trkpt lat="51.93149667" lon="-1.968276667"><ele>220.000000</ele><time>2010-08-18T09:49:56Z</time></trkpt>
	<trkpt lat="51.931455" lon="-1.968316667"><ele>220.000000</ele><time>2010-08-18T09:50:01Z</time></trkpt>
	<trkpt lat="51.931415" lon="-1.968351667"><ele>220.000000</ele><time>2010-08-18T09:50:06Z</time></trkpt>
	<trkpt lat="51.93138333" lon="-1.968383333"><ele>220.000000</ele><time>2010-08-18T09:50:11Z</time></trkpt>
	<trkpt lat="51.93135" lon="-1.968416667"><ele>221.000000</ele><time>2010-08-18T09:50:16Z</time></trkpt>
	<trkpt lat="51.93131" lon="-1.96845"><ele>222.000000</ele><time>2010-08-18T09:50:21Z</time></trkpt>
	<trkpt lat="51.93127333" lon="-1.968476667"><ele>224.000000</ele><time>2010-08-18T09:50:26Z</time></trkpt>
	<trkpt lat="51.93123" lon="-1.968493333"><ele>225.000000</ele><time>2010-08-18T09:50:31Z</time></trkpt>
	<trkpt lat="51.93119167" lon="-1.96851"><ele>226.000000</ele><time>2010-08-18T09:50:36Z</time></trkpt>
	<trkpt lat="51.931165" lon="-1.968546667"><ele>227.000000</ele><time>2010-08-18T09:50:41Z</time></trkpt>
	<trkpt lat="51.93118167" lon="-1.968591667"><ele>229.000000</ele><time>2010-08-18T09:50:46Z</time></trkpt>
	<trkpt lat="51.931215" lon="-1.968633333"><ele>230.000000</ele><time>2010-08-18T09:50:51Z</time></trkpt>
	<trkpt lat="51.931255" lon="-1.968661667"><ele>230.000000</ele><time>2010-08-18T09:50:56Z</time></trkpt>
	<trkpt lat="51.93127333" lon="-1.96868"><ele>230.000000</ele><time>2010-08-18T09:51:01Z</time></trkpt>
	<trkpt lat="51.931305" lon="-1.968705"><ele>229.000000</ele><time>2010-08-18T09:51:06Z</time></trkpt>
	<trkpt lat="51.93134167" lon="-1.968706667"><ele>228.000000</ele><time>2010-08-18T09:51:11Z</time></trkpt>
	<trkpt lat="51.93138" lon="-1.968726667"><ele>228.000000</ele><time>2010-08-18T09:51:16Z</time></trkpt>
	<trkpt lat="51.93142333" lon="-1.968746667"><ele>227.000000</ele><time>2010-08-18T09:51:21Z</time></trkpt>
	<trkpt lat="51.93146333" lon="-1.968778333"><ele>228.000000</ele><time>2010-08-18T09:51:26Z</time></trkpt>
	<trkpt lat="51.9315" lon="-1.968818333"><ele>228.000000</ele><time>2010-08-18T09:51:31Z</time></trkpt>
	<trkpt lat="51.93154833" lon="-1.968848333"><ele>228.000000</ele><time>2010-08-18T09:51:36Z</time></trkpt>
	<trkpt lat="51.93159" lon="-1.968865"><ele>229.000000</ele><time>2010-08-18T09:51:41Z</time></trkpt>
	<trkpt lat="51.93163333" lon="-1.968901667"><ele>229.000000</ele><time>2010-08-18T09:51:46Z</time></trkpt>
	<trkpt lat="51.93168167" lon="-1.968931667"><ele>228.000000</ele><time>2010-08-18T09:51:51Z</time></trkpt>
	<trkpt lat="51.93172833" lon="-1.968968333"><ele>229.000000</ele><time>2010-08-18T09:51:56Z</time></trkpt>
	<trkpt lat="51.93177333" lon="-1.968988333"><ele>230.000000</ele><time>2010-08-18T09:52:01Z</time></trkpt>
	<trkpt lat="51.93182167" lon="-1.969011667"><ele>229.000000</ele><time>2010-08-18T09:52:06Z</time></trkpt>
	<trkpt lat="51.93187" lon="-1.969026667"><ele>230.000000</ele><time>2010-08-18T09:52:11Z</time></trkpt>
	<trkpt lat="51.93191667" lon="-1.969048333"><ele>230.000000</ele><time>2010-08-18T09:52:16Z</time></trkpt>
	<trkpt lat="51.931965" lon="-1.96907"><ele>231.000000</ele><time>2010-08-18T09:52:21Z</time></trkpt>
	<trkpt lat="51.93201" lon="-1.969085"><ele>231.000000</ele><time>2010-08-18T09:52:26Z</time></trkpt>
	<trkpt lat="51.932055" lon="-1.969101667"><ele>230.000000</ele><time>2010-08-18T09:52:31Z</time></trkpt>
	<trkpt lat="51.93210667" lon="-1.969118333"><ele>229.000000</ele><time>2010-08-18T09:52:36Z</time></trkpt>
	<trkpt lat="51.932155" lon="-1.969133333"><ele>229.000000</ele><time>2010-08-18T09:52:41Z</time></trkpt>
	<trkpt lat="51.93217167" lon="-1.969123333"><ele>229.000000</ele><time>2010-08-18T09:52:46Z</time></trkpt>
	<trkpt lat="51.93217833" lon="-1.969131667"><ele>229.000000</ele><time>2010-08-18T09:52:51Z</time></trkpt>
	<trkpt lat="51.93221167" lon="-1.969158333"><ele>229.000000</ele><time>2010-08-18T09:52:56Z</time></trkpt>
	<trkpt lat="51.93225333" lon="-1.969188333"><ele>229.000000</ele><time>2010-08-18T09:53:01Z</time></trkpt>
	<trkpt lat="51.93230167" lon="-1.969208333"><ele>228.000000</ele><time>2010-08-18T09:53:06Z</time></trkpt>
	<trkpt lat="51.93234667" lon="-1.969223333"><ele>227.000000</ele><time>2010-08-18T09:53:11Z</time></trkpt>
	<trkpt lat="51.93240333" lon="-1.96924"><ele>226.000000</ele><time>2010-08-18T09:53:16Z</time></trkpt>
	<trkpt lat="51.932455" lon="-1.969255"><ele>226.000000</ele><time>2010-08-18T09:53:21Z</time></trkpt>
	<trkpt lat="51.93250667" lon="-1.969266667"><ele>226.000000</ele><time>2010-08-18T09:53:26Z</time></trkpt>
	<trkpt lat="51.932555" lon="-1.969278333"><ele>226.000000</ele><time>2010-08-18T09:53:31Z</time></trkpt>
	<trkpt lat="51.93261" lon="-1.969291667"><ele>226.000000</ele><time>2010-08-18T09:53:36Z</time></trkpt>
	<trkpt lat="51.93264" lon="-1.969291667"><ele>226.000000</ele><time>2010-08-18T09:53:41Z</time></trkpt>
	<trkpt lat="51.932635" lon="-1.969313333"><ele>226.000000</ele><time>2010-08-18T09:53:46Z</time></trkpt>
	<trkpt lat="51.932635" lon="-1.969313333"><ele>226.000000</ele><time>2010-08-18T09:53:51Z</time></trkpt>
	<trkpt lat="51.93263667" lon="-1.969308333"><ele>227.000000</ele><time>2010-08-18T09:53:56Z</time></trkpt>
	<trkpt lat="51.93266167" lon="-1.96931"><ele>226.000000</ele><time>2010-08-18T09:54:01Z</time></trkpt>
	<trkpt lat="51.93266833" lon="-1.969325"><ele>226.000000</ele><time>2010-08-18T09:54:06Z</time></trkpt>
	<trkpt lat="51.93266667" lon="-1.969321667"><ele>226.000000</ele><time>2010-08-18T09:54:11Z</time></trkpt>
	<trkpt lat="51.93266667" lon="-1.969321667"><ele>226.000000</ele><time>2010-08-18T09:54:16Z</time></trkpt>
	<trkpt lat="51.93268167" lon="-1.969288333"><ele>226.000000</ele><time>2010-08-18T09:54:21Z</time></trkpt>
	<trkpt lat="51.93273167" lon="-1.969285"><ele>226.000000</ele><time>2010-08-18T09:54:26Z</time></trkpt>
	<trkpt lat="51.932785" lon="-1.969293333"><ele>226.000000</ele><time>2010-08-18T09:54:31Z</time></trkpt>
	<trkpt lat="51.93283667" lon="-1.969291667"><ele>226.000000</ele><time>2010-08-18T09:54:36Z</time></trkpt>
	<trkpt lat="51.93286333" lon="-1.969308333"><ele>226.000000</ele><time>2010-08-18T09:54:41Z</time></trkpt>
	<trkpt lat="51.93287" lon="-1.969318333"><ele>226.000000</ele><time>2010-08-18T09:54:46Z</time></trkpt>
	<trkpt lat="51.93287" lon="-1.969313333"><ele>226.000000</ele><time>2010-08-18T09:54:51Z</time></trkpt>
	<trkpt lat="51.93290833" lon="-1.969315"><ele>226.000000</ele><time>2010-08-18T09:54:56Z</time></trkpt>
	<trkpt lat="51.93295167" lon="-1.969323333"><ele>226.000000</ele><time>2010-08-18T09:55:01Z</time></trkpt>
	<trkpt lat="51.93300167" lon="-1.96933"><ele>225.000000</ele><time>2010-08-18T09:55:06Z</time></trkpt>
	<trkpt lat="51.93305" lon="-1.969341667"><ele>225.000000</ele><time>2010-08-18T09:55:11Z</time></trkpt>
	<trkpt lat="51.93309667" lon="-1.96936"><ele>225.000000</ele><time>2010-08-18T09:55:16Z</time></trkpt>
	<trkpt lat="51.93314667" lon="-1.969368333"><ele>226.000000</ele><time>2010-08-18T09:55:21Z</time></trkpt>
	<trkpt lat="51.93319833" lon="-1.969383333"><ele>227.000000</ele><time>2010-08-18T09:55:26Z</time></trkpt>
	<trkpt lat="51.93324833" lon="-1.969391667"><ele>227.000000</ele><time>2010-08-18T09:55:31Z</time></trkpt>
	<trkpt lat="51.93329" lon="-1.96939"><ele>227.000000</ele><time>2010-08-18T09:55:36Z</time></trkpt>
	<trkpt lat="51.933325" lon="-1.969405"><ele>228.000000</ele><time>2010-08-18T09:55:41Z</time></trkpt>
	<trkpt lat="51.93337167" lon="-1.969401667"><ele>227.000000</ele><time>2010-08-18T09:55:46Z</time></trkpt>
	<trkpt lat="51.933425" lon="-1.969406667"><ele>228.000000</ele><time>2010-08-18T09:55:51Z</time></trkpt>
	<trkpt lat="51.93347" lon="-1.969405"><ele>228.000000</ele><time>2010-08-18T09:55:56Z</time></trkpt>
	<trkpt lat="51.93352333" lon="-1.969426667"><ele>230.000000</ele><time>2010-08-18T09:56:01Z</time></trkpt>
	<trkpt lat="51.93356167" lon="-1.969453333"><ele>230.000000</ele><time>2010-08-18T09:56:06Z</time></trkpt>
	<trkpt lat="51.93360667" lon="-1.969483333"><ele>233.000000</ele><time>2010-08-18T09:56:11Z</time></trkpt>
	<trkpt lat="51.93364667" lon="-1.969505"><ele>235.000000</ele><time>2010-08-18T09:56:16Z</time></trkpt>
	<trkpt lat="51.933685" lon="-1.969536667"><ele>236.000000</ele><time>2010-08-18T09:56:21Z</time></trkpt>
	<trkpt lat="51.93373" lon="-1.96957"><ele>236.000000</ele><time>2010-08-18T09:56:26Z</time></trkpt>
	<trkpt lat="51.93376667" lon="-1.96962"><ele>237.000000</ele><time>2010-08-18T09:56:31Z</time></trkpt>
	<trkpt lat="51.93377833" lon="-1.969655"><ele>238.000000</ele><time>2010-08-18T09:56:36Z</time></trkpt>
	<trkpt lat="51.93382167" lon="-1.969723333"><ele>237.000000</ele><time>2010-08-18T09:56:41Z</time></trkpt>
	<trkpt lat="51.933875" lon="-1.969811667"><ele>235.000000</ele><time>2010-08-18T09:56:46Z</time></trkpt>
	<trkpt lat="51.93394167" lon="-1.969901667"><ele>235.000000</ele><time>2010-08-18T09:56:51Z</time></trkpt>
	<trkpt lat="51.93399833" lon="-1.97"><ele>234.000000</ele><time>2010-08-18T09:56:56Z</time></trkpt>
	<trkpt lat="51.93402333" lon="-1.970073333"><ele>235.000000</ele><time>2010-08-18T09:57:01Z</time></trkpt>
	<trkpt lat="51.934055" lon="-1.97015"><ele>235.000000</ele><time>2010-08-18T09:57:06Z</time></trkpt>
	<trkpt lat="51.934085" lon="-1.970231667"><ele>236.000000</ele><time>2010-08-18T09:57:11Z</time></trkpt>
	<trkpt lat="51.93410333" lon="-1.970291667"><ele>238.000000</ele><time>2010-08-18T09:57:16Z</time></trkpt>
	<trkpt lat="51.93413833" lon="-1.97039"><ele>236.000000</ele><time>2010-08-18T09:57:21Z</time></trkpt>
	<trkpt lat="51.93415167" lon="-1.970455"><ele>238.000000</ele><time>2010-08-18T09:57:26Z</time></trkpt>
	<trkpt lat="51.934155" lon="-1.97055"><ele>238.000000</ele><time>2010-08-18T09:57:31Z</time></trkpt>
	<trkpt lat="51.93416667" lon="-1.970636667"><ele>238.000000</ele><time>2010-08-18T09:57:36Z</time></trkpt>
	<trkpt lat="51.93418333" lon="-1.970696667"><ele>241.000000</ele><time>2010-08-18T09:57:41Z</time></trkpt>
	<trkpt lat="51.934195" lon="-1.97076"><ele>242.000000</ele><time>2010-08-18T09:57:46Z</time></trkpt>
	<trkpt lat="51.93419333" lon="-1.97084"><ele>241.000000</ele><time>2010-08-18T09:57:51Z</time></trkpt>
	<trkpt lat="51.93420333" lon="-1.97093"><ele>239.000000</ele><time>2010-08-18T09:57:56Z</time></trkpt>
	<trkpt lat="51.93421833" lon="-1.97102"><ele>238.000000</ele><time>2010-08-18T09:58:01Z</time></trkpt>
	<trkpt lat="51.93422" lon="-1.971105"><ele>236.000000</ele><time>2010-08-18T09:58:06Z</time></trkpt>
	<trkpt lat="51.93423833" lon="-1.971178333"><ele>235.000000</ele><time>2010-08-18T09:58:11Z</time></trkpt>
	<trkpt lat="51.934275" lon="-1.971276667"><ele>233.000000</ele><time>2010-08-18T09:58:16Z</time></trkpt>
	<trkpt lat="51.934295" lon="-1.971341667"><ele>234.000000</ele><time>2010-08-18T09:58:21Z</time></trkpt>
	<trkpt lat="51.93432167" lon="-1.971401667"><ele>236.000000</ele><time>2010-08-18T09:58:26Z</time></trkpt>
	<trkpt lat="51.93433833" lon="-1.971445"><ele>237.000000</ele><time>2010-08-18T09:58:31Z</time></trkpt>
	<trkpt lat="51.93436" lon="-1.971481667"><ele>237.000000</ele><time>2010-08-18T09:58:36Z</time></trkpt>
	<trkpt lat="51.934385" lon="-1.971533333"><ele>234.000000</ele><time>2010-08-18T09:58:41Z</time></trkpt>
	<trkpt lat="51.934425" lon="-1.971581667"><ele>234.000000</ele><time>2010-08-18T09:58:46Z</time></trkpt>
	<trkpt lat="51.934465" lon="-1.971641667"><ele>233.000000</ele><time>2010-08-18T09:58:51Z</time></trkpt>
	<trkpt lat="51.9345" lon="-1.971703333"><ele>232.000000</ele><time>2010-08-18T09:58:56Z</time></trkpt>
	<trkpt lat="51.934525" lon="-1.971766667"><ele>229.000000</ele><time>2010-08-18T09:59:01Z</time></trkpt>
	<trkpt lat="51.934535" lon="-1.971798333"><ele>226.000000</ele><time>2010-08-18T09:59:06Z</time></trkpt>
	<trkpt lat="51.93457" lon="-1.971846667"><ele>224.000000</ele><time>2010-08-18T09:59:11Z</time></trkpt>
	<trkpt lat="51.93460333" lon="-1.971873333"><ele>223.000000</ele><time>2010-08-18T09:59:16Z</time></trkpt>
	<trkpt lat="51.93462833" lon="-1.971915"><ele>223.000000</ele><time>2010-08-18T09:59:21Z</time></trkpt>
	<trkpt lat="51.93461667" lon="-1.971931667"><ele>222.000000</ele><time>2010-08-18T09:59:26Z</time></trkpt>
	<trkpt lat="51.93461833" lon="-1.971926667"><ele>221.000000</ele><time>2010-08-18T09:59:31Z</time></trkpt>
	<trkpt lat="51.93461333" lon="-1.97193"><ele>220.000000</ele><time>2010-08-18T09:59:36Z</time></trkpt>
	<trkpt lat="51.93458667" lon="-1.971938333"><ele>219.000000</ele><time>2010-08-18T09:59:41Z</time></trkpt>
	<trkpt lat="51.93459333" lon="-1.971945"><ele>218.000000</ele><time>2010-08-18T09:59:46Z</time></trkpt>
	<trkpt lat="51.934595" lon="-1.971946667"><ele>220.000000</ele><time>2010-08-18T09:59:51Z</time></trkpt>
	<trkpt lat="51.934595" lon="-1.971943333"><ele>220.000000</ele><time>2010-08-18T09:59:56Z</time></trkpt>
	<trkpt lat="51.934595" lon="-1.971955"><ele>220.000000</ele><time>2010-08-18T10:00:01Z</time></trkpt>
	<trkpt lat="51.93458667" lon="-1.971958333"><ele>218.000000</ele><time>2010-08-18T10:00:06Z</time></trkpt>
	<trkpt lat="51.93458333" lon="-1.971991667"><ele>214.000000</ele><time>2010-08-18T10:00:11Z</time></trkpt>
	<trkpt lat="51.93458333" lon="-1.971961667"><ele>217.000000</ele><time>2010-08-18T10:00:16Z</time></trkpt>
	<trkpt lat="51.934565" lon="-1.971926667"><ele>219.000000</ele><time>2010-08-18T10:00:21Z</time></trkpt>
	<trkpt lat="51.93455667" lon="-1.971916667"><ele>220.000000</ele><time>2010-08-18T10:00:26Z</time></trkpt>
	<trkpt lat="51.93454333" lon="-1.971933333"><ele>222.000000</ele><time>2010-08-18T10:00:31Z</time></trkpt>
	<trkpt lat="51.93452667" lon="-1.971936667"><ele>223.000000</ele><time>2010-08-18T10:00:36Z</time></trkpt>
	<trkpt lat="51.93452" lon="-1.971956667"><ele>223.000000</ele><time>2010-08-18T10:00:41Z</time></trkpt>
	<trkpt lat="51.93452333" lon="-1.971975"><ele>221.000000</ele><time>2010-08-18T10:00:46Z</time></trkpt>
	<trkpt lat="51.93452833" lon="-1.971991667"><ele>219.000000</ele><time>2010-08-18T10:00:51Z</time></trkpt>
	<trkpt lat="51.93453167" lon="-1.972001667"><ele>218.000000</ele><time>2010-08-18T10:00:56Z</time></trkpt>
	<trkpt lat="51.934535" lon="-1.972016667"><ele>217.000000</ele><time>2010-08-18T10:01:01Z</time></trkpt>
	<trkpt lat="51.934535" lon="-1.972016667"><ele>216.000000</ele><time>2010-08-18T10:01:06Z</time></trkpt>
	<trkpt lat="51.93454333" lon="-1.972028333"><ele>215.000000</ele><time>2010-08-18T10:01:11Z</time></trkpt>
	<trkpt lat="51.93454167" lon="-1.97202"><ele>215.000000</ele><time>2010-08-18T10:01:16Z</time></trkpt>
	<trkpt lat="51.93454333" lon="-1.97202"><ele>214.000000</ele><time>2010-08-18T10:01:21Z</time></trkpt>
	<trkpt lat="51.93454333" lon="-1.97201"><ele>214.000000</ele><time>2010-08-18T10:01:26Z</time></trkpt>
	<trkpt lat="51.93454667" lon="-1.972016667"><ele>214.000000</ele><time>2010-08-18T10:01:31Z</time></trkpt>
	<trkpt lat="51.93455" lon="-1.97202"><ele>213.000000</ele><time>2010-08-18T10:01:36Z</time></trkpt>
	<trkpt lat="51.93454667" lon="-1.971976667"><ele>216.000000</ele><time>2010-08-18T10:01:41Z</time></trkpt>
	<trkpt lat="51.934545" lon="-1.971953333"><ele>218.000000</ele><time>2010-08-18T10:01:46Z</time></trkpt>
	<trkpt lat="51.93454333" lon="-1.971958333"><ele>218.000000</ele><time>2010-08-18T10:01:51Z</time></trkpt>
	<trkpt lat="51.934535" lon="-1.971951667"><ele>218.000000</ele><time>2010-08-18T10:01:56Z</time></trkpt>
	<trkpt lat="51.93452" lon="-1.971893333"><ele>223.000000</ele><time>2010-08-18T10:02:01Z</time></trkpt>
	<trkpt lat="51.93451333" lon="-1.971855"><ele>226.000000</ele><time>2010-08-18T10:02:06Z</time></trkpt>
	<trkpt lat="51.93451333" lon="-1.971828333"><ele>228.000000</ele><time>2010-08-18T10:02:11Z</time></trkpt>
	<trkpt lat="51.93451333" lon="-1.971806667"><ele>229.000000</ele><time>2010-08-18T10:02:16Z</time></trkpt>
	<trkpt lat="51.93451667" lon="-1.971788333"><ele>230.000000</ele><time>2010-08-18T10:02:21Z</time></trkpt>
	<trkpt lat="51.934515" lon="-1.97177"><ele>231.000000</ele><time>2010-08-18T10:02:26Z</time></trkpt>
	<trkpt lat="51.93451833" lon="-1.971755"><ele>231.000000</ele><time>2010-08-18T10:02:31Z</time></trkpt>
	<trkpt lat="51.93452" lon="-1.971743333"><ele>232.000000</ele><time>2010-08-18T10:02:36Z</time></trkpt>
	<trkpt lat="51.93451333" lon="-1.97176"><ele>233.000000</ele><time>2010-08-18T10:02:41Z</time></trkpt>
	<trkpt lat="51.934505" lon="-1.97178"><ele>235.000000</ele><time>2010-08-18T10:02:46Z</time></trkpt>
	<trkpt lat="51.93450167" lon="-1.971801667"><ele>236.000000</ele><time>2010-08-18T10:02:51Z</time></trkpt>
	<trkpt lat="51.9345" lon="-1.971808333"><ele>237.000000</ele><time>2010-08-18T10:02:56Z</time></trkpt>
	<trkpt lat="51.934505" lon="-1.971801667"><ele>237.000000</ele><time>2010-08-18T10:03:01Z</time></trkpt>
	<trkpt lat="51.93451" lon="-1.971793333"><ele>236.000000</ele><time>2010-08-18T10:03:06Z</time></trkpt>
	<trkpt lat="51.93453" lon="-1.971825"><ele>232.000000</ele><time>2010-08-18T10:03:11Z</time></trkpt>
	<trkpt lat="51.93455" lon="-1.971838333"><ele>228.000000</ele><time>2010-08-18T10:03:16Z</time></trkpt>
	<trkpt lat="51.93455667" lon="-1.971863333"><ele>226.000000</ele><time>2010-08-18T10:03:21Z</time></trkpt>
	<trkpt lat="51.934555" lon="-1.971873333"><ele>224.000000</ele><time>2010-08-18T10:03:26Z</time></trkpt>
	<trkpt lat="51.93456" lon="-1.971886667"><ele>224.000000</ele><time>2010-08-18T10:03:31Z</time></trkpt>
	<trkpt lat="51.934565" lon="-1.971871667"><ele>223.000000</ele><time>2010-08-18T10:03:36Z</time></trkpt>
	<trkpt lat="51.93455667" lon="-1.971891667"><ele>224.000000</ele><time>2010-08-18T10:03:41Z</time></trkpt>
	<trkpt lat="51.934555" lon="-1.971898333"><ele>225.000000</ele><time>2010-08-18T10:03:46Z</time></trkpt>
	<trkpt lat="51.93455667" lon="-1.971895"><ele>224.000000</ele><time>2010-08-18T10:03:51Z</time></trkpt>
	<trkpt lat="51.93456333" lon="-1.971885"><ele>224.000000</ele><time>2010-08-18T10:03:56Z</time></trkpt>
	<trkpt lat="51.93457667" lon="-1.97188"><ele>224.000000</ele><time>2010-08-18T10:04:01Z</time></trkpt>
	<trkpt lat="51.934595" lon="-1.971875"><ele>224.000000</ele><time>2010-08-18T10:04:06Z</time></trkpt>
	<trkpt lat="51.934625" lon="-1.97186"><ele>224.000000</ele><time>2010-08-18T10:04:11Z</time></trkpt>
	<trkpt lat="51.93464667" lon="-1.971851667"><ele>225.000000</ele><time>2010-08-18T10:04:16Z</time></trkpt>
	<trkpt lat="51.934655" lon="-1.97185"><ele>226.000000</ele><time>2010-08-18T10:04:21Z</time></trkpt>
	<trkpt lat="51.93466167" lon="-1.971848333"><ele>227.000000</ele><time>2010-08-18T10:04:26Z</time></trkpt>
	<trkpt lat="51.93466333" lon="-1.971848333"><ele>228.000000</ele><time>2010-08-18T10:04:31Z</time></trkpt>
	<trkpt lat="51.934645" lon="-1.971841667"><ele>227.000000</ele><time>2010-08-18T10:04:36Z</time></trkpt>
	<trkpt lat="51.93461333" lon="-1.971851667"><ele>225.000000</ele><time>2010-08-18T10:04:41Z</time></trkpt>
	<trkpt lat="51.93459" lon="-1.971841667"><ele>224.000000</ele><time>2010-08-18T10:04:46Z</time></trkpt>
	<trkpt lat="51.93459333" lon="-1.971831667"><ele>224.000000</ele><time>2010-08-18T10:04:51Z</time></trkpt>
	<trkpt lat="51.93458833" lon="-1.971861667"><ele>221.000000</ele><time>2010-08-18T10:04:56Z</time></trkpt>
	<trkpt lat="51.934595" lon="-1.971871667"><ele>220.000000</ele><time>2010-08-18T10:05:01Z</time></trkpt>
	<trkpt lat="51.93460667" lon="-1.971873333"><ele>219.000000</ele><time>2010-08-18T10:05:06Z</time></trkpt>
	<trkpt lat="51.93461" lon="-1.971866667"><ele>220.000000</ele><time>2010-08-18T10:05:11Z</time></trkpt>
	<trkpt lat="51.93461667" lon="-1.971866667"><ele>220.000000</ele><time>2010-08-18T10:05:16Z</time></trkpt>
	<trkpt lat="51.93461" lon="-1.971855"><ele>221.000000</ele><time>2010-08-18T10:05:21Z</time></trkpt>
	<trkpt lat="51.93459167" lon="-1.97181"><ele>224.000000</ele><time>2010-08-18T10:05:26Z</time></trkpt>
	<trkpt lat="51.93458333" lon="-1.971816667"><ele>223.000000</ele><time>2010-08-18T10:05:31Z</time></trkpt>
	<trkpt lat="51.934585" lon="-1.971828333"><ele>224.000000</ele><time>2010-08-18T10:05:36Z</time></trkpt>
	<trkpt lat="51.93458" lon="-1.971816667"><ele>225.000000</ele><time>2010-08-18T10:05:41Z</time></trkpt>
	<trkpt lat="51.93458" lon="-1.971816667"><ele>226.000000</ele><time>2010-08-18T10:05:46Z</time></trkpt>
	<trkpt lat="51.93458667" lon="-1.971831667"><ele>225.000000</ele><time>2010-08-18T10:05:51Z</time></trkpt>
	<trkpt lat="51.93459" lon="-1.971838333"><ele>224.000000</ele><time>2010-08-18T10:05:56Z</time></trkpt>
	<trkpt lat="51.93458667" lon="-1.971836667"><ele>224.000000</ele><time>2010-08-18T10:06:01Z</time></trkpt>
	<trkpt lat="51.93459" lon="-1.971858333"><ele>219.000000</ele><time>2010-08-18T10:06:06Z</time></trkpt>
	<trkpt lat="51.93458667" lon="-1.97189"><ele>218.000000</ele><time>2010-08-18T10:06:11Z</time></trkpt>
	<trkpt lat="51.93457167" lon="-1.971928333"><ele>217.000000</ele><time>2010-08-18T10:06:16Z</time></trkpt>
	<trkpt lat="51.93454167" lon="-1.971955"><ele>219.000000</ele><time>2010-08-18T10:06:21Z</time></trkpt>
	<trkpt lat="51.93454333" lon="-1.971973333"><ele>217.000000</ele><time>2010-08-18T10:06:26Z</time></trkpt>
	<trkpt lat="51.93454333" lon="-1.971961667"><ele>213.000000</ele><time>2010-08-18T10:06:31Z</time></trkpt>
	<trkpt lat="51.93453833" lon="-1.971928333"><ele>216.000000</ele><time>2010-08-18T10:06:36Z</time></trkpt>
	<trkpt lat="51.93452833" lon="-1.971871667"><ele>222.000000</ele><time>2010-08-18T10:06:41Z</time></trkpt>
	<trkpt lat="51.93452833" lon="-1.971846667"><ele>225.000000</ele><time>2010-08-18T10:06:46Z</time></trkpt>
	<trkpt lat="51.93452667" lon="-1.971831667"><ele>227.000000</ele><time>2010-08-18T10:06:51Z</time></trkpt>
	<trkpt lat="51.934525" lon="-1.971838333"><ele>227.000000</ele><time>2010-08-18T10:06:56Z</time></trkpt>
	<trkpt lat="51.93452667" lon="-1.971838333"><ele>227.000000</ele><time>2010-08-18T10:07:01Z</time></trkpt>
	<trkpt lat="51.934525" lon="-1.971836667"><ele>229.000000</ele><time>2010-08-18T10:07:06Z</time></trkpt>
	<trkpt lat="51.93452333" lon="-1.971838333"><ele>231.000000</ele><time>2010-08-18T10:07:11Z</time></trkpt>
	<trkpt lat="51.93452" lon="-1.971843333"><ele>231.000000</ele><time>2010-08-18T10:07:16Z</time></trkpt>
	<trkpt lat="51.934515" lon="-1.971855"><ele>230.000000</ele><time>2010-08-18T10:07:21Z</time></trkpt>
	<trkpt lat="51.93451167" lon="-1.971856667"><ele>230.000000</ele><time>2010-08-18T10:07:26Z</time></trkpt>
	<trkpt lat="51.93451" lon="-1.971855"><ele>231.000000</ele><time>2010-08-18T10:07:31Z</time></trkpt>
	<trkpt lat="51.934505" lon="-1.971856667"><ele>233.000000</ele><time>2010-08-18T10:07:36Z</time></trkpt>
	<trkpt lat="51.934505" lon="-1.971858333"><ele>233.000000</ele><time>2010-08-18T10:07:41Z</time></trkpt>
	<trkpt lat="51.93450167" lon="-1.971856667"><ele>234.000000</ele><time>2010-08-18T10:07:46Z</time></trkpt>
	<trkpt lat="51.93451333" lon="-1.971885"><ele>232.000000</ele><time>2010-08-18T10:07:51Z</time></trkpt>
	<trkpt lat="51.934525" lon="-1.971906667"><ele>231.000000</ele><time>2010-08-18T10:07:56Z</time></trkpt>
	<trkpt lat="51.934535" lon="-1.971915"><ele>231.000000</ele><time>2010-08-18T10:08:01Z</time></trkpt>
	<trkpt lat="51.93454167" lon="-1.971921667"><ele>230.000000</ele><time>2010-08-18T10:08:06Z</time></trkpt>
	<trkpt lat="51.93453333" lon="-1.971916667"><ele>230.000000</ele><time>2010-08-18T10:08:11Z</time></trkpt>
	<trkpt lat="51.93453" lon="-1.971918333"><ele>229.000000</ele><time>2010-08-18T10:08:16Z</time></trkpt>
	<trkpt lat="51.93452667" lon="-1.971918333"><ele>228.000000</ele><time>2010-08-18T10:08:21Z</time></trkpt>
	<trkpt lat="51.93453" lon="-1.971906667"><ele>227.000000</ele><time>2010-08-18T10:08:26Z</time></trkpt>
	<trkpt lat="51.934535" lon="-1.971881667"><ele>224.000000</ele><time>2010-08-18T10:08:31Z</time></trkpt>
	<trkpt lat="51.93454333" lon="-1.971856667"><ele>220.000000</ele><time>2010-08-18T10:08:36Z</time></trkpt>
	<trkpt lat="51.93454333" lon="-1.97185"><ele>219.000000</ele><time>2010-08-18T10:08:41Z</time></trkpt>
	<trkpt lat="51.934525" lon="-1.971886667"><ele>224.000000</ele><time>2010-08-18T10:08:46Z</time></trkpt>
	<trkpt lat="51.93451" lon="-1.971916667"><ele>227.000000</ele><time>2010-08-18T10:08:51Z</time></trkpt>
	<trkpt lat="51.934505" lon="-1.971926667"><ele>229.000000</ele><time>2010-08-18T10:08:56Z</time></trkpt>
	<trkpt lat="51.934505" lon="-1.971923333"><ele>230.000000</ele><time>2010-08-18T10:09:01Z</time></trkpt>
	<trkpt lat="51.93451333" lon="-1.97191"><ele>229.000000</ele><time>2010-08-18T10:09:06Z</time></trkpt>
	<trkpt lat="51.93452" lon="-1.9719"><ele>228.000000</ele><time>2010-08-18T10:09:11Z</time></trkpt>
	<trkpt lat="51.934525" lon="-1.971891667"><ele>227.000000</ele><time>2010-08-18T10:09:16Z</time></trkpt>
	<trkpt lat="51.93452833" lon="-1.971885"><ele>225.000000</ele><time>2010-08-18T10:09:21Z</time></trkpt>
	<trkpt lat="51.93453333" lon="-1.971876667"><ele>223.000000</ele><time>2010-08-18T10:09:26Z</time></trkpt>
	<trkpt lat="51.934535" lon="-1.971866667"><ele>221.000000</ele><time>2010-08-18T10:09:31Z</time></trkpt>
	<trkpt lat="51.93454" lon="-1.971861667"><ele>220.000000</ele><time>2010-08-18T10:09:36Z</time></trkpt>
	<trkpt lat="51.93454167" lon="-1.971856667"><ele>219.000000</ele><time>2010-08-18T10:09:41Z</time></trkpt>
	<trkpt lat="51.93454333" lon="-1.97185"><ele>218.000000</ele><time>2010-08-18T10:09:46Z</time></trkpt>
	<trkpt lat="51.93454833" lon="-1.971848333"><ele>217.000000</ele><time>2010-08-18T10:09:51Z</time></trkpt>
	<trkpt lat="51.93455" lon="-1.971848333"><ele>216.000000</ele><time>2010-08-18T10:09:56Z</time></trkpt>
	<trkpt lat="51.93455" lon="-1.971851667"><ele>216.000000</ele><time>2010-08-18T10:10:01Z</time></trkpt>
	<trkpt lat="51.934555" lon="-1.971858333"><ele>215.000000</ele><time>2010-08-18T10:10:06Z</time></trkpt>
	<trkpt lat="51.93455833" lon="-1.971865"><ele>214.000000</ele><time>2010-08-18T10:10:11Z</time></trkpt>
	<trkpt lat="51.934565" lon="-1.971871667"><ele>214.000000</ele><time>2010-08-18T10:10:16Z</time></trkpt>
	<trkpt lat="51.93456833" lon="-1.971875"><ele>214.000000</ele><time>2010-08-18T10:10:21Z</time></trkpt>
	<trkpt lat="51.93457667" lon="-1.971878333"><ele>213.000000</ele><time>2010-08-18T10:10:26Z</time></trkpt>
	<trkpt lat="51.93458667" lon="-1.971885"><ele>208.000000</ele><time>2010-08-18T10:10:31Z</time></trkpt>
	<trkpt lat="51.93455833" lon="-1.971831667"><ele>208.000000</ele><time>2010-08-18T10:10:36Z</time></trkpt>
	<trkpt lat="51.934545" lon="-1.97181"><ele>207.000000</ele><time>2010-08-18T10:10:41Z</time></trkpt>
	<trkpt lat="51.93457167" lon="-1.971823333"><ele>207.000000</ele><time>2010-08-18T10:10:46Z</time></trkpt>
	<trkpt lat="51.93458" lon="-1.971828333"><ele>208.000000</ele><time>2010-08-18T10:10:51Z</time></trkpt>
	<trkpt lat="51.93459167" lon="-1.97185"><ele>209.000000</ele><time>2010-08-18T10:10:56Z</time></trkpt>
	<trkpt lat="51.93458667" lon="-1.971885"><ele>211.000000</ele><time>2010-08-18T10:11:01Z</time></trkpt>
	<trkpt lat="51.93459833" lon="-1.971898333"><ele>209.000000</ele><time>2010-08-18T10:11:06Z</time></trkpt>
	<trkpt lat="51.93457" lon="-1.971848333"><ele>214.000000</ele><time>2010-08-18T10:11:11Z</time></trkpt>
	<trkpt lat="51.93451833" lon="-1.971825"><ele>220.000000</ele><time>2010-08-18T10:11:16Z</time></trkpt>
	<trkpt lat="51.934515" lon="-1.971851667"><ele>223.000000</ele><time>2010-08-18T10:11:21Z</time></trkpt>
	<trkpt lat="51.93452667" lon="-1.971855"><ele>225.000000</ele><time>2010-08-18T10:11:26Z</time></trkpt>
	<trkpt lat="51.934535" lon="-1.971843333"><ele>222.000000</ele><time>2010-08-18T10:11:31Z</time></trkpt>
	<trkpt lat="51.93453333" lon="-1.971841667"><ele>224.000000</ele><time>2010-08-18T10:11:36Z</time></trkpt>
	<trkpt lat="51.93453" lon="-1.971833333"><ele>226.000000</ele><time>2010-08-18T10:11:41Z</time></trkpt>
	<trkpt lat="51.934525" lon="-1.971836667"><ele>231.000000</ele><time>2010-08-18T10:11:46Z</time></trkpt>
	<trkpt lat="51.93452" lon="-1.971813333"><ele>233.000000</ele><time>2010-08-18T10:11:51Z</time></trkpt>
	<trkpt lat="51.93451667" lon="-1.97181"><ele>234.000000</ele><time>2010-08-18T10:11:56Z</time></trkpt>
	<trkpt lat="51.93453833" lon="-1.97188"><ele>240.000000</ele><time>2010-08-18T10:12:01Z</time></trkpt>
	<trkpt lat="51.93454667" lon="-1.971905"><ele>243.000000</ele><time>2010-08-18T10:12:06Z</time></trkpt>
	<trkpt lat="51.93455" lon="-1.971886667"><ele>244.000000</ele><time>2010-08-18T10:12:11Z</time></trkpt>
	<trkpt lat="51.93455667" lon="-1.971903333"><ele>244.000000</ele><time>2010-08-18T10:12:16Z</time></trkpt>
	<trkpt lat="51.93457167" lon="-1.971956667"><ele>242.000000</ele><time>2010-08-18T10:12:21Z</time></trkpt>
	<trkpt lat="51.93459833" lon="-1.972023333"><ele>239.000000</ele><time>2010-08-18T10:12:26Z</time></trkpt>
	<trkpt lat="51.934655" lon="-1.972056667"><ele>238.000000</ele><time>2010-08-18T10:12:31Z</time></trkpt>
	<trkpt lat="51.93477" lon="-1.972095"><ele>242.000000</ele><time>2010-08-18T10:12:36Z</time></trkpt>
	<trkpt lat="51.934845" lon="-1.972141667"><ele>242.000000</ele><time>2010-08-18T10:12:41Z</time></trkpt>
	<trkpt lat="51.93480833" lon="-1.972115"><ele>240.000000</ele><time>2010-08-18T10:12:46Z</time></trkpt>
	<trkpt lat="51.934775" lon="-1.9721"><ele>240.000000</ele><time>2010-08-18T10:12:51Z</time></trkpt>
	<trkpt lat="51.93474833" lon="-1.972126667"><ele>237.000000</ele><time>2010-08-18T10:12:56Z</time></trkpt>
	<trkpt lat="51.934785" lon="-1.972123333"><ele>240.000000</ele><time>2010-08-18T10:13:01Z</time></trkpt>
	<trkpt lat="51.93479" lon="-1.972115"><ele>242.000000</ele><time>2010-08-18T10:13:06Z</time></trkpt>
	<trkpt lat="51.93474" lon="-1.972078333"><ele>241.000000</ele><time>2010-08-18T10:13:11Z</time></trkpt>
	<trkpt lat="51.93474" lon="-1.97212"><ele>239.000000</ele><time>2010-08-18T10:13:16Z</time></trkpt>
	<trkpt lat="51.93467" lon="-1.97218"><ele>232.000000</ele><time>2010-08-18T10:13:21Z</time></trkpt>
	<trkpt lat="51.93460333" lon="-1.972241667"><ele>230.000000</ele><time>2010-08-18T10:13:26Z</time></trkpt>
	<trkpt lat="51.93456833" lon="-1.972283333"><ele>231.000000</ele><time>2010-08-18T10:13:31Z</time></trkpt>
	<trkpt lat="51.93451167" lon="-1.972361667"><ele>231.000000</ele><time>2010-08-18T10:13:36Z</time></trkpt>
	<trkpt lat="51.93446" lon="-1.972366667"><ele>233.000000</ele><time>2010-08-18T10:13:41Z</time></trkpt>
	<trkpt lat="51.934505" lon="-1.972445"><ele>235.000000</ele><time>2010-08-18T10:13:46Z</time></trkpt>
	<trkpt lat="51.93451333" lon="-1.972495"><ele>234.000000</ele><time>2010-08-18T10:13:51Z</time></trkpt>
	<trkpt lat="51.934455" lon="-1.972521667"><ele>232.000000</ele><time>2010-08-18T10:13:56Z</time></trkpt>
	<trkpt lat="51.93440833" lon="-1.972566667"><ele>233.000000</ele><time>2010-08-18T10:14:01Z</time></trkpt>
	<trkpt lat="51.93436167" lon="-1.972608333"><ele>236.000000</ele><time>2010-08-18T10:14:06Z</time></trkpt>
	<trkpt lat="51.93432333" lon="-1.972643333"><ele>237.000000</ele><time>2010-08-18T10:14:11Z</time></trkpt>
	<trkpt lat="51.93429167" lon="-1.97269"><ele>240.000000</ele><time>2010-08-18T10:14:16Z</time></trkpt>
	<trkpt lat="51.934265" lon="-1.972723333"><ele>240.000000</ele><time>2010-08-18T10:14:21Z</time></trkpt>
	<trkpt lat="51.93421833" lon="-1.97279"><ele>243.000000</ele><time>2010-08-18T10:14:26Z</time></trkpt>
	<trkpt lat="51.93415833" lon="-1.972826667"><ele>242.000000</ele><time>2010-08-18T10:14:31Z</time></trkpt>
	<trkpt lat="51.93413" lon="-1.972863333"><ele>244.000000</ele><time>2010-08-18T10:14:36Z</time></trkpt>
	<trkpt lat="51.93407" lon="-1.972883333"><ele>243.000000</ele><time>2010-08-18T10:14:41Z</time></trkpt>
	<trkpt lat="51.934005" lon="-1.972896667"><ele>243.000000</ele><time>2010-08-18T10:14:46Z</time></trkpt>
	<trkpt lat="51.93394833" lon="-1.972923333"><ele>243.000000</ele><time>2010-08-18T10:14:51Z</time></trkpt>
	<trkpt lat="51.93391167" lon="-1.97293"><ele>242.000000</ele><time>2010-08-18T10:14:56Z</time></trkpt>
	<trkpt lat="51.93384333" lon="-1.972906667"><ele>243.000000</ele><time>2010-08-18T10:15:01Z</time></trkpt>
	<trkpt lat="51.933805" lon="-1.972896667"><ele>245.000000</ele><time>2010-08-18T10:15:06Z</time></trkpt>
	<trkpt lat="51.93377" lon="-1.972836667"><ele>245.000000</ele><time>2010-08-18T10:15:11Z</time></trkpt>
	<trkpt lat="51.93374333" lon="-1.972761667"><ele>244.000000</ele><time>2010-08-18T10:15:16Z</time></trkpt>
	<trkpt lat="51.93373333" lon="-1.972688333"><ele>242.000000</ele><time>2010-08-18T10:15:21Z</time></trkpt>
	<trkpt lat="51.93372333" lon="-1.972623333"><ele>241.000000</ele><time>2010-08-18T10:15:26Z</time></trkpt>
	<trkpt lat="51.93371333" lon="-1.972558333"><ele>239.000000</ele><time>2010-08-18T10:15:31Z</time></trkpt>
	<trkpt lat="51.93370333" lon="-1.972485"><ele>238.000000</ele><time>2010-08-18T10:15:36Z</time></trkpt>
	<trkpt lat="51.933695" lon="-1.972408333"><ele>237.000000</ele><time>2010-08-18T10:15:41Z</time></trkpt>
	<trkpt lat="51.93368833" lon="-1.972333333"><ele>236.000000</ele><time>2010-08-18T10:15:46Z</time></trkpt>
	<trkpt lat="51.93367833" lon="-1.972258333"><ele>235.000000</ele><time>2010-08-18T10:15:51Z</time></trkpt>
	<trkpt lat="51.93367" lon="-1.972183333"><ele>235.000000</ele><time>2010-08-18T10:15:56Z</time></trkpt>
	<trkpt lat="51.93366333" lon="-1.972108333"><ele>234.000000</ele><time>2010-08-18T10:16:01Z</time></trkpt>
	<trkpt lat="51.93365167" lon="-1.972035"><ele>234.000000</ele><time>2010-08-18T10:16:06Z</time></trkpt>
	<trkpt lat="51.93364667" lon="-1.971973333"><ele>234.000000</ele><time>2010-08-18T10:16:11Z</time></trkpt>
	<trkpt lat="51.93362833" lon="-1.971935"><ele>234.000000</ele><time>2010-08-18T10:16:16Z</time></trkpt>
	<trkpt lat="51.93360167" lon="-1.97189"><ele>234.000000</ele><time>2010-08-18T10:16:21Z</time></trkpt>
	<trkpt lat="51.93358" lon="-1.971843333"><ele>234.000000</ele><time>2010-08-18T10:16:26Z</time></trkpt>
	<trkpt lat="51.93355167" lon="-1.971795"><ele>234.000000</ele><time>2010-08-18T10:16:31Z</time></trkpt>
	<trkpt lat="51.93352" lon="-1.97176"><ele>234.000000</ele><time>2010-08-18T10:16:36Z</time></trkpt>
	<trkpt lat="51.933485" lon="-1.971718333"><ele>235.000000</ele><time>2010-08-18T10:16:41Z</time></trkpt>
	<trkpt lat="51.93344833" lon="-1.971675"><ele>235.000000</ele><time>2010-08-18T10:16:46Z</time></trkpt>
	<trkpt lat="51.93341833" lon="-1.971653333"><ele>236.000000</ele><time>2010-08-18T10:16:51Z</time></trkpt>
	<trkpt lat="51.93338167" lon="-1.971623333"><ele>236.000000</ele><time>2010-08-18T10:16:56Z</time></trkpt>
	<trkpt lat="51.93335" lon="-1.971596667"><ele>237.000000</ele><time>2010-08-18T10:17:01Z</time></trkpt>
	<trkpt lat="51.93331333" lon="-1.97157"><ele>238.000000</ele><time>2010-08-18T10:17:06Z</time></trkpt>
	<trkpt lat="51.93327667" lon="-1.971553333"><ele>238.000000</ele><time>2010-08-18T10:17:11Z</time></trkpt>
	<trkpt lat="51.93323833" lon="-1.971541667"><ele>239.000000</ele><time>2010-08-18T10:17:16Z</time></trkpt>
	<trkpt lat="51.93319333" lon="-1.971535"><ele>240.000000</ele><time>2010-08-18T10:17:21Z</time></trkpt>
	<trkpt lat="51.93314833" lon="-1.971545"><ele>240.000000</ele><time>2010-08-18T10:17:26Z</time></trkpt>
	<trkpt lat="51.93311" lon="-1.971563333"><ele>241.000000</ele><time>2010-08-18T10:17:31Z</time></trkpt>
	<trkpt lat="51.93306833" lon="-1.971573333"><ele>241.000000</ele><time>2010-08-18T10:17:36Z</time></trkpt>
	<trkpt lat="51.93301833" lon="-1.971593333"><ele>242.000000</ele><time>2010-08-18T10:17:41Z</time></trkpt>
	<trkpt lat="51.93297333" lon="-1.971616667"><ele>242.000000</ele><time>2010-08-18T10:17:46Z</time></trkpt>
	<trkpt lat="51.93293" lon="-1.971648333"><ele>243.000000</ele><time>2010-08-18T10:17:51Z</time></trkpt>
	<trkpt lat="51.93289333" lon="-1.971685"><ele>243.000000</ele><time>2010-08-18T10:17:56Z</time></trkpt>
	<trkpt lat="51.93286333" lon="-1.971725"><ele>244.000000</ele><time>2010-08-18T10:18:01Z</time></trkpt>
	<trkpt lat="51.93282333" lon="-1.971756667"><ele>245.000000</ele><time>2010-08-18T10:18:06Z</time></trkpt>
	<trkpt lat="51.93278333" lon="-1.971788333"><ele>246.000000</ele><time>2010-08-18T10:18:11Z</time></trkpt>
	<trkpt lat="51.932745" lon="-1.971831667"><ele>246.000000</ele><time>2010-08-18T10:18:16Z</time></trkpt>
	<trkpt lat="51.93271833" lon="-1.971866667"><ele>247.000000</ele><time>2010-08-18T10:18:21Z</time></trkpt>
	<trkpt lat="51.93268167" lon="-1.971915"><ele>248.000000</ele><time>2010-08-18T10:18:26Z</time></trkpt>
	<trkpt lat="51.93264333" lon="-1.971963333"><ele>249.000000</ele><time>2010-08-18T10:18:31Z</time></trkpt>
	<trkpt lat="51.932615" lon="-1.972003333"><ele>250.000000</ele><time>2010-08-18T10:18:36Z</time></trkpt>
	<trkpt lat="51.932585" lon="-1.972038333"><ele>251.000000</ele><time>2010-08-18T10:18:41Z</time></trkpt>
	<trkpt lat="51.93256" lon="-1.972073333"><ele>251.000000</ele><time>2010-08-18T10:18:46Z</time></trkpt>
	<trkpt lat="51.93253667" lon="-1.972116667"><ele>252.000000</ele><time>2010-08-18T10:18:51Z</time></trkpt>
	<trkpt lat="51.93250833" lon="-1.972158333"><ele>253.000000</ele><time>2010-08-18T10:18:56Z</time></trkpt>
	<trkpt lat="51.93247667" lon="-1.972203333"><ele>254.000000</ele><time>2010-08-18T10:19:01Z</time></trkpt>
	<trkpt lat="51.93244167" lon="-1.972246667"><ele>254.000000</ele><time>2010-08-18T10:19:06Z</time></trkpt>
	<trkpt lat="51.932415" lon="-1.972288333"><ele>255.000000</ele><time>2010-08-18T10:19:11Z</time></trkpt>
	<trkpt lat="51.93239167" lon="-1.972331667"><ele>256.000000</ele><time>2010-08-18T10:19:16Z</time></trkpt>
	<trkpt lat="51.93235833" lon="-1.972363333"><ele>257.000000</ele><time>2010-08-18T10:19:21Z</time></trkpt>
	<trkpt lat="51.93233" lon="-1.972403333"><ele>258.000000</ele><time>2010-08-18T10:19:26Z</time></trkpt>
	<trkpt lat="51.93230167" lon="-1.972443333"><ele>258.000000</ele><time>2010-08-18T10:19:31Z</time></trkpt>
	<trkpt lat="51.93227" lon="-1.972478333"><ele>259.000000</ele><time>2010-08-18T10:19:36Z</time></trkpt>
	<trkpt lat="51.932235" lon="-1.972511667"><ele>259.000000</ele><time>2010-08-18T10:19:41Z</time></trkpt>
	<trkpt lat="51.93219667" lon="-1.972543333"><ele>260.000000</ele><time>2010-08-18T10:19:46Z</time></trkpt>
	<trkpt lat="51.93216" lon="-1.972575"><ele>260.000000</ele><time>2010-08-18T10:19:51Z</time></trkpt>
	<trkpt lat="51.93212167" lon="-1.972606667"><ele>261.000000</ele><time>2010-08-18T10:19:56Z</time></trkpt>
	<trkpt lat="51.932105" lon="-1.972618333"><ele>261.000000</ele><time>2010-08-18T10:20:01Z</time></trkpt>
	<trkpt lat="51.93210667" lon="-1.972618333"><ele>262.000000</ele><time>2010-08-18T10:20:06Z</time></trkpt>
	<trkpt lat="51.93209667" lon="-1.972641667"><ele>262.000000</ele><time>2010-08-18T10:20:11Z</time></trkpt>
	<trkpt lat="51.93209" lon="-1.972663333"><ele>263.000000</ele><time>2010-08-18T10:20:16Z</time></trkpt>
	<trkpt lat="51.93204667" lon="-1.972695"><ele>263.000000</ele><time>2010-08-18T10:20:21Z</time></trkpt>
	<trkpt lat="51.93201167" lon="-1.97274"><ele>264.000000</ele><time>2010-08-18T10:20:26Z</time></trkpt>
	<trkpt lat="51.93198" lon="-1.972778333"><ele>264.000000</ele><time>2010-08-18T10:20:31Z</time></trkpt>
	<trkpt lat="51.93195333" lon="-1.972815"><ele>265.000000</ele><time>2010-08-18T10:20:36Z</time></trkpt>
	<trkpt lat="51.93191833" lon="-1.972845"><ele>265.000000</ele><time>2010-08-18T10:20:41Z</time></trkpt>
	<trkpt lat="51.931875" lon="-1.97287"><ele>265.000000</ele><time>2010-08-18T10:20:46Z</time></trkpt>
	<trkpt lat="51.93183333" lon="-1.972898333"><ele>265.000000</ele><time>2010-08-18T10:20:51Z</time></trkpt>
	<trkpt lat="51.93179833" lon="-1.972933333"><ele>266.000000</ele><time>2010-08-18T10:20:56Z</time></trkpt>
	<trkpt lat="51.93176333" lon="-1.972963333"><ele>266.000000</ele><time>2010-08-18T10:21:01Z</time></trkpt>
	<trkpt lat="51.931725" lon="-1.972998333"><ele>267.000000</ele><time>2010-08-18T10:21:06Z</time></trkpt>
	<trkpt lat="51.93168833" lon="-1.973033333"><ele>267.000000</ele><time>2010-08-18T10:21:11Z</time></trkpt>
	<trkpt lat="51.93166167" lon="-1.973061667"><ele>268.000000</ele><time>2010-08-18T10:21:16Z</time></trkpt>
	<trkpt lat="51.93162833" lon="-1.97309"><ele>269.000000</ele><time>2010-08-18T10:21:21Z</time></trkpt>
	<trkpt lat="51.93159333" lon="-1.973113333"><ele>270.000000</ele><time>2010-08-18T10:21:26Z</time></trkpt>
	<trkpt lat="51.93155333" lon="-1.97314"><ele>270.000000</ele><time>2010-08-18T10:21:31Z</time></trkpt>
	<trkpt lat="51.93151333" lon="-1.973173333"><ele>270.000000</ele><time>2010-08-18T10:21:36Z</time></trkpt>
	<trkpt lat="51.93147833" lon="-1.973208333"><ele>271.000000</ele><time>2010-08-18T10:21:41Z</time></trkpt>
	<trkpt lat="51.93144667" lon="-1.973236667"><ele>271.000000</ele><time>2010-08-18T10:21:46Z</time></trkpt>
	<trkpt lat="51.93142" lon="-1.973261667"><ele>272.000000</ele><time>2010-08-18T10:21:51Z</time></trkpt>
	<trkpt lat="51.93139167" lon="-1.97328"><ele>273.000000</ele><time>2010-08-18T10:21:56Z</time></trkpt>
	<trkpt lat="51.93135667" lon="-1.973303333"><ele>274.000000</ele><time>2010-08-18T10:22:01Z</time></trkpt>
	<trkpt lat="51.93132" lon="-1.973326667"><ele>275.000000</ele><time>2010-08-18T10:22:06Z</time></trkpt>
	<trkpt lat="51.93128667" lon="-1.973346667"><ele>276.000000</ele><time>2010-08-18T10:22:11Z</time></trkpt>
	<trkpt lat="51.93125167" lon="-1.973371667"><ele>278.000000</ele><time>2010-08-18T10:22:16Z</time></trkpt>
	<trkpt lat="51.931215" lon="-1.973386667"><ele>278.000000</ele><time>2010-08-18T10:22:21Z</time></trkpt>
	<trkpt lat="51.931175" lon="-1.973403333"><ele>279.000000</ele><time>2010-08-18T10:22:26Z</time></trkpt>
	<trkpt lat="51.931135" lon="-1.973418333"><ele>279.000000</ele><time>2010-08-18T10:22:31Z</time></trkpt>
	<trkpt lat="51.931095" lon="-1.973428333"><ele>279.000000</ele><time>2010-08-18T10:22:36Z</time></trkpt>
	<trkpt lat="51.93105333" lon="-1.973433333"><ele>280.000000</ele><time>2010-08-18T10:22:41Z</time></trkpt>
	<trkpt lat="51.93101333" lon="-1.97343"><ele>280.000000</ele><time>2010-08-18T10:22:46Z</time></trkpt>
	<trkpt lat="51.93097833" lon="-1.973428333"><ele>281.000000</ele><time>2010-08-18T10:22:51Z</time></trkpt>
	<trkpt lat="51.93095" lon="-1.973418333"><ele>281.000000</ele><time>2010-08-18T10:22:56Z</time></trkpt>
	<trkpt lat="51.93093333" lon="-1.973421667"><ele>282.000000</ele><time>2010-08-18T10:23:01Z</time></trkpt>
	<trkpt lat="51.93092167" lon="-1.973428333"><ele>282.000000</ele><time>2010-08-18T10:23:06Z</time></trkpt>
	<trkpt lat="51.93091833" lon="-1.97344"><ele>283.000000</ele><time>2010-08-18T10:23:11Z</time></trkpt>
	<trkpt lat="51.93089" lon="-1.973468333"><ele>283.000000</ele><time>2010-08-18T10:23:16Z</time></trkpt>
	<trkpt lat="51.93085333" lon="-1.973471667"><ele>284.000000</ele><time>2010-08-18T10:23:21Z</time></trkpt>
	<trkpt lat="51.93081667" lon="-1.973468333"><ele>286.000000</ele><time>2010-08-18T10:23:26Z</time></trkpt>
	<trkpt lat="51.930785" lon="-1.973435"><ele>286.000000</ele><time>2010-08-18T10:23:31Z</time></trkpt>
	<trkpt lat="51.93075333" lon="-1.973405"><ele>286.000000</ele><time>2010-08-18T10:23:36Z</time></trkpt>
	<trkpt lat="51.93071833" lon="-1.973363333"><ele>286.000000</ele><time>2010-08-18T10:23:41Z</time></trkpt>
	<trkpt lat="51.93068667" lon="-1.973316667"><ele>287.000000</ele><time>2010-08-18T10:23:46Z</time></trkpt>
	<trkpt lat="51.93065667" lon="-1.973271667"><ele>287.000000</ele><time>2010-08-18T10:23:51Z</time></trkpt>
	<trkpt lat="51.930635" lon="-1.973236667"><ele>286.000000</ele><time>2010-08-18T10:23:56Z</time></trkpt>
	<trkpt lat="51.93063333" lon="-1.973236667"><ele>286.000000</ele><time>2010-08-18T10:24:01Z</time></trkpt>
	<trkpt lat="51.93060833" lon="-1.973208333"><ele>287.000000</ele><time>2010-08-18T10:24:06Z</time></trkpt>
	<trkpt lat="51.93057333" lon="-1.973165"><ele>287.000000</ele><time>2010-08-18T10:24:11Z</time></trkpt>
	<trkpt lat="51.930535" lon="-1.973116667"><ele>288.000000</ele><time>2010-08-18T10:24:17Z</time></trkpt>
	<trkpt lat="51.93051" lon="-1.973063333"><ele>287.000000</ele><time>2010-08-18T10:24:22Z</time></trkpt>
	<trkpt lat="51.93050167" lon="-1.973046667"><ele>287.000000</ele><time>2010-08-18T10:24:27Z</time></trkpt>
	<trkpt lat="51.93049167" lon="-1.973028333"><ele>286.000000</ele><time>2010-08-18T10:24:32Z</time></trkpt>
	<trkpt lat="51.93046333" lon="-1.972976667"><ele>287.000000</ele><time>2010-08-18T10:24:37Z</time></trkpt>
	<trkpt lat="51.930435" lon="-1.97292"><ele>288.000000</ele><time>2010-08-18T10:24:42Z</time></trkpt>
	<trkpt lat="51.93040667" lon="-1.97287"><ele>289.000000</ele><time>2010-08-18T10:24:47Z</time></trkpt>
	<trkpt lat="51.930375" lon="-1.972818333"><ele>289.000000</ele><time>2010-08-18T10:24:52Z</time></trkpt>
	<trkpt lat="51.93034667" lon="-1.972761667"><ele>290.000000</ele><time>2010-08-18T10:24:57Z</time></trkpt>
	<trkpt lat="51.93031667" lon="-1.972708333"><ele>291.000000</ele><time>2010-08-18T10:25:02Z</time></trkpt>
	<trkpt lat="51.93028333" lon="-1.972656667"><ele>292.000000</ele><time>2010-08-18T10:25:07Z</time></trkpt>
	<trkpt lat="51.93025167" lon="-1.9726"><ele>293.000000</ele><time>2010-08-18T10:25:12Z</time></trkpt>
	<trkpt lat="51.930215" lon="-1.972541667"><ele>294.000000</ele><time>2010-08-18T10:25:17Z</time></trkpt>
	<trkpt lat="51.93018167" lon="-1.972471667"><ele>293.000000</ele><time>2010-08-18T10:25:22Z</time></trkpt>
	<trkpt lat="51.93015333" lon="-1.972401667"><ele>293.000000</ele><time>2010-08-18T10:25:27Z</time></trkpt>
	<trkpt lat="51.93012167" lon="-1.972338333"><ele>293.000000</ele><time>2010-08-18T10:25:32Z</time></trkpt>
	<trkpt lat="51.93009667" lon="-1.972278333"><ele>294.000000</ele><time>2010-08-18T10:25:37Z</time></trkpt>
	<trkpt lat="51.93007167" lon="-1.972218333"><ele>294.000000</ele><time>2010-08-18T10:25:42Z</time></trkpt>
	<trkpt lat="51.93004333" lon="-1.97217"><ele>295.000000</ele><time>2010-08-18T10:25:47Z</time></trkpt>
	<trkpt lat="51.93001167" lon="-1.972146667"><ele>296.000000</ele><time>2010-08-18T10:25:52Z</time></trkpt>
	<trkpt lat="51.92999333" lon="-1.97211"><ele>297.000000</ele><time>2010-08-18T10:25:57Z</time></trkpt>
	<trkpt lat="51.929975" lon="-1.972083333"><ele>299.000000</ele><time>2010-08-18T10:26:02Z</time></trkpt>
	<trkpt lat="51.92995667" lon="-1.972075"><ele>303.000000</ele><time>2010-08-18T10:26:07Z</time></trkpt>
	<trkpt lat="51.92993667" lon="-1.972033333"><ele>301.000000</ele><time>2010-08-18T10:26:12Z</time></trkpt>
	<trkpt lat="51.92990167" lon="-1.971991667"><ele>299.000000</ele><time>2010-08-18T10:26:17Z</time></trkpt>
	<trkpt lat="51.92987333" lon="-1.971985"><ele>303.000000</ele><time>2010-08-18T10:26:22Z</time></trkpt>
	<trkpt lat="51.92984" lon="-1.97195"><ele>302.000000</ele><time>2010-08-18T10:26:27Z</time></trkpt>
	<trkpt lat="51.92981833" lon="-1.971928333"><ele>302.000000</ele><time>2010-08-18T10:26:32Z</time></trkpt>
	<trkpt lat="51.92979" lon="-1.971906667"><ele>302.000000</ele><time>2010-08-18T10:26:37Z</time></trkpt>
	<trkpt lat="51.929765" lon="-1.971886667"><ele>304.000000</ele><time>2010-08-18T10:26:42Z</time></trkpt>
	<trkpt lat="51.92972833" lon="-1.97186"><ele>305.000000</ele><time>2010-08-18T10:26:47Z</time></trkpt>
	<trkpt lat="51.92969167" lon="-1.971843333"><ele>306.000000</ele><time>2010-08-18T10:26:52Z</time></trkpt>
	<trkpt lat="51.92966833" lon="-1.971821667"><ele>306.000000</ele><time>2010-08-18T10:26:57Z</time></trkpt>
	<trkpt lat="51.92964333" lon="-1.971815"><ele>306.000000</ele><time>2010-08-18T10:27:02Z</time></trkpt>
	<trkpt lat="51.92960333" lon="-1.9718"><ele>307.000000</ele><time>2010-08-18T10:27:07Z</time></trkpt>
	<trkpt lat="51.92954667" lon="-1.971778333"><ele>307.000000</ele><time>2010-08-18T10:27:12Z</time></trkpt>
	<trkpt lat="51.929505" lon="-1.971761667"><ele>304.000000</ele><time>2010-08-18T10:27:17Z</time></trkpt>
	<trkpt lat="51.92948167" lon="-1.971766667"><ele>304.000000</ele><time>2010-08-18T10:27:22Z</time></trkpt>
	<trkpt lat="51.92944167" lon="-1.971756667"><ele>304.000000</ele><time>2010-08-18T10:27:27Z</time></trkpt>
	<trkpt lat="51.92939333" lon="-1.971745"><ele>305.000000</ele><time>2010-08-18T10:27:32Z</time></trkpt>
	<trkpt lat="51.92932667" lon="-1.971728333"><ele>306.000000</ele><time>2010-08-18T10:27:37Z</time></trkpt>
	<trkpt lat="51.92928167" lon="-1.971708333"><ele>306.000000</ele><time>2010-08-18T10:27:42Z</time></trkpt>
	<trkpt lat="51.92922833" lon="-1.971695"><ele>306.000000</ele><time>2010-08-18T10:27:47Z</time></trkpt>
	<trkpt lat="51.92918167" lon="-1.9717"><ele>308.000000</ele><time>2010-08-18T10:27:52Z</time></trkpt>
	<trkpt lat="51.929135" lon="-1.971705"><ele>311.000000</ele><time>2010-08-18T10:27:57Z</time></trkpt>
	<trkpt lat="51.929095" lon="-1.97171"><ele>314.000000</ele><time>2010-08-18T10:28:02Z</time></trkpt>
	<trkpt lat="51.92905667" lon="-1.971676667"><ele>313.000000</ele><time>2010-08-18T10:28:07Z</time></trkpt>
	<trkpt lat="51.92901833" lon="-1.971675"><ele>314.000000</ele><time>2010-08-18T10:28:12Z</time></trkpt>
	<trkpt lat="51.92895167" lon="-1.971603333"><ele>307.000000</ele><time>2010-08-18T10:28:17Z</time></trkpt>
	<trkpt lat="51.92889" lon="-1.971556667"><ele>303.000000</ele><time>2010-08-18T10:28:22Z</time></trkpt>
	<trkpt lat="51.92884667" lon="-1.971525"><ele>302.000000</ele><time>2010-08-18T10:28:27Z</time></trkpt>
	<trkpt lat="51.92879667" lon="-1.97152"><ele>305.000000</ele><time>2010-08-18T10:28:32Z</time></trkpt>
	<trkpt lat="51.92875167" lon="-1.971531667"><ele>310.000000</ele><time>2010-08-18T10:28:37Z</time></trkpt>
	<trkpt lat="51.92871167" lon="-1.971488333"><ele>307.000000</ele><time>2010-08-18T10:28:42Z</time></trkpt>
	<trkpt lat="51.92865" lon="-1.971441667"><ele>303.000000</ele><time>2010-08-18T10:28:47Z</time></trkpt>
	<trkpt lat="51.92860833" lon="-1.971418333"><ele>303.000000</ele><time>2010-08-18T10:28:52Z</time></trkpt>
	<trkpt lat="51.928565" lon="-1.971391667"><ele>303.000000</ele><time>2010-08-18T10:28:57Z</time></trkpt>
	<trkpt lat="51.92852333" lon="-1.971375"><ele>303.000000</ele><time>2010-08-18T10:29:02Z</time></trkpt>
	<trkpt lat="51.92847833" lon="-1.971343333"><ele>303.000000</ele><time>2010-08-18T10:29:07Z</time></trkpt>
	<trkpt lat="51.92842833" lon="-1.971296667"><ele>303.000000</ele><time>2010-08-18T10:29:12Z</time></trkpt>
	<trkpt lat="51.92838667" lon="-1.971271667"><ele>303.000000</ele><time>2010-08-18T10:29:17Z</time></trkpt>
	<trkpt lat="51.92835" lon="-1.971245"><ele>304.000000</ele><time>2010-08-18T10:29:22Z</time></trkpt>
	<trkpt lat="51.92830333" lon="-1.971213333"><ele>305.000000</ele><time>2010-08-18T10:29:27Z</time></trkpt>
	<trkpt lat="51.92826333" lon="-1.97119"><ele>307.000000</ele><time>2010-08-18T10:29:32Z</time></trkpt>
	<trkpt lat="51.92822833" lon="-1.97118"><ele>309.000000</ele><time>2010-08-18T10:29:37Z</time></trkpt>
	<trkpt lat="51.928185" lon="-1.971163333"><ele>311.000000</ele><time>2010-08-18T10:29:42Z</time></trkpt>
	<trkpt lat="51.92814167" lon="-1.97115"><ele>314.000000</ele><time>2010-08-18T10:29:47Z</time></trkpt>
	<trkpt lat="51.928105" lon="-1.971131667"><ele>315.000000</ele><time>2010-08-18T10:29:52Z</time></trkpt>
	<trkpt lat="51.92806" lon="-1.97108"><ele>314.000000</ele><time>2010-08-18T10:29:57Z</time></trkpt>
	<trkpt lat="51.92799833" lon="-1.97102"><ele>310.000000</ele><time>2010-08-18T10:30:02Z</time></trkpt>
	<trkpt lat="51.927955" lon="-1.970981667"><ele>309.000000</ele><time>2010-08-18T10:30:07Z</time></trkpt>
	<trkpt lat="51.92790167" lon="-1.970961667"><ele>309.000000</ele><time>2010-08-18T10:30:12Z</time></trkpt>
	<trkpt lat="51.927875" lon="-1.970923333"><ele>306.000000</ele><time>2010-08-18T10:30:17Z</time></trkpt>
	<trkpt lat="51.927835" lon="-1.9709"><ele>305.000000</ele><time>2010-08-18T10:30:22Z</time></trkpt>
	<trkpt lat="51.92779833" lon="-1.970896667"><ele>307.000000</ele><time>2010-08-18T10:30:27Z</time></trkpt>
	<trkpt lat="51.92777167" lon="-1.970861667"><ele>304.000000</ele><time>2010-08-18T10:30:32Z</time></trkpt>
	<trkpt lat="51.92774333" lon="-1.97086"><ele>306.000000</ele><time>2010-08-18T10:30:37Z</time></trkpt>
	<trkpt lat="51.927715" lon="-1.970848333"><ele>305.000000</ele><time>2010-08-18T10:30:42Z</time></trkpt>
	<trkpt lat="51.92769333" lon="-1.970853333"><ele>304.000000</ele><time>2010-08-18T10:30:47Z</time></trkpt>
	<trkpt lat="51.92768" lon="-1.97085"><ele>304.000000</ele><time>2010-08-18T10:30:52Z</time></trkpt>
	<trkpt lat="51.92765167" lon="-1.970845"><ele>303.000000</ele><time>2010-08-18T10:30:57Z</time></trkpt>
	<trkpt lat="51.92764" lon="-1.97085"><ele>303.000000</ele><time>2010-08-18T10:31:02Z</time></trkpt>
	<trkpt lat="51.92763833" lon="-1.97084"><ele>301.000000</ele><time>2010-08-18T10:31:07Z</time></trkpt>
	<trkpt lat="51.92763167" lon="-1.97084"><ele>302.000000</ele><time>2010-08-18T10:31:12Z</time></trkpt>
	<trkpt lat="51.92762167" lon="-1.970843333"><ele>303.000000</ele><time>2010-08-18T10:31:17Z</time></trkpt>
	<trkpt lat="51.92761667" lon="-1.970843333"><ele>304.000000</ele><time>2010-08-18T10:31:22Z</time></trkpt>
	<trkpt lat="51.92760667" lon="-1.970843333"><ele>304.000000</ele><time>2010-08-18T10:31:27Z</time></trkpt>
	<trkpt lat="51.92762" lon="-1.970835"><ele>302.000000</ele><time>2010-08-18T10:31:32Z</time></trkpt>
	<trkpt lat="51.927625" lon="-1.970835"><ele>302.000000</ele><time>2010-08-18T10:31:37Z</time></trkpt>
	<trkpt lat="51.92763" lon="-1.97084"><ele>302.000000</ele><time>2010-08-18T10:31:42Z</time></trkpt>
	<trkpt lat="51.92763167" lon="-1.970846667"><ele>302.000000</ele><time>2010-08-18T10:31:47Z</time></trkpt>
	<trkpt lat="51.927635" lon="-1.970881667"><ele>301.000000</ele><time>2010-08-18T10:31:52Z</time></trkpt>
	<trkpt lat="51.92763333" lon="-1.970906667"><ele>301.000000</ele><time>2010-08-18T10:31:57Z</time></trkpt>
	<trkpt lat="51.92763" lon="-1.970943333"><ele>300.000000</ele><time>2010-08-18T10:32:02Z</time></trkpt>
	<trkpt lat="51.92760833" lon="-1.970971667"><ele>299.000000</ele><time>2010-08-18T10:32:07Z</time></trkpt>
	<trkpt lat="51.92758333" lon="-1.970976667"><ele>299.000000</ele><time>2010-08-18T10:32:12Z</time></trkpt>
	<trkpt lat="51.92758333" lon="-1.970981667"><ele>298.000000</ele><time>2010-08-18T10:32:17Z</time></trkpt>
	<trkpt lat="51.92758333" lon="-1.970988333"><ele>298.000000</ele><time>2010-08-18T10:32:22Z</time></trkpt>
	<trkpt lat="51.92758667" lon="-1.970985"><ele>297.000000</ele><time>2010-08-18T10:32:27Z</time></trkpt>
	<trkpt lat="51.92758833" lon="-1.97099"><ele>296.000000</ele><time>2010-08-18T10:32:32Z</time></trkpt>
	<trkpt lat="51.92759" lon="-1.970991667"><ele>295.000000</ele><time>2010-08-18T10:32:37Z</time></trkpt>
	<trkpt lat="51.92759" lon="-1.970993333"><ele>295.000000</ele><time>2010-08-18T10:32:42Z</time></trkpt>
	<trkpt lat="51.92759667" lon="-1.970996667"><ele>294.000000</ele><time>2010-08-18T10:32:47Z</time></trkpt>
	<trkpt lat="51.92762833" lon="-1.971008333"><ele>295.000000</ele><time>2010-08-18T10:32:52Z</time></trkpt>
	<trkpt lat="51.92764" lon="-1.971011667"><ele>296.000000</ele><time>2010-08-18T10:32:57Z</time></trkpt>
	<trkpt lat="51.92766333" lon="-1.971006667"><ele>296.000000</ele><time>2010-08-18T10:33:02Z</time></trkpt>
	<trkpt lat="51.92766667" lon="-1.971005"><ele>297.000000</ele><time>2010-08-18T10:33:07Z</time></trkpt>
	<trkpt lat="51.92766833" lon="-1.971003333"><ele>297.000000</ele><time>2010-08-18T10:33:12Z</time></trkpt>
	<trkpt lat="51.92766833" lon="-1.971008333"><ele>297.000000</ele><time>2010-08-18T10:33:17Z</time></trkpt>
	<trkpt lat="51.92766833" lon="-1.971008333"><ele>297.000000</ele><time>2010-08-18T10:33:22Z</time></trkpt>
	<trkpt lat="51.92766667" lon="-1.971005"><ele>297.000000</ele><time>2010-08-18T10:33:27Z</time></trkpt>
	<trkpt lat="51.92766833" lon="-1.971013333"><ele>297.000000</ele><time>2010-08-18T10:33:32Z</time></trkpt>
	<trkpt lat="51.92766833" lon="-1.971013333"><ele>297.000000</ele><time>2010-08-18T10:33:37Z</time></trkpt>
	<trkpt lat="51.92766667" lon="-1.971015"><ele>298.000000</ele><time>2010-08-18T10:33:42Z</time></trkpt>
	<trkpt lat="51.92766667" lon="-1.971015"><ele>298.000000</ele><time>2010-08-18T10:33:47Z</time></trkpt>
	<trkpt lat="51.927665" lon="-1.971013333"><ele>298.000000</ele><time>2010-08-18T10:33:52Z</time></trkpt>
	<trkpt lat="51.92766333" lon="-1.971016667"><ele>298.000000</ele><time>2010-08-18T10:33:57Z</time></trkpt>
	<trkpt lat="51.92766333" lon="-1.971016667"><ele>299.000000</ele><time>2010-08-18T10:34:02Z</time></trkpt>
	<trkpt lat="51.92766333" lon="-1.971016667"><ele>299.000000</ele><time>2010-08-18T10:34:07Z</time></trkpt>
	<trkpt lat="51.92766167" lon="-1.971016667"><ele>299.000000</ele><time>2010-08-18T10:34:12Z</time></trkpt>
	<trkpt lat="51.92765833" lon="-1.971013333"><ele>299.000000</ele><time>2010-08-18T10:34:17Z</time></trkpt>
	<trkpt lat="51.92757833" lon="-1.970993333"><ele>300.000000</ele><time>2010-08-18T10:34:22Z</time></trkpt>
	<trkpt lat="51.92757833" lon="-1.970988333"><ele>300.000000</ele><time>2010-08-18T10:34:27Z</time></trkpt>
	<trkpt lat="51.92757667" lon="-1.97099"><ele>300.000000</ele><time>2010-08-18T10:34:32Z</time></trkpt>
	<trkpt lat="51.92757667" lon="-1.97099"><ele>300.000000</ele><time>2010-08-18T10:34:37Z</time></trkpt>
	<trkpt lat="51.92757667" lon="-1.970991667"><ele>299.000000</ele><time>2010-08-18T10:34:42Z</time></trkpt>
	<trkpt lat="51.92757667" lon="-1.97099"><ele>299.000000</ele><time>2010-08-18T10:34:47Z</time></trkpt>
	<trkpt lat="51.92757667" lon="-1.97099"><ele>299.000000</ele><time>2010-08-18T10:34:52Z</time></trkpt>
	<trkpt lat="51.92761667" lon="-1.970986667"><ele>299.000000</ele><time>2010-08-18T10:34:57Z</time></trkpt>
	<trkpt lat="51.92765833" lon="-1.971005"><ele>299.000000</ele><time>2010-08-18T10:35:02Z</time></trkpt>
	<trkpt lat="51.92765833" lon="-1.970993333"><ele>299.000000</ele><time>2010-08-18T10:35:07Z</time></trkpt>
	<trkpt lat="51.92765833" lon="-1.970991667"><ele>298.000000</ele><time>2010-08-18T10:35:12Z</time></trkpt>
	<trkpt lat="51.927655" lon="-1.970985"><ele>299.000000</ele><time>2010-08-18T10:35:17Z</time></trkpt>
	<trkpt lat="51.927655" lon="-1.971005"><ele>299.000000</ele><time>2010-08-18T10:35:22Z</time></trkpt>
	<trkpt lat="51.92765" lon="-1.971038333"><ele>300.000000</ele><time>2010-08-18T10:35:27Z</time></trkpt>
	<trkpt lat="51.92765333" lon="-1.971038333"><ele>300.000000</ele><time>2010-08-18T10:35:32Z</time></trkpt>
	<trkpt lat="51.927625" lon="-1.971036667"><ele>302.000000</ele><time>2010-08-18T10:35:37Z</time></trkpt>
	<trkpt lat="51.92758833" lon="-1.97103"><ele>303.000000</ele><time>2010-08-18T10:35:42Z</time></trkpt>
	<trkpt lat="51.92755167" lon="-1.971016667"><ele>304.000000</ele><time>2010-08-18T10:35:47Z</time></trkpt>
	<trkpt lat="51.92752833" lon="-1.97098"><ele>305.000000</ele><time>2010-08-18T10:35:52Z</time></trkpt>
	<trkpt lat="51.92752667" lon="-1.970968333"><ele>304.000000</ele><time>2010-08-18T10:35:57Z</time></trkpt>
	<trkpt lat="51.92752833" lon="-1.970968333"><ele>304.000000</ele><time>2010-08-18T10:36:02Z</time></trkpt>
	<trkpt lat="51.927525" lon="-1.970965"><ele>303.000000</ele><time>2010-08-18T10:36:07Z</time></trkpt>
	<trkpt lat="51.92753" lon="-1.970966667"><ele>303.000000</ele><time>2010-08-18T10:36:12Z</time></trkpt>
	<trkpt lat="51.92753" lon="-1.970971667"><ele>303.000000</ele><time>2010-08-18T10:36:17Z</time></trkpt>
	<trkpt lat="51.92752833" lon="-1.970961667"><ele>303.000000</ele><time>2010-08-18T10:36:22Z</time></trkpt>
	<trkpt lat="51.92752667" lon="-1.970958333"><ele>303.000000</ele><time>2010-08-18T10:36:27Z</time></trkpt>
	<trkpt lat="51.92755833" lon="-1.970981667"><ele>302.000000</ele><time>2010-08-18T10:36:32Z</time></trkpt>
	<trkpt lat="51.927605" lon="-1.970991667"><ele>300.000000</ele><time>2010-08-18T10:36:37Z</time></trkpt>
	<trkpt lat="51.92760833" lon="-1.971065"><ele>300.000000</ele><time>2010-08-18T10:36:42Z</time></trkpt>
	<trkpt lat="51.92755" lon="-1.971101667"><ele>299.000000</ele><time>2010-08-18T10:36:47Z</time></trkpt>
	<trkpt lat="51.92748833" lon="-1.971103333"><ele>299.000000</ele><time>2010-08-18T10:36:52Z</time></trkpt>
	<trkpt lat="51.92743333" lon="-1.971095"><ele>299.000000</ele><time>2010-08-18T10:36:57Z</time></trkpt>
	<trkpt lat="51.9274" lon="-1.97109"><ele>299.000000</ele><time>2010-08-18T10:37:02Z</time></trkpt>
	<trkpt lat="51.927385" lon="-1.971125"><ele>299.000000</ele><time>2010-08-18T10:37:07Z</time></trkpt>
	<trkpt lat="51.927385" lon="-1.971128333"><ele>299.000000</ele><time>2010-08-18T10:37:12Z</time></trkpt>
	<trkpt lat="51.92738833" lon="-1.97113"><ele>299.000000</ele><time>2010-08-18T10:37:17Z</time></trkpt>
	<trkpt lat="51.927375" lon="-1.971115"><ele>300.000000</ele><time>2010-08-18T10:37:22Z</time></trkpt>
	<trkpt lat="51.92736667" lon="-1.971118333"><ele>299.000000</ele><time>2010-08-18T10:37:27Z</time></trkpt>
	<trkpt lat="51.92736333" lon="-1.971121667"><ele>299.000000</ele><time>2010-08-18T10:37:32Z</time></trkpt>
	<trkpt lat="51.92736167" lon="-1.971125"><ele>299.000000</ele><time>2010-08-18T10:37:37Z</time></trkpt>
	<trkpt lat="51.92736167" lon="-1.971125"><ele>299.000000</ele><time>2010-08-18T10:37:42Z</time></trkpt>
	<trkpt lat="51.92736" lon="-1.971125"><ele>299.000000</ele><time>2010-08-18T10:37:47Z</time></trkpt>
	<trkpt lat="51.92736833" lon="-1.97111"><ele>299.000000</ele><time>2010-08-18T10:37:52Z</time></trkpt>
	<trkpt lat="51.92737" lon="-1.97111"><ele>299.000000</ele><time>2010-08-18T10:37:57Z</time></trkpt>
	<trkpt lat="51.927375" lon="-1.971105"><ele>299.000000</ele><time>2010-08-18T10:38:02Z</time></trkpt>
	<trkpt lat="51.92737333" lon="-1.97111"><ele>299.000000</ele><time>2010-08-18T10:38:07Z</time></trkpt>
	<trkpt lat="51.927375" lon="-1.971116667"><ele>299.000000</ele><time>2010-08-18T10:38:12Z</time></trkpt>
	<trkpt lat="51.92737667" lon="-1.971116667"><ele>298.000000</ele><time>2010-08-18T10:38:17Z</time></trkpt>
	<trkpt lat="51.92737667" lon="-1.971116667"><ele>298.000000</ele><time>2010-08-18T10:38:22Z</time></trkpt>
	<trkpt lat="51.92737667" lon="-1.971115"><ele>298.000000</ele><time>2010-08-18T10:38:27Z</time></trkpt>
	<trkpt lat="51.92737833" lon="-1.971115"><ele>298.000000</ele><time>2010-08-18T10:38:32Z</time></trkpt>
	<trkpt lat="51.92737833" lon="-1.971115"><ele>298.000000</ele><time>2010-08-18T10:38:37Z</time></trkpt>
	<trkpt lat="51.92737667" lon="-1.971116667"><ele>298.000000</ele><time>2010-08-18T10:38:42Z</time></trkpt>
	<trkpt lat="51.92737667" lon="-1.971116667"><ele>298.000000</ele><time>2010-08-18T10:38:47Z</time></trkpt>
	<trkpt lat="51.92737667" lon="-1.971116667"><ele>298.000000</ele><time>2010-08-18T10:38:52Z</time></trkpt>
	<trkpt lat="51.92737833" lon="-1.971115"><ele>298.000000</ele><time>2010-08-18T10:38:57Z</time></trkpt>
	<trkpt lat="51.92737833" lon="-1.97111"><ele>298.000000</ele><time>2010-08-18T10:39:02Z</time></trkpt>
	<trkpt lat="51.92737833" lon="-1.97111"><ele>298.000000</ele><time>2010-08-18T10:39:07Z</time></trkpt>
	<trkpt lat="51.92737667" lon="-1.971108333"><ele>298.000000</ele><time>2010-08-18T10:39:12Z</time></trkpt>
	<trkpt lat="51.92738833" lon="-1.971115"><ele>298.000000</ele><time>2010-08-18T10:39:17Z</time></trkpt>
	<trkpt lat="51.927415" lon="-1.971125"><ele>298.000000</ele><time>2010-08-18T10:39:22Z</time></trkpt>
	<trkpt lat="51.92744667" lon="-1.97114"><ele>298.000000</ele><time>2010-08-18T10:39:27Z</time></trkpt>
	<trkpt lat="51.927485" lon="-1.971146667"><ele>298.000000</ele><time>2010-08-18T10:39:32Z</time></trkpt>
	<trkpt lat="51.92752333" lon="-1.971156667"><ele>298.000000</ele><time>2010-08-18T10:39:37Z</time></trkpt>
	<trkpt lat="51.927565" lon="-1.971163333"><ele>298.000000</ele><time>2010-08-18T10:39:42Z</time></trkpt>
	<trkpt lat="51.92759667" lon="-1.971173333"><ele>298.000000</ele><time>2010-08-18T10:39:47Z</time></trkpt>
	<trkpt lat="51.92759833" lon="-1.971171667"><ele>298.000000</ele><time>2010-08-18T10:39:52Z</time></trkpt>
	<trkpt lat="51.927605" lon="-1.971175"><ele>298.000000</ele><time>2010-08-18T10:39:57Z</time></trkpt>
	<trkpt lat="51.92760167" lon="-1.971218333"><ele>298.000000</ele><time>2010-08-18T10:40:02Z</time></trkpt>
	<trkpt lat="51.92755833" lon="-1.971193333"><ele>299.000000</ele><time>2010-08-18T10:40:07Z</time></trkpt>
	<trkpt lat="51.92754167" lon="-1.971186667"><ele>299.000000</ele><time>2010-08-18T10:40:12Z</time></trkpt>
	<trkpt lat="51.92754" lon="-1.971186667"><ele>298.000000</ele><time>2010-08-18T10:40:17Z</time></trkpt>
	<trkpt lat="51.92754" lon="-1.971186667"><ele>298.000000</ele><time>2010-08-18T10:40:22Z</time></trkpt>
	<trkpt lat="51.92752833" lon="-1.971186667"><ele>299.000000</ele><time>2010-08-18T10:40:27Z</time></trkpt>
	<trkpt lat="51.92752333" lon="-1.971185"><ele>299.000000</ele><time>2010-08-18T10:40:32Z</time></trkpt>
	<trkpt lat="51.92752667" lon="-1.971185"><ele>299.000000</ele><time>2010-08-18T10:40:37Z</time></trkpt>
	<trkpt lat="51.927525" lon="-1.971186667"><ele>299.000000</ele><time>2010-08-18T10:40:42Z</time></trkpt>
	<trkpt lat="51.927525" lon="-1.971191667"><ele>299.000000</ele><time>2010-08-18T10:40:47Z</time></trkpt>
	<trkpt lat="51.927525" lon="-1.971188333"><ele>299.000000</ele><time>2010-08-18T10:40:52Z</time></trkpt>
	<trkpt lat="51.92752667" lon="-1.971188333"><ele>299.000000</ele><time>2010-08-18T10:40:57Z</time></trkpt>
	<trkpt lat="51.92750333" lon="-1.971181667"><ele>298.000000</ele><time>2010-08-18T10:41:02Z</time></trkpt>
	<trkpt lat="51.92747833" lon="-1.971178333"><ele>298.000000</ele><time>2010-08-18T10:41:07Z</time></trkpt>
	<trkpt lat="51.92747333" lon="-1.971186667"><ele>298.000000</ele><time>2010-08-18T10:41:12Z</time></trkpt>
	<trkpt lat="51.927475" lon="-1.971185"><ele>298.000000</ele><time>2010-08-18T10:41:17Z</time></trkpt>
	<trkpt lat="51.92747167" lon="-1.971178333"><ele>298.000000</ele><time>2010-08-18T10:41:22Z</time></trkpt>
	<trkpt lat="51.92746333" lon="-1.971178333"><ele>299.000000</ele><time>2010-08-18T10:41:27Z</time></trkpt>
	<trkpt lat="51.92746333" lon="-1.971186667"><ele>299.000000</ele><time>2010-08-18T10:41:32Z</time></trkpt>
	<trkpt lat="51.92749" lon="-1.971193333"><ele>300.000000</ele><time>2010-08-18T10:41:37Z</time></trkpt>
	<trkpt lat="51.92752167" lon="-1.971195"><ele>300.000000</ele><time>2010-08-18T10:41:42Z</time></trkpt>
	<trkpt lat="51.92756667" lon="-1.97121"><ele>300.000000</ele><time>2010-08-18T10:41:47Z</time></trkpt>
	<trkpt lat="51.92755167" lon="-1.971248333"><ele>300.000000</ele><time>2010-08-18T10:41:52Z</time></trkpt>
	<trkpt lat="51.92755" lon="-1.971245"><ele>300.000000</ele><time>2010-08-18T10:41:57Z</time></trkpt>
	<trkpt lat="51.92755167" lon="-1.971248333"><ele>300.000000</ele><time>2010-08-18T10:42:02Z</time></trkpt>
	<trkpt lat="51.92755" lon="-1.971331667"><ele>301.000000</ele><time>2010-08-18T10:42:07Z</time></trkpt>
	<trkpt lat="51.92753667" lon="-1.971445"><ele>301.000000</ele><time>2010-08-18T10:42:12Z</time></trkpt>
	<trkpt lat="51.92750667" lon="-1.971698333"><ele>301.000000</ele><time>2010-08-18T10:42:17Z</time></trkpt>
	<trkpt lat="51.92747" lon="-1.971918333"><ele>300.000000</ele><time>2010-08-18T10:42:22Z</time></trkpt>
	<trkpt lat="51.927465" lon="-1.97196"><ele>299.000000</ele><time>2010-08-18T10:42:27Z</time></trkpt>
	<trkpt lat="51.92745167" lon="-1.972038333"><ele>299.000000</ele><time>2010-08-18T10:42:32Z</time></trkpt>
	<trkpt lat="51.927435" lon="-1.972121667"><ele>299.000000</ele><time>2010-08-18T10:42:37Z</time></trkpt>
	<trkpt lat="51.92742833" lon="-1.972216667"><ele>299.000000</ele><time>2010-08-18T10:42:42Z</time></trkpt>
	<trkpt lat="51.92741667" lon="-1.972313333"><ele>298.000000</ele><time>2010-08-18T10:42:47Z</time></trkpt>
	<trkpt lat="51.9274" lon="-1.972413333"><ele>298.000000</ele><time>2010-08-18T10:42:52Z</time></trkpt>
	<trkpt lat="51.92738667" lon="-1.972511667"><ele>298.000000</ele><time>2010-08-18T10:42:57Z</time></trkpt>
	<trkpt lat="51.92737667" lon="-1.9726"><ele>297.000000</ele><time>2010-08-18T10:43:02Z</time></trkpt>
	<trkpt lat="51.92737333" lon="-1.97262"><ele>297.000000</ele><time>2010-08-18T10:43:07Z</time></trkpt>
	<trkpt lat="51.92736333" lon="-1.972695"><ele>296.000000</ele><time>2010-08-18T10:43:12Z</time></trkpt>
	<trkpt lat="51.92736" lon="-1.972783333"><ele>296.000000</ele><time>2010-08-18T10:43:17Z</time></trkpt>
	<trkpt lat="51.92735333" lon="-1.97283"><ele>296.000000</ele><time>2010-08-18T10:43:22Z</time></trkpt>
	<trkpt lat="51.92734833" lon="-1.972865"><ele>296.000000</ele><time>2010-08-18T10:43:27Z</time></trkpt>
	<trkpt lat="51.92734833" lon="-1.972871667"><ele>295.000000</ele><time>2010-08-18T10:43:32Z</time></trkpt>
	<trkpt lat="51.92733333" lon="-1.972915"><ele>295.000000</ele><time>2010-08-18T10:43:37Z</time></trkpt>
	<trkpt lat="51.92733167" lon="-1.97292"><ele>295.000000</ele><time>2010-08-18T10:43:42Z</time></trkpt>
	<trkpt lat="51.92733333" lon="-1.97292"><ele>295.000000</ele><time>2010-08-18T10:43:47Z</time></trkpt>
	<trkpt lat="51.92732833" lon="-1.97296"><ele>295.000000</ele><time>2010-08-18T10:43:52Z</time></trkpt>
	<trkpt lat="51.92731" lon="-1.973058333"><ele>295.000000</ele><time>2010-08-18T10:43:57Z</time></trkpt>
	<trkpt lat="51.927295" lon="-1.973148333"><ele>295.000000</ele><time>2010-08-18T10:44:02Z</time></trkpt>
	<trkpt lat="51.92728833" lon="-1.973253333"><ele>294.000000</ele><time>2010-08-18T10:44:07Z</time></trkpt>
	<trkpt lat="51.92727333" lon="-1.97337"><ele>294.000000</ele><time>2010-08-18T10:44:12Z</time></trkpt>
	<trkpt lat="51.92725333" lon="-1.973493333"><ele>294.000000</ele><time>2010-08-18T10:44:17Z</time></trkpt>
	<trkpt lat="51.92723667" lon="-1.973628333"><ele>294.000000</ele><time>2010-08-18T10:44:22Z</time></trkpt>
	<trkpt lat="51.92721667" lon="-1.973755"><ele>293.000000</ele><time>2010-08-18T10:44:27Z</time></trkpt>
	<trkpt lat="51.92719833" lon="-1.973883333"><ele>294.000000</ele><time>2010-08-18T10:44:32Z</time></trkpt>
	<trkpt lat="51.92717833" lon="-1.974015"><ele>294.000000</ele><time>2010-08-18T10:44:37Z</time></trkpt>
	<trkpt lat="51.92715667" lon="-1.97415"><ele>294.000000</ele><time>2010-08-18T10:44:42Z</time></trkpt>
	<trkpt lat="51.92714167" lon="-1.974305"><ele>293.000000</ele><time>2010-08-18T10:44:47Z</time></trkpt>
	<trkpt lat="51.92712333" lon="-1.97445"><ele>293.000000</ele><time>2010-08-18T10:44:52Z</time></trkpt>
	<trkpt lat="51.927105" lon="-1.974591667"><ele>293.000000</ele><time>2010-08-18T10:44:57Z</time></trkpt>
	<trkpt lat="51.92708667" lon="-1.974723333"><ele>293.000000</ele><time>2010-08-18T10:45:02Z</time></trkpt>
	<trkpt lat="51.92706333" lon="-1.97486"><ele>292.000000</ele><time>2010-08-18T10:45:07Z</time></trkpt>
	<trkpt lat="51.92704667" lon="-1.974996667"><ele>292.000000</ele><time>2010-08-18T10:45:12Z</time></trkpt>
	<trkpt lat="51.92702833" lon="-1.97512"><ele>291.000000</ele><time>2010-08-18T10:45:17Z</time></trkpt>
	<trkpt lat="51.92701333" lon="-1.975233333"><ele>292.000000</ele><time>2010-08-18T10:45:22Z</time></trkpt>
	<trkpt lat="51.92699667" lon="-1.975335"><ele>292.000000</ele><time>2010-08-18T10:45:27Z</time></trkpt>
	<trkpt lat="51.92698333" lon="-1.975406667"><ele>292.000000</ele><time>2010-08-18T10:45:32Z</time></trkpt>
	<trkpt lat="51.92697333" lon="-1.975491667"><ele>293.000000</ele><time>2010-08-18T10:45:37Z</time></trkpt>
	<trkpt lat="51.92696333" lon="-1.97561"><ele>293.000000</ele><time>2010-08-18T10:45:42Z</time></trkpt>
	<trkpt lat="51.92694833" lon="-1.97572"><ele>292.000000</ele><time>2010-08-18T10:45:47Z</time></trkpt>
	<trkpt lat="51.92693833" lon="-1.975823333"><ele>292.000000</ele><time>2010-08-18T10:45:52Z</time></trkpt>
	<trkpt lat="51.92692667" lon="-1.975918333"><ele>292.000000</ele><time>2010-08-18T10:45:57Z</time></trkpt>
	<trkpt lat="51.92691167" lon="-1.976011667"><ele>292.000000</ele><time>2010-08-18T10:46:02Z</time></trkpt>
	<trkpt lat="51.92689333" lon="-1.976093333"><ele>292.000000</ele><time>2010-08-18T10:46:07Z</time></trkpt>
	<trkpt lat="51.926875" lon="-1.976175"><ele>292.000000</ele><time>2010-08-18T10:46:12Z</time></trkpt>
	<trkpt lat="51.92686333" lon="-1.976253333"><ele>293.000000</ele><time>2010-08-18T10:46:17Z</time></trkpt>
	<trkpt lat="51.92685333" lon="-1.976343333"><ele>292.000000</ele><time>2010-08-18T10:46:22Z</time></trkpt>
	<trkpt lat="51.926845" lon="-1.976455"><ele>292.000000</ele><time>2010-08-18T10:46:27Z</time></trkpt>
	<trkpt lat="51.926835" lon="-1.976546667"><ele>292.000000</ele><time>2010-08-18T10:46:32Z</time></trkpt>
	<trkpt lat="51.92682167" lon="-1.97663"><ele>292.000000</ele><time>2010-08-18T10:46:37Z</time></trkpt>
	<trkpt lat="51.926805" lon="-1.976713333"><ele>292.000000</ele><time>2010-08-18T10:46:42Z</time></trkpt>
	<trkpt lat="51.92679333" lon="-1.976806667"><ele>291.000000</ele><time>2010-08-18T10:46:47Z</time></trkpt>
	<trkpt lat="51.92678167" lon="-1.976893333"><ele>291.000000</ele><time>2010-08-18T10:46:52Z</time></trkpt>
	<trkpt lat="51.92676667" lon="-1.976966667"><ele>291.000000</ele><time>2010-08-18T10:46:57Z</time></trkpt>
	<trkpt lat="51.926755" lon="-1.977046667"><ele>291.000000</ele><time>2010-08-18T10:47:02Z</time></trkpt>
	<trkpt lat="51.92674" lon="-1.977126667"><ele>292.000000</ele><time>2010-08-18T10:47:07Z</time></trkpt>
	<trkpt lat="51.92672667" lon="-1.977196667"><ele>292.000000</ele><time>2010-08-18T10:47:12Z</time></trkpt>
	<trkpt lat="51.92671833" lon="-1.97729"><ele>292.000000</ele><time>2010-08-18T10:47:17Z</time></trkpt>
	<trkpt lat="51.92671" lon="-1.977375"><ele>292.000000</ele><time>2010-08-18T10:47:22Z</time></trkpt>
	<trkpt lat="51.926695" lon="-1.977468333"><ele>292.000000</ele><time>2010-08-18T10:47:27Z</time></trkpt>
	<trkpt lat="51.92667833" lon="-1.977568333"><ele>292.000000</ele><time>2010-08-18T10:47:32Z</time></trkpt>
	<trkpt lat="51.926665" lon="-1.977666667"><ele>292.000000</ele><time>2010-08-18T10:47:37Z</time></trkpt>
	<trkpt lat="51.92664833" lon="-1.97776"><ele>291.000000</ele><time>2010-08-18T10:47:42Z</time></trkpt>
	<trkpt lat="51.92662833" lon="-1.977855"><ele>292.000000</ele><time>2010-08-18T10:47:47Z</time></trkpt>
	<trkpt lat="51.92661167" lon="-1.977955"><ele>292.000000</ele><time>2010-08-18T10:47:52Z</time></trkpt>
	<trkpt lat="51.926595" lon="-1.978051667"><ele>292.000000</ele><time>2010-08-18T10:47:57Z</time></trkpt>
	<trkpt lat="51.92657667" lon="-1.978151667"><ele>292.000000</ele><time>2010-08-18T10:48:02Z</time></trkpt>
	<trkpt lat="51.92655833" lon="-1.978248333"><ele>292.000000</ele><time>2010-08-18T10:48:07Z</time></trkpt>
	<trkpt lat="51.926545" lon="-1.978345"><ele>293.000000</ele><time>2010-08-18T10:48:12Z</time></trkpt>
	<trkpt lat="51.926525" lon="-1.97844"><ele>293.000000</ele><time>2010-08-18T10:48:17Z</time></trkpt>
	<trkpt lat="51.92651167" lon="-1.97855"><ele>293.000000</ele><time>2010-08-18T10:48:22Z</time></trkpt>
	<trkpt lat="51.9265" lon="-1.978661667"><ele>293.000000</ele><time>2010-08-18T10:48:27Z</time></trkpt>
	<trkpt lat="51.92648" lon="-1.978765"><ele>293.000000</ele><time>2010-08-18T10:48:32Z</time></trkpt>
	<trkpt lat="51.92646167" lon="-1.978858333"><ele>293.000000</ele><time>2010-08-18T10:48:37Z</time></trkpt>
	<trkpt lat="51.92644667" lon="-1.978955"><ele>294.000000</ele><time>2010-08-18T10:48:42Z</time></trkpt>
	<trkpt lat="51.92643333" lon="-1.979055"><ele>294.000000</ele><time>2010-08-18T10:48:47Z</time></trkpt>
	<trkpt lat="51.92641667" lon="-1.979143333"><ele>294.000000</ele><time>2010-08-18T10:48:52Z</time></trkpt>
	<trkpt lat="51.92640167" lon="-1.97923"><ele>295.000000</ele><time>2010-08-18T10:48:57Z</time></trkpt>
	<trkpt lat="51.92639" lon="-1.979306667"><ele>295.000000</ele><time>2010-08-18T10:49:02Z</time></trkpt>
	<trkpt lat="51.92638" lon="-1.979386667"><ele>296.000000</ele><time>2010-08-18T10:49:07Z</time></trkpt>
	<trkpt lat="51.92636833" lon="-1.979463333"><ele>297.000000</ele><time>2010-08-18T10:49:12Z</time></trkpt>
	<trkpt lat="51.92636167" lon="-1.979546667"><ele>297.000000</ele><time>2010-08-18T10:49:17Z</time></trkpt>
	<trkpt lat="51.92636" lon="-1.979643333"><ele>297.000000</ele><time>2010-08-18T10:49:22Z</time></trkpt>
	<trkpt lat="51.92635" lon="-1.979748333"><ele>297.000000</ele><time>2010-08-18T10:49:27Z</time></trkpt>
	<trkpt lat="51.92633167" lon="-1.979826667"><ele>297.000000</ele><time>2010-08-18T10:49:32Z</time></trkpt>
	<trkpt lat="51.92631667" lon="-1.979921667"><ele>296.000000</ele><time>2010-08-18T10:49:37Z</time></trkpt>
	<trkpt lat="51.92631" lon="-1.979996667"><ele>295.000000</ele><time>2010-08-18T10:49:42Z</time></trkpt>
	<trkpt lat="51.92629833" lon="-1.980061667"><ele>295.000000</ele><time>2010-08-18T10:49:47Z</time></trkpt>
	<trkpt lat="51.92628333" lon="-1.980121667"><ele>295.000000</ele><time>2010-08-18T10:49:52Z</time></trkpt>
	<trkpt lat="51.92626667" lon="-1.980181667"><ele>296.000000</ele><time>2010-08-18T10:49:57Z</time></trkpt>
	<trkpt lat="51.92625333" lon="-1.980278333"><ele>296.000000</ele><time>2010-08-18T10:50:02Z</time></trkpt>
	<trkpt lat="51.92624" lon="-1.980356667"><ele>296.000000</ele><time>2010-08-18T10:50:07Z</time></trkpt>
	<trkpt lat="51.92623833" lon="-1.980428333"><ele>296.000000</ele><time>2010-08-18T10:50:12Z</time></trkpt>
	<trkpt lat="51.92623" lon="-1.98051"><ele>295.000000</ele><time>2010-08-18T10:50:17Z</time></trkpt>
	<trkpt lat="51.92622667" lon="-1.980538333"><ele>293.000000</ele><time>2010-08-18T10:50:22Z</time></trkpt>
	<trkpt lat="51.92624167" lon="-1.980556667"><ele>293.000000</ele><time>2010-08-18T10:50:27Z</time></trkpt>
	<trkpt lat="51.92625833" lon="-1.980561667"><ele>292.000000</ele><time>2010-08-18T10:50:32Z</time></trkpt>
	<trkpt lat="51.92627" lon="-1.980546667"><ele>292.000000</ele><time>2010-08-18T10:50:37Z</time></trkpt>
	<trkpt lat="51.92627667" lon="-1.980548333"><ele>291.000000</ele><time>2010-08-18T10:50:42Z</time></trkpt>
	<trkpt lat="51.92632167" lon="-1.980526667"><ele>292.000000</ele><time>2010-08-18T10:50:47Z</time></trkpt>
	<trkpt lat="51.92637833" lon="-1.980495"><ele>292.000000</ele><time>2010-08-18T10:50:52Z</time></trkpt>
	<trkpt lat="51.92643833" lon="-1.980465"><ele>292.000000</ele><time>2010-08-18T10:50:57Z</time></trkpt>
	<trkpt lat="51.92648833" lon="-1.980433333"><ele>292.000000</ele><time>2010-08-18T10:51:02Z</time></trkpt>
	<trkpt lat="51.92653333" lon="-1.980405"><ele>294.000000</ele><time>2010-08-18T10:51:07Z</time></trkpt>
	<trkpt lat="51.92657833" lon="-1.980375"><ele>297.000000</ele><time>2010-08-18T10:51:12Z</time></trkpt>
	<trkpt lat="51.92663167" lon="-1.980338333"><ele>298.000000</ele><time>2010-08-18T10:51:17Z</time></trkpt>
	<trkpt lat="51.92668667" lon="-1.9803"><ele>299.000000</ele><time>2010-08-18T10:51:22Z</time></trkpt>
	<trkpt lat="51.92674667" lon="-1.980261667"><ele>298.000000</ele><time>2010-08-18T10:51:27Z</time></trkpt>
	<trkpt lat="51.92680333" lon="-1.980226667"><ele>299.000000</ele><time>2010-08-18T10:51:32Z</time></trkpt>
	<trkpt lat="51.92685833" lon="-1.98019"><ele>299.000000</ele><time>2010-08-18T10:51:37Z</time></trkpt>
	<trkpt lat="51.92691667" lon="-1.980148333"><ele>298.000000</ele><time>2010-08-18T10:51:42Z</time></trkpt>
	<trkpt lat="51.926955" lon="-1.980151667"><ele>297.000000</ele><time>2010-08-18T10:51:47Z</time></trkpt>
	<trkpt lat="51.92697667" lon="-1.980131667"><ele>296.000000</ele><time>2010-08-18T10:51:52Z</time></trkpt>
	<trkpt lat="51.92703333" lon="-1.980085"><ele>296.000000</ele><time>2010-08-18T10:51:57Z</time></trkpt>
	<trkpt lat="51.92709833" lon="-1.980038333"><ele>296.000000</ele><time>2010-08-18T10:52:02Z</time></trkpt>
	<trkpt lat="51.92715833" lon="-1.979995"><ele>296.000000</ele><time>2010-08-18T10:52:07Z</time></trkpt>
	<trkpt lat="51.92721333" lon="-1.979956667"><ele>296.000000</ele><time>2010-08-18T10:52:12Z</time></trkpt>
	<trkpt lat="51.92727167" lon="-1.979926667"><ele>296.000000</ele><time>2010-08-18T10:52:17Z</time></trkpt>
	<trkpt lat="51.92733" lon="-1.979886667"><ele>296.000000</ele><time>2010-08-18T10:52:22Z</time></trkpt>
	<trkpt lat="51.92737833" lon="-1.979856667"><ele>296.000000</ele><time>2010-08-18T10:52:27Z</time></trkpt>
	<trkpt lat="51.92743333" lon="-1.97982"><ele>296.000000</ele><time>2010-08-18T10:52:32Z</time></trkpt>
	<trkpt lat="51.92748" lon="-1.97979"><ele>296.000000</ele><time>2010-08-18T10:52:37Z</time></trkpt>
	<trkpt lat="51.92752833" lon="-1.979758333"><ele>296.000000</ele><time>2010-08-18T10:52:42Z</time></trkpt>
	<trkpt lat="51.92757667" lon="-1.97973"><ele>296.000000</ele><time>2010-08-18T10:52:47Z</time></trkpt>
	<trkpt lat="51.927635" lon="-1.9797"><ele>296.000000</ele><time>2010-08-18T10:52:52Z</time></trkpt>
	<trkpt lat="51.927685" lon="-1.979666667"><ele>296.000000</ele><time>2010-08-18T10:52:57Z</time></trkpt>
	<trkpt lat="51.92772333" lon="-1.979638333"><ele>295.000000</ele><time>2010-08-18T10:53:02Z</time></trkpt>
	<trkpt lat="51.92772167" lon="-1.979625"><ele>294.000000</ele><time>2010-08-18T10:53:07Z</time></trkpt>
	<trkpt lat="51.927715" lon="-1.979603333"><ele>294.000000</ele><time>2010-08-18T10:53:12Z</time></trkpt>
	<trkpt lat="51.92778" lon="-1.979568333"><ele>294.000000</ele><time>2010-08-18T10:53:17Z</time></trkpt>
	<trkpt lat="51.92784333" lon="-1.97952"><ele>294.000000</ele><time>2010-08-18T10:53:22Z</time></trkpt>
	<trkpt lat="51.92790333" lon="-1.979473333"><ele>294.000000</ele><time>2010-08-18T10:53:27Z</time></trkpt>
	<trkpt lat="51.92796167" lon="-1.979433333"><ele>294.000000</ele><time>2010-08-18T10:53:32Z</time></trkpt>
	<trkpt lat="51.928015" lon="-1.979391667"><ele>294.000000</ele><time>2010-08-18T10:53:37Z</time></trkpt>
	<trkpt lat="51.92807167" lon="-1.979355"><ele>294.000000</ele><time>2010-08-18T10:53:42Z</time></trkpt>
	<trkpt lat="51.92812833" lon="-1.97932"><ele>294.000000</ele><time>2010-08-18T10:53:47Z</time></trkpt>
	<trkpt lat="51.92819" lon="-1.97929"><ele>293.000000</ele><time>2010-08-18T10:53:52Z</time></trkpt>
	<trkpt lat="51.928245" lon="-1.979261667"><ele>292.000000</ele><time>2010-08-18T10:53:57Z</time></trkpt>
	<trkpt lat="51.92829167" lon="-1.979241667"><ele>293.000000</ele><time>2010-08-18T10:54:02Z</time></trkpt>
	<trkpt lat="51.928345" lon="-1.979225"><ele>292.000000</ele><time>2010-08-18T10:54:07Z</time></trkpt>
	<trkpt lat="51.92839833" lon="-1.979215"><ele>292.000000</ele><time>2010-08-18T10:54:12Z</time></trkpt>
	<trkpt lat="51.92845" lon="-1.979198333"><ele>292.000000</ele><time>2010-08-18T10:54:17Z</time></trkpt>
	<trkpt lat="51.92850167" lon="-1.97918"><ele>292.000000</ele><time>2010-08-18T10:54:22Z</time></trkpt>
	<trkpt lat="51.92855333" lon="-1.979163333"><ele>292.000000</ele><time>2010-08-18T10:54:27Z</time></trkpt>
	<trkpt lat="51.928605" lon="-1.979145"><ele>291.000000</ele><time>2010-08-18T10:54:32Z</time></trkpt>
	<trkpt lat="51.92865667" lon="-1.97913"><ele>291.000000</ele><time>2010-08-18T10:54:37Z</time></trkpt>
	<trkpt lat="51.928705" lon="-1.979125"><ele>291.000000</ele><time>2010-08-18T10:54:42Z</time></trkpt>
	<trkpt lat="51.92874833" lon="-1.979111667"><ele>291.000000</ele><time>2010-08-18T10:54:47Z</time></trkpt>
	<trkpt lat="51.92877667" lon="-1.9791"><ele>291.000000</ele><time>2010-08-18T10:54:52Z</time></trkpt>
	<trkpt lat="51.92881333" lon="-1.979086667"><ele>292.000000</ele><time>2010-08-18T10:54:57Z</time></trkpt>
	<trkpt lat="51.92885167" lon="-1.979071667"><ele>292.000000</ele><time>2010-08-18T10:55:02Z</time></trkpt>
	<trkpt lat="51.9289" lon="-1.979053333"><ele>292.000000</ele><time>2010-08-18T10:55:07Z</time></trkpt>
	<trkpt lat="51.92894833" lon="-1.979036667"><ele>291.000000</ele><time>2010-08-18T10:55:12Z</time></trkpt>
	<trkpt lat="51.928975" lon="-1.979043333"><ele>289.000000</ele><time>2010-08-18T10:55:17Z</time></trkpt>
	<trkpt lat="51.92901833" lon="-1.97902"><ele>289.000000</ele><time>2010-08-18T10:55:22Z</time></trkpt>
	<trkpt lat="51.92906833" lon="-1.978998333"><ele>289.000000</ele><time>2010-08-18T10:55:27Z</time></trkpt>
	<trkpt lat="51.92911167" lon="-1.97897"><ele>289.000000</ele><time>2010-08-18T10:55:32Z</time></trkpt>
	<trkpt lat="51.929155" lon="-1.978936667"><ele>289.000000</ele><time>2010-08-18T10:55:37Z</time></trkpt>
	<trkpt lat="51.92919833" lon="-1.978896667"><ele>289.000000</ele><time>2010-08-18T10:55:42Z</time></trkpt>
	<trkpt lat="51.92924667" lon="-1.978856667"><ele>288.000000</ele><time>2010-08-18T10:55:47Z</time></trkpt>
	<trkpt lat="51.92929667" lon="-1.978823333"><ele>288.000000</ele><time>2010-08-18T10:55:52Z</time></trkpt>
	<trkpt lat="51.92934167" lon="-1.978786667"><ele>287.000000</ele><time>2010-08-18T10:55:57Z</time></trkpt>
	<trkpt lat="51.92939" lon="-1.978755"><ele>286.000000</ele><time>2010-08-18T10:56:02Z</time></trkpt>
	<trkpt lat="51.92943833" lon="-1.97872"><ele>286.000000</ele><time>2010-08-18T10:56:07Z</time></trkpt>
	<trkpt lat="51.92948667" lon="-1.978688333"><ele>285.000000</ele><time>2010-08-18T10:56:12Z</time></trkpt>
	<trkpt lat="51.92954167" lon="-1.978651667"><ele>284.000000</ele><time>2010-08-18T10:56:17Z</time></trkpt>
	<trkpt lat="51.9296" lon="-1.978616667"><ele>283.000000</ele><time>2010-08-18T10:56:22Z</time></trkpt>
	<trkpt lat="51.929645" lon="-1.978581667"><ele>282.000000</ele><time>2010-08-18T10:56:27Z</time></trkpt>
	<trkpt lat="51.92969833" lon="-1.978558333"><ele>282.000000</ele><time>2010-08-18T10:56:32Z</time></trkpt>
	<trkpt lat="51.929745" lon="-1.978528333"><ele>282.000000</ele><time>2010-08-18T10:56:37Z</time></trkpt>
	<trkpt lat="51.92978667" lon="-1.97851"><ele>282.000000</ele><time>2010-08-18T10:56:42Z</time></trkpt>
	<trkpt lat="51.92983333" lon="-1.978461667"><ele>281.000000</ele><time>2010-08-18T10:56:47Z</time></trkpt>
	<trkpt lat="51.92987833" lon="-1.978443333"><ele>282.000000</ele><time>2010-08-18T10:56:52Z</time></trkpt>
	<trkpt lat="51.92991833" lon="-1.978423333"><ele>282.000000</ele><time>2010-08-18T10:56:57Z</time></trkpt>
	<trkpt lat="51.92994333" lon="-1.97838"><ele>283.000000</ele><time>2010-08-18T10:57:02Z</time></trkpt>
	<trkpt lat="51.92997667" lon="-1.978353333"><ele>283.000000</ele><time>2010-08-18T10:57:07Z</time></trkpt>
	<trkpt lat="51.93001333" lon="-1.978301667"><ele>283.000000</ele><time>2010-08-18T10:57:12Z</time></trkpt>
	<trkpt lat="51.93005667" lon="-1.978251667"><ele>283.000000</ele><time>2010-08-18T10:57:17Z</time></trkpt>
	<trkpt lat="51.930105" lon="-1.978193333"><ele>282.000000</ele><time>2010-08-18T10:57:22Z</time></trkpt>
	<trkpt lat="51.93015333" lon="-1.978153333"><ele>281.000000</ele><time>2010-08-18T10:57:27Z</time></trkpt>
	<trkpt lat="51.93020167" lon="-1.978138333"><ele>281.000000</ele><time>2010-08-18T10:57:32Z</time></trkpt>
	<trkpt lat="51.93024" lon="-1.978128333"><ele>282.000000</ele><time>2010-08-18T10:57:37Z</time></trkpt>
	<trkpt lat="51.93029" lon="-1.978113333"><ele>282.000000</ele><time>2010-08-18T10:57:42Z</time></trkpt>
	<trkpt lat="51.930335" lon="-1.978073333"><ele>280.000000</ele><time>2010-08-18T10:57:47Z</time></trkpt>
	<trkpt lat="51.93038667" lon="-1.97804"><ele>280.000000</ele><time>2010-08-18T10:57:52Z</time></trkpt>
	<trkpt lat="51.93043667" lon="-1.977996667"><ele>279.000000</ele><time>2010-08-18T10:57:57Z</time></trkpt>
	<trkpt lat="51.93048667" lon="-1.977931667"><ele>276.000000</ele><time>2010-08-18T10:58:02Z</time></trkpt>
	<trkpt lat="51.93052667" lon="-1.977885"><ele>275.000000</ele><time>2010-08-18T10:58:07Z</time></trkpt>
	<trkpt lat="51.93057667" lon="-1.97782"><ele>274.000000</ele><time>2010-08-18T10:58:12Z</time></trkpt>
	<trkpt lat="51.93062667" lon="-1.97777"><ele>273.000000</ele><time>2010-08-18T10:58:17Z</time></trkpt>
	<trkpt lat="51.93068333" lon="-1.97772"><ele>273.000000</ele><time>2010-08-18T10:58:22Z</time></trkpt>
	<trkpt lat="51.93072833" lon="-1.977665"><ele>272.000000</ele><time>2010-08-18T10:58:27Z</time></trkpt>
	<trkpt lat="51.93076" lon="-1.97761"><ele>272.000000</ele><time>2010-08-18T10:58:32Z</time></trkpt>
	<trkpt lat="51.93079167" lon="-1.977556667"><ele>272.000000</ele><time>2010-08-18T10:58:37Z</time></trkpt>
	<trkpt lat="51.930835" lon="-1.977498333"><ele>271.000000</ele><time>2010-08-18T10:58:42Z</time></trkpt>
	<trkpt lat="51.93089167" lon="-1.977478333"><ele>270.000000</ele><time>2010-08-18T10:58:47Z</time></trkpt>
	<trkpt lat="51.930915" lon="-1.977431667"><ele>271.000000</ele><time>2010-08-18T10:58:52Z</time></trkpt>
	<trkpt lat="51.93093833" lon="-1.977383333"><ele>272.000000</ele><time>2010-08-18T10:58:57Z</time></trkpt>
	<trkpt lat="51.93095833" lon="-1.977353333"><ele>271.000000</ele><time>2010-08-18T10:59:02Z</time></trkpt>
	<trkpt lat="51.93096667" lon="-1.977326667"><ele>271.000000</ele><time>2010-08-18T10:59:07Z</time></trkpt>
	<trkpt lat="51.931055" lon="-1.977315"><ele>272.000000</ele><time>2010-08-18T10:59:12Z</time></trkpt>
	<trkpt lat="51.931165" lon="-1.97731"><ele>272.000000</ele><time>2010-08-18T10:59:17Z</time></trkpt>
	<trkpt lat="51.93124167" lon="-1.977298333"><ele>272.000000</ele><time>2010-08-18T10:59:22Z</time></trkpt>
	<trkpt lat="51.93129833" lon="-1.977283333"><ele>273.000000</ele><time>2010-08-18T10:59:27Z</time></trkpt>
	<trkpt lat="51.93137333" lon="-1.977301667"><ele>274.000000</ele><time>2010-08-18T10:59:32Z</time></trkpt>
	<trkpt lat="51.931395" lon="-1.977243333"><ele>272.000000</ele><time>2010-08-18T10:59:37Z</time></trkpt>
	<trkpt lat="51.93144833" lon="-1.977258333"><ele>270.000000</ele><time>2010-08-18T10:59:42Z</time></trkpt>
	<trkpt lat="51.931505" lon="-1.97727"><ele>270.000000</ele><time>2010-08-18T10:59:47Z</time></trkpt>
	<trkpt lat="51.93155667" lon="-1.977261667"><ele>269.000000</ele><time>2010-08-18T10:59:52Z</time></trkpt>
	<trkpt lat="51.93161167" lon="-1.977246667"><ele>267.000000</ele><time>2010-08-18T10:59:57Z</time></trkpt>
	<trkpt lat="51.93166167" lon="-1.977253333"><ele>267.000000</ele><time>2010-08-18T11:00:02Z</time></trkpt>
	<trkpt lat="51.93174333" lon="-1.977265"><ele>266.000000</ele><time>2010-08-18T11:00:07Z</time></trkpt>
	<trkpt lat="51.931845" lon="-1.977315"><ele>267.000000</ele><time>2010-08-18T11:00:12Z</time></trkpt>
	<trkpt lat="51.931875" lon="-1.97733"><ele>267.000000</ele><time>2010-08-18T11:00:17Z</time></trkpt>
	<trkpt lat="51.93194167" lon="-1.977325"><ele>266.000000</ele><time>2010-08-18T11:00:22Z</time></trkpt>
	<trkpt lat="51.93199167" lon="-1.977325"><ele>263.000000</ele><time>2010-08-18T11:00:27Z</time></trkpt>
	<trkpt lat="51.93203833" lon="-1.9773"><ele>259.000000</ele><time>2010-08-18T11:00:32Z</time></trkpt>
	<trkpt lat="51.93211333" lon="-1.977311667"><ele>256.000000</ele><time>2010-08-18T11:00:37Z</time></trkpt>
	<trkpt lat="51.93218167" lon="-1.977335"><ele>255.000000</ele><time>2010-08-18T11:00:42Z</time></trkpt>
	<trkpt lat="51.93223667" lon="-1.977345"><ele>255.000000</ele><time>2010-08-18T11:00:47Z</time></trkpt>
	<trkpt lat="51.93227167" lon="-1.977336667"><ele>254.000000</ele><time>2010-08-18T11:00:52Z</time></trkpt>
	<trkpt lat="51.93231667" lon="-1.97733"><ele>255.000000</ele><time>2010-08-18T11:00:57Z</time></trkpt>
	<trkpt lat="51.93237" lon="-1.977321667"><ele>254.000000</ele><time>2010-08-18T11:01:02Z</time></trkpt>
	<trkpt lat="51.93244333" lon="-1.977351667"><ele>256.000000</ele><time>2010-08-18T11:01:07Z</time></trkpt>
	<trkpt lat="51.93249167" lon="-1.97735"><ele>254.000000</ele><time>2010-08-18T11:01:12Z</time></trkpt>
	<trkpt lat="51.93253667" lon="-1.977311667"><ele>250.000000</ele><time>2010-08-18T11:01:17Z</time></trkpt>
	<trkpt lat="51.932585" lon="-1.977275"><ele>248.000000</ele><time>2010-08-18T11:01:22Z</time></trkpt>
	<trkpt lat="51.93266667" lon="-1.977246667"><ele>248.000000</ele><time>2010-08-18T11:01:27Z</time></trkpt>
	<trkpt lat="51.93274333" lon="-1.977203333"><ele>248.000000</ele><time>2010-08-18T11:01:32Z</time></trkpt>
	<trkpt lat="51.93278" lon="-1.977155"><ele>248.000000</ele><time>2010-08-18T11:01:37Z</time></trkpt>
	<trkpt lat="51.93284167" lon="-1.977126667"><ele>251.000000</ele><time>2010-08-18T11:01:42Z</time></trkpt>
	<trkpt lat="51.93287667" lon="-1.977083333"><ele>251.000000</ele><time>2010-08-18T11:01:47Z</time></trkpt>
	<trkpt lat="51.93290833" lon="-1.977018333"><ele>252.000000</ele><time>2010-08-18T11:01:52Z</time></trkpt>
	<trkpt lat="51.932945" lon="-1.976956667"><ele>253.000000</ele><time>2010-08-18T11:01:57Z</time></trkpt>
	<trkpt lat="51.93296667" lon="-1.976896667"><ele>255.000000</ele><time>2010-08-18T11:02:02Z</time></trkpt>
	<trkpt lat="51.933005" lon="-1.976828333"><ele>254.000000</ele><time>2010-08-18T11:02:07Z</time></trkpt>
	<trkpt lat="51.93302667" lon="-1.976786667"><ele>252.000000</ele><time>2010-08-18T11:02:12Z</time></trkpt>
	<trkpt lat="51.93305833" lon="-1.976733333"><ele>251.000000</ele><time>2010-08-18T11:02:17Z</time></trkpt>
	<trkpt lat="51.933095" lon="-1.976653333"><ele>249.000000</ele><time>2010-08-18T11:02:22Z</time></trkpt>
	<trkpt lat="51.93313" lon="-1.976585"><ele>250.000000</ele><time>2010-08-18T11:02:27Z</time></trkpt>
	<trkpt lat="51.93316667" lon="-1.976516667"><ele>251.000000</ele><time>2010-08-18T11:02:32Z</time></trkpt>
	<trkpt lat="51.93319333" lon="-1.976418333"><ele>248.000000</ele><time>2010-08-18T11:02:37Z</time></trkpt>
	<trkpt lat="51.93321667" lon="-1.976318333"><ele>248.000000</ele><time>2010-08-18T11:02:42Z</time></trkpt>
	<trkpt lat="51.93324667" lon="-1.976261667"><ele>250.000000</ele><time>2010-08-18T11:02:47Z</time></trkpt>
	<trkpt lat="51.933265" lon="-1.976161667"><ele>247.000000</ele><time>2010-08-18T11:02:52Z</time></trkpt>
	<trkpt lat="51.93330333" lon="-1.976073333"><ele>246.000000</ele><time>2010-08-18T11:02:57Z</time></trkpt>
	<trkpt lat="51.93334167" lon="-1.975995"><ele>247.000000</ele><time>2010-08-18T11:03:02Z</time></trkpt>
	<trkpt lat="51.93337333" lon="-1.975926667"><ele>248.000000</ele><time>2010-08-18T11:03:07Z</time></trkpt>
	<trkpt lat="51.933425" lon="-1.975861667"><ele>250.000000</ele><time>2010-08-18T11:03:12Z</time></trkpt>
	<trkpt lat="51.93346833" lon="-1.975815"><ele>252.000000</ele><time>2010-08-18T11:03:17Z</time></trkpt>
	<trkpt lat="51.93352167" lon="-1.97577"><ele>255.000000</ele><time>2010-08-18T11:03:22Z</time></trkpt>
	<trkpt lat="51.93355167" lon="-1.97572"><ele>253.000000</ele><time>2010-08-18T11:03:27Z</time></trkpt>
	<trkpt lat="51.93358" lon="-1.975645"><ele>251.000000</ele><time>2010-08-18T11:03:32Z</time></trkpt>
	<trkpt lat="51.93360167" lon="-1.975518333"><ele>246.000000</ele><time>2010-08-18T11:03:37Z</time></trkpt>
	<trkpt lat="51.933635" lon="-1.975411667"><ele>244.000000</ele><time>2010-08-18T11:03:42Z</time></trkpt>
	<trkpt lat="51.93367" lon="-1.975341667"><ele>243.000000</ele><time>2010-08-18T11:03:47Z</time></trkpt>
	<trkpt lat="51.93371333" lon="-1.97527"><ele>245.000000</ele><time>2010-08-18T11:03:52Z</time></trkpt>
	<trkpt lat="51.93376333" lon="-1.975215"><ele>246.000000</ele><time>2010-08-18T11:03:57Z</time></trkpt>
	<trkpt lat="51.933805" lon="-1.975148333"><ele>247.000000</ele><time>2010-08-18T11:04:02Z</time></trkpt>
	<trkpt lat="51.93383333" lon="-1.975111667"><ele>244.000000</ele><time>2010-08-18T11:04:07Z</time></trkpt>
	<trkpt lat="51.93386333" lon="-1.975085"><ele>245.000000</ele><time>2010-08-18T11:04:12Z</time></trkpt>
	<trkpt lat="51.93389" lon="-1.975068333"><ele>246.000000</ele><time>2010-08-18T11:04:17Z</time></trkpt>
	<trkpt lat="51.93391833" lon="-1.975013333"><ele>246.000000</ele><time>2010-08-18T11:04:22Z</time></trkpt>
	<trkpt lat="51.93393" lon="-1.974963333"><ele>247.000000</ele><time>2010-08-18T11:04:27Z</time></trkpt>
	<trkpt lat="51.93394667" lon="-1.974896667"><ele>245.000000</ele><time>2010-08-18T11:04:32Z</time></trkpt>
	<trkpt lat="51.93395667" lon="-1.974848333"><ele>244.000000</ele><time>2010-08-18T11:04:37Z</time></trkpt>
	<trkpt lat="51.93395667" lon="-1.974791667"><ele>237.000000</ele><time>2010-08-18T11:04:42Z</time></trkpt>
	<trkpt lat="51.93395833" lon="-1.974756667"><ele>236.000000</ele><time>2010-08-18T11:04:47Z</time></trkpt>
	<trkpt lat="51.93397167" lon="-1.974728333"><ele>237.000000</ele><time>2010-08-18T11:04:52Z</time></trkpt>
	<trkpt lat="51.933995" lon="-1.974696667"><ele>237.000000</ele><time>2010-08-18T11:04:57Z</time></trkpt>
	<trkpt lat="51.93403" lon="-1.974658333"><ele>236.000000</ele><time>2010-08-18T11:05:02Z</time></trkpt>
	<trkpt lat="51.934055" lon="-1.974623333"><ele>237.000000</ele><time>2010-08-18T11:05:07Z</time></trkpt>
	<trkpt lat="51.93406333" lon="-1.974568333"><ele>236.000000</ele><time>2010-08-18T11:05:12Z</time></trkpt>
	<trkpt lat="51.9341" lon="-1.974535"><ele>236.000000</ele><time>2010-08-18T11:05:17Z</time></trkpt>
	<trkpt lat="51.934125" lon="-1.974488333"><ele>234.000000</ele><time>2010-08-18T11:05:22Z</time></trkpt>
	<trkpt lat="51.934165" lon="-1.974441667"><ele>234.000000</ele><time>2010-08-18T11:05:27Z</time></trkpt>
	<trkpt lat="51.93419667" lon="-1.974395"><ele>235.000000</ele><time>2010-08-18T11:05:32Z</time></trkpt>
	<trkpt lat="51.93424167" lon="-1.974341667"><ele>236.000000</ele><time>2010-08-18T11:05:37Z</time></trkpt>
	<trkpt lat="51.93428833" lon="-1.97429"><ele>236.000000</ele><time>2010-08-18T11:05:42Z</time></trkpt>
	<trkpt lat="51.93435167" lon="-1.974258333"><ele>236.000000</ele><time>2010-08-18T11:05:47Z</time></trkpt>
	<trkpt lat="51.93440333" lon="-1.974221667"><ele>236.000000</ele><time>2010-08-18T11:05:52Z</time></trkpt>
	<trkpt lat="51.93444167" lon="-1.974183333"><ele>236.000000</ele><time>2010-08-18T11:05:57Z</time></trkpt>
	<trkpt lat="51.934485" lon="-1.974145"><ele>236.000000</ele><time>2010-08-18T11:06:02Z</time></trkpt>
	<trkpt lat="51.93452333" lon="-1.974098333"><ele>237.000000</ele><time>2010-08-18T11:06:07Z</time></trkpt>
	<trkpt lat="51.934565" lon="-1.974058333"><ele>237.000000</ele><time>2010-08-18T11:06:12Z</time></trkpt>
	<trkpt lat="51.934615" lon="-1.974028333"><ele>238.000000</ele><time>2010-08-18T11:06:17Z</time></trkpt>
	<trkpt lat="51.93465333" lon="-1.973993333"><ele>238.000000</ele><time>2010-08-18T11:06:22Z</time></trkpt>
	<trkpt lat="51.934685" lon="-1.973945"><ele>238.000000</ele><time>2010-08-18T11:06:27Z</time></trkpt>
	<trkpt lat="51.93471167" lon="-1.973878333"><ele>235.000000</ele><time>2010-08-18T11:06:32Z</time></trkpt>
	<trkpt lat="51.93475" lon="-1.973828333"><ele>234.000000</ele><time>2010-08-18T11:06:37Z</time></trkpt>
	<trkpt lat="51.93476833" lon="-1.973763333"><ele>232.000000</ele><time>2010-08-18T11:06:42Z</time></trkpt>
	<trkpt lat="51.93479667" lon="-1.973705"><ele>230.000000</ele><time>2010-08-18T11:06:47Z</time></trkpt>
	<trkpt lat="51.93484167" lon="-1.973653333"><ele>231.000000</ele><time>2010-08-18T11:06:52Z</time></trkpt>
	<trkpt lat="51.93489" lon="-1.973605"><ele>232.000000</ele><time>2010-08-18T11:06:57Z</time></trkpt>
	<trkpt lat="51.93492833" lon="-1.973571667"><ele>233.000000</ele><time>2010-08-18T11:07:02Z</time></trkpt>
	<trkpt lat="51.93495833" lon="-1.973501667"><ele>229.000000</ele><time>2010-08-18T11:07:07Z</time></trkpt>
	<trkpt lat="51.93496833" lon="-1.973418333"><ele>220.000000</ele><time>2010-08-18T11:07:12Z</time></trkpt>
	<trkpt lat="51.93496167" lon="-1.973386667"><ele>218.000000</ele><time>2010-08-18T11:07:17Z</time></trkpt>
	<trkpt lat="51.93497333" lon="-1.973373333"><ele>219.000000</ele><time>2010-08-18T11:07:22Z</time></trkpt>
	<trkpt lat="51.93495833" lon="-1.973355"><ele>219.000000</ele><time>2010-08-18T11:07:27Z</time></trkpt>
	<trkpt lat="51.93495667" lon="-1.97336"><ele>222.000000</ele><time>2010-08-18T11:07:32Z</time></trkpt>
	<trkpt lat="51.93495833" lon="-1.973363333"><ele>225.000000</ele><time>2010-08-18T11:07:37Z</time></trkpt>
	<trkpt lat="51.93491667" lon="-1.973341667"><ele>222.000000</ele><time>2010-08-18T11:07:42Z</time></trkpt>
	<trkpt lat="51.93492" lon="-1.973326667"><ele>225.000000</ele><time>2010-08-18T11:07:47Z</time></trkpt>
	<trkpt lat="51.93491667" lon="-1.973323333"><ele>226.000000</ele><time>2010-08-18T11:07:52Z</time></trkpt>
	<trkpt lat="51.93495333" lon="-1.973346667"><ele>229.000000</ele><time>2010-08-18T11:07:57Z</time></trkpt>
	<trkpt lat="51.93498667" lon="-1.973363333"><ele>230.000000</ele><time>2010-08-18T11:08:02Z</time></trkpt>
	<trkpt lat="51.93500333" lon="-1.973375"><ele>231.000000</ele><time>2010-08-18T11:08:07Z</time></trkpt>
	<trkpt lat="51.934995" lon="-1.97333"><ele>228.000000</ele><time>2010-08-18T11:08:12Z</time></trkpt>
	<trkpt lat="51.93500667" lon="-1.973288333"><ele>227.000000</ele><time>2010-08-18T11:08:17Z</time></trkpt>
	<trkpt lat="51.93503667" lon="-1.973255"><ele>224.000000</ele><time>2010-08-18T11:08:22Z</time></trkpt>
	<trkpt lat="51.93506667" lon="-1.973206667"><ele>219.000000</ele><time>2010-08-18T11:08:27Z</time></trkpt>
	<trkpt lat="51.93509667" lon="-1.973193333"><ele>215.000000</ele><time>2010-08-18T11:08:32Z</time></trkpt>
	<trkpt lat="51.93514667" lon="-1.973185"><ele>213.000000</ele><time>2010-08-18T11:08:37Z</time></trkpt>
	<trkpt lat="51.935165" lon="-1.973178333"><ele>212.000000</ele><time>2010-08-18T11:08:42Z</time></trkpt>
	<trkpt lat="51.93519167" lon="-1.97319"><ele>212.000000</ele><time>2010-08-18T11:08:47Z</time></trkpt>
	<trkpt lat="51.93523" lon="-1.973198333"><ele>210.000000</ele><time>2010-08-18T11:08:52Z</time></trkpt>
	<trkpt lat="51.93527667" lon="-1.973206667"><ele>209.000000</ele><time>2010-08-18T11:08:57Z</time></trkpt>
	<trkpt lat="51.93532667" lon="-1.97322"><ele>209.000000</ele><time>2010-08-18T11:09:02Z</time></trkpt>
	<trkpt lat="51.93538667" lon="-1.973225"><ele>208.000000</ele><time>2010-08-18T11:09:07Z</time></trkpt>
	<trkpt lat="51.93545167" lon="-1.973235"><ele>207.000000</ele><time>2010-08-18T11:09:12Z</time></trkpt>
	<trkpt lat="51.93551667" lon="-1.973243333"><ele>206.000000</ele><time>2010-08-18T11:09:17Z</time></trkpt>
	<trkpt lat="51.93557333" lon="-1.973255"><ele>206.000000</ele><time>2010-08-18T11:09:22Z</time></trkpt>
	<trkpt lat="51.93562167" lon="-1.973248333"><ele>205.000000</ele><time>2010-08-18T11:09:27Z</time></trkpt>
	<trkpt lat="51.93564333" lon="-1.973246667"><ele>205.000000</ele><time>2010-08-18T11:09:32Z</time></trkpt>
	<trkpt lat="51.93565" lon="-1.973248333"><ele>204.000000</ele><time>2010-08-18T11:09:37Z</time></trkpt>
	<trkpt lat="51.93564333" lon="-1.973248333"><ele>203.000000</ele><time>2010-08-18T11:09:42Z</time></trkpt>
	<trkpt lat="51.93564333" lon="-1.973245"><ele>203.000000</ele><time>2010-08-18T11:09:47Z</time></trkpt>
	<trkpt lat="51.93567167" lon="-1.973255"><ele>204.000000</ele><time>2010-08-18T11:09:52Z</time></trkpt>
	<trkpt lat="51.93571167" lon="-1.973255"><ele>203.000000</ele><time>2010-08-18T11:09:57Z</time></trkpt>
	<trkpt lat="51.93574833" lon="-1.973263333"><ele>203.000000</ele><time>2010-08-18T11:10:02Z</time></trkpt>
	<trkpt lat="51.93579667" lon="-1.973276667"><ele>202.000000</ele><time>2010-08-18T11:10:07Z</time></trkpt>
	<trkpt lat="51.935835" lon="-1.97328"><ele>202.000000</ele><time>2010-08-18T11:10:12Z</time></trkpt>
	<trkpt lat="51.93588333" lon="-1.973283333"><ele>201.000000</ele><time>2010-08-18T11:10:17Z</time></trkpt>
	<trkpt lat="51.93593" lon="-1.973286667"><ele>200.000000</ele><time>2010-08-18T11:10:22Z</time></trkpt>
	<trkpt lat="51.93597333" lon="-1.973293333"><ele>200.000000</ele><time>2010-08-18T11:10:27Z</time></trkpt>
	<trkpt lat="51.93602167" lon="-1.973298333"><ele>199.000000</ele><time>2010-08-18T11:10:32Z</time></trkpt>
	<trkpt lat="51.93607833" lon="-1.973311667"><ele>199.000000</ele><time>2010-08-18T11:10:37Z</time></trkpt>
	<trkpt lat="51.93612833" lon="-1.97332"><ele>198.000000</ele><time>2010-08-18T11:10:42Z</time></trkpt>
	<trkpt lat="51.936175" lon="-1.973318333"><ele>198.000000</ele><time>2010-08-18T11:10:47Z</time></trkpt>
	<trkpt lat="51.93622" lon="-1.973313333"><ele>196.000000</ele><time>2010-08-18T11:10:52Z</time></trkpt>
	<trkpt lat="51.93626667" lon="-1.973323333"><ele>195.000000</ele><time>2010-08-18T11:10:57Z</time></trkpt>
	<trkpt lat="51.93630333" lon="-1.973336667"><ele>195.000000</ele><time>2010-08-18T11:11:02Z</time></trkpt>
	<trkpt lat="51.93634833" lon="-1.973358333"><ele>195.000000</ele><time>2010-08-18T11:11:07Z</time></trkpt>
	<trkpt lat="51.93640167" lon="-1.973371667"><ele>195.000000</ele><time>2010-08-18T11:11:12Z</time></trkpt>
	<trkpt lat="51.93644333" lon="-1.973385"><ele>194.000000</ele><time>2010-08-18T11:11:17Z</time></trkpt>
	<trkpt lat="51.93648" lon="-1.9734"><ele>193.000000</ele><time>2010-08-18T11:11:22Z</time></trkpt>
	<trkpt lat="51.93651667" lon="-1.973415"><ele>191.000000</ele><time>2010-08-18T11:11:27Z</time></trkpt>
	<trkpt lat="51.93655833" lon="-1.973431667"><ele>191.000000</ele><time>2010-08-18T11:11:32Z</time></trkpt>
	<trkpt lat="51.93659833" lon="-1.973453333"><ele>190.000000</ele><time>2010-08-18T11:11:37Z</time></trkpt>
	<trkpt lat="51.93663" lon="-1.973465"><ele>189.000000</ele><time>2010-08-18T11:11:42Z</time></trkpt>
	<trkpt lat="51.93665667" lon="-1.973478333"><ele>189.000000</ele><time>2010-08-18T11:11:47Z</time></trkpt>
	<trkpt lat="51.93668833" lon="-1.97349"><ele>188.000000</ele><time>2010-08-18T11:11:52Z</time></trkpt>
	<trkpt lat="51.93672333" lon="-1.973503333"><ele>187.000000</ele><time>2010-08-18T11:11:57Z</time></trkpt>
	<trkpt lat="51.93676167" lon="-1.973518333"><ele>186.000000</ele><time>2010-08-18T11:12:02Z</time></trkpt>
	<trkpt lat="51.936805" lon="-1.973531667"><ele>186.000000</ele><time>2010-08-18T11:12:07Z</time></trkpt>
	<trkpt lat="51.93684" lon="-1.973548333"><ele>185.000000</ele><time>2010-08-18T11:12:12Z</time></trkpt>
	<trkpt lat="51.936885" lon="-1.973563333"><ele>184.000000</ele><time>2010-08-18T11:12:17Z</time></trkpt>
	<trkpt lat="51.936935" lon="-1.973581667"><ele>183.000000</ele><time>2010-08-18T11:12:22Z</time></trkpt>
	<trkpt lat="51.93698" lon="-1.973596667"><ele>182.000000</ele><time>2010-08-18T11:12:27Z</time></trkpt>
	<trkpt lat="51.93702" lon="-1.973613333"><ele>182.000000</ele><time>2010-08-18T11:12:32Z</time></trkpt>
	<trkpt lat="51.937065" lon="-1.97363"><ele>180.000000</ele><time>2010-08-18T11:12:37Z</time></trkpt>
	<trkpt lat="51.93710167" lon="-1.973643333"><ele>180.000000</ele><time>2010-08-18T11:12:42Z</time></trkpt>
	<trkpt lat="51.93714833" lon="-1.973636667"><ele>179.000000</ele><time>2010-08-18T11:12:47Z</time></trkpt>
	<trkpt lat="51.93718833" lon="-1.973645"><ele>179.000000</ele><time>2010-08-18T11:12:52Z</time></trkpt>
	<trkpt lat="51.93722" lon="-1.97365"><ele>177.000000</ele><time>2010-08-18T11:12:57Z</time></trkpt>
	<trkpt lat="51.93725167" lon="-1.97367"><ele>177.000000</ele><time>2010-08-18T11:13:02Z</time></trkpt>
	<trkpt lat="51.93729167" lon="-1.973693333"><ele>176.000000</ele><time>2010-08-18T11:13:07Z</time></trkpt>
	<trkpt lat="51.937335" lon="-1.973718333"><ele>176.000000</ele><time>2010-08-18T11:13:12Z</time></trkpt>
	<trkpt lat="51.93738" lon="-1.973748333"><ele>175.000000</ele><time>2010-08-18T11:13:17Z</time></trkpt>
	<trkpt lat="51.937425" lon="-1.973768333"><ele>174.000000</ele><time>2010-08-18T11:13:22Z</time></trkpt>
	<trkpt lat="51.937435" lon="-1.973771667"><ele>173.000000</ele><time>2010-08-18T11:13:27Z</time></trkpt>
	<trkpt lat="51.93744" lon="-1.973768333"><ele>173.000000</ele><time>2010-08-18T11:13:32Z</time></trkpt>
	<trkpt lat="51.93744333" lon="-1.973768333"><ele>173.000000</ele><time>2010-08-18T11:13:37Z</time></trkpt>
	<trkpt lat="51.937445" lon="-1.973765"><ele>173.000000</ele><time>2010-08-18T11:13:42Z</time></trkpt>
	<trkpt lat="51.93745" lon="-1.97376"><ele>173.000000</ele><time>2010-08-18T11:13:47Z</time></trkpt>
	<trkpt lat="51.93748" lon="-1.973753333"><ele>173.000000</ele><time>2010-08-18T11:13:52Z</time></trkpt>
	<trkpt lat="51.93755" lon="-1.973791667"><ele>172.000000</ele><time>2010-08-18T11:13:57Z</time></trkpt>
	<trkpt lat="51.93760333" lon="-1.973813333"><ele>172.000000</ele><time>2010-08-18T11:14:02Z</time></trkpt>
	<trkpt lat="51.93765333" lon="-1.973835"><ele>171.000000</ele><time>2010-08-18T11:14:07Z</time></trkpt>
	<trkpt lat="51.93769667" lon="-1.97385"><ele>170.000000</ele><time>2010-08-18T11:14:12Z</time></trkpt>
	<trkpt lat="51.937735" lon="-1.973856667"><ele>169.000000</ele><time>2010-08-18T11:14:17Z</time></trkpt>
	<trkpt lat="51.93777833" lon="-1.973863333"><ele>168.000000</ele><time>2010-08-18T11:14:22Z</time></trkpt>
	<trkpt lat="51.93783167" lon="-1.973875"><ele>168.000000</ele><time>2010-08-18T11:14:27Z</time></trkpt>
	<trkpt lat="51.93788167" lon="-1.973878333"><ele>167.000000</ele><time>2010-08-18T11:14:32Z</time></trkpt>
	<trkpt lat="51.93792667" lon="-1.973885"><ele>166.000000</ele><time>2010-08-18T11:14:37Z</time></trkpt>
	<trkpt lat="51.93797333" lon="-1.973888333"><ele>166.000000</ele><time>2010-08-18T11:14:42Z</time></trkpt>
	<trkpt lat="51.93802167" lon="-1.973893333"><ele>165.000000</ele><time>2010-08-18T11:14:47Z</time></trkpt>
	<trkpt lat="51.93806833" lon="-1.973898333"><ele>164.000000</ele><time>2010-08-18T11:14:52Z</time></trkpt>
	<trkpt lat="51.938115" lon="-1.973903333"><ele>163.000000</ele><time>2010-08-18T11:14:57Z</time></trkpt>
	<trkpt lat="51.93815667" lon="-1.973906667"><ele>163.000000</ele><time>2010-08-18T11:15:02Z</time></trkpt>
	<trkpt lat="51.93820333" lon="-1.973913333"><ele>162.000000</ele><time>2010-08-18T11:15:07Z</time></trkpt>
	<trkpt lat="51.93825167" lon="-1.973918333"><ele>161.000000</ele><time>2010-08-18T11:15:12Z</time></trkpt>
	<trkpt lat="51.93830333" lon="-1.973925"><ele>160.000000</ele><time>2010-08-18T11:15:17Z</time></trkpt>
	<trkpt lat="51.93835333" lon="-1.973933333"><ele>159.000000</ele><time>2010-08-18T11:15:22Z</time></trkpt>
	<trkpt lat="51.93840167" lon="-1.973945"><ele>159.000000</ele><time>2010-08-18T11:15:27Z</time></trkpt>
	<trkpt lat="51.93844667" lon="-1.973958333"><ele>158.000000</ele><time>2010-08-18T11:15:32Z</time></trkpt>
	<trkpt lat="51.93849167" lon="-1.973973333"><ele>158.000000</ele><time>2010-08-18T11:15:37Z</time></trkpt>
	<trkpt lat="51.93854167" lon="-1.973991667"><ele>157.000000</ele><time>2010-08-18T11:15:42Z</time></trkpt>
	<trkpt lat="51.93859167" lon="-1.974011667"><ele>157.000000</ele><time>2010-08-18T11:15:47Z</time></trkpt>
	<trkpt lat="51.93864" lon="-1.974031667"><ele>157.000000</ele><time>2010-08-18T11:15:52Z</time></trkpt>
	<trkpt lat="51.93869167" lon="-1.97405"><ele>156.000000</ele><time>2010-08-18T11:15:57Z</time></trkpt>
	<trkpt lat="51.93874167" lon="-1.974071667"><ele>155.000000</ele><time>2010-08-18T11:16:02Z</time></trkpt>
	<trkpt lat="51.93879" lon="-1.97409"><ele>154.000000</ele><time>2010-08-18T11:16:07Z</time></trkpt>
	<trkpt lat="51.93883667" lon="-1.974111667"><ele>153.000000</ele><time>2010-08-18T11:16:12Z</time></trkpt>
	<trkpt lat="51.93888333" lon="-1.974133333"><ele>153.000000</ele><time>2010-08-18T11:16:17Z</time></trkpt>
	<trkpt lat="51.93893167" lon="-1.974156667"><ele>152.000000</ele><time>2010-08-18T11:16:22Z</time></trkpt>
	<trkpt lat="51.93898333" lon="-1.974181667"><ele>151.000000</ele><time>2010-08-18T11:16:27Z</time></trkpt>
	<trkpt lat="51.93903333" lon="-1.974201667"><ele>151.000000</ele><time>2010-08-18T11:16:32Z</time></trkpt>
	<trkpt lat="51.93908" lon="-1.974221667"><ele>150.000000</ele><time>2010-08-18T11:16:37Z</time></trkpt>
	<trkpt lat="51.93912667" lon="-1.974243333"><ele>149.000000</ele><time>2010-08-18T11:16:42Z</time></trkpt>
	<trkpt lat="51.93917333" lon="-1.974258333"><ele>148.000000</ele><time>2010-08-18T11:16:47Z</time></trkpt>
	<trkpt lat="51.93922167" lon="-1.974273333"><ele>147.000000</ele><time>2010-08-18T11:16:52Z</time></trkpt>
	<trkpt lat="51.93926833" lon="-1.974293333"><ele>146.000000</ele><time>2010-08-18T11:16:57Z</time></trkpt>
	<trkpt lat="51.93929" lon="-1.974306667"><ele>146.000000</ele><time>2010-08-18T11:17:02Z</time></trkpt>
	<trkpt lat="51.93933167" lon="-1.974318333"><ele>145.000000</ele><time>2010-08-18T11:17:07Z</time></trkpt>
	<trkpt lat="51.93938167" lon="-1.974328333"><ele>145.000000</ele><time>2010-08-18T11:17:12Z</time></trkpt>
	<trkpt lat="51.939435" lon="-1.97433"><ele>144.000000</ele><time>2010-08-18T11:17:17Z</time></trkpt>
	<trkpt lat="51.93948833" lon="-1.974326667"><ele>143.000000</ele><time>2010-08-18T11:17:22Z</time></trkpt>
	<trkpt lat="51.93954333" lon="-1.974326667"><ele>143.000000</ele><time>2010-08-18T11:17:27Z</time></trkpt>
	<trkpt lat="51.93959667" lon="-1.974328333"><ele>142.000000</ele><time>2010-08-18T11:17:32Z</time></trkpt>
	<trkpt lat="51.93965" lon="-1.974331667"><ele>142.000000</ele><time>2010-08-18T11:17:37Z</time></trkpt>
	<trkpt lat="51.93969833" lon="-1.974333333"><ele>141.000000</ele><time>2010-08-18T11:17:42Z</time></trkpt>
	<trkpt lat="51.93975" lon="-1.974328333"><ele>141.000000</ele><time>2010-08-18T11:17:47Z</time></trkpt>
	<trkpt lat="51.93980167" lon="-1.97433"><ele>141.000000</ele><time>2010-08-18T11:17:52Z</time></trkpt>
	<trkpt lat="51.93984833" lon="-1.974326667"><ele>141.000000</ele><time>2010-08-18T11:17:57Z</time></trkpt>
	<trkpt lat="51.9399" lon="-1.974321667"><ele>141.000000</ele><time>2010-08-18T11:18:02Z</time></trkpt>
	<trkpt lat="51.93993667" lon="-1.974321667"><ele>140.000000</ele><time>2010-08-18T11:18:07Z</time></trkpt>
	<trkpt lat="51.93998833" lon="-1.974321667"><ele>140.000000</ele><time>2010-08-18T11:18:12Z</time></trkpt>
	<trkpt lat="51.94004167" lon="-1.974328333"><ele>139.000000</ele><time>2010-08-18T11:18:17Z</time></trkpt>
	<trkpt lat="51.94009" lon="-1.97433"><ele>138.000000</ele><time>2010-08-18T11:18:22Z</time></trkpt>
	<trkpt lat="51.94014667" lon="-1.97432"><ele>137.000000</ele><time>2010-08-18T11:18:27Z</time></trkpt>
	<trkpt lat="51.940195" lon="-1.974311667"><ele>136.000000</ele><time>2010-08-18T11:18:32Z</time></trkpt>
	<trkpt lat="51.940245" lon="-1.97429"><ele>136.000000</ele><time>2010-08-18T11:18:37Z</time></trkpt>
	<trkpt lat="51.940275" lon="-1.974261667"><ele>136.000000</ele><time>2010-08-18T11:18:42Z</time></trkpt>
	<trkpt lat="51.94028167" lon="-1.974268333"><ele>136.000000</ele><time>2010-08-18T11:18:47Z</time></trkpt>
	<trkpt lat="51.94029333" lon="-1.974296667"><ele>136.000000</ele><time>2010-08-18T11:18:52Z</time></trkpt>
	<trkpt lat="51.94030833" lon="-1.974301667"><ele>136.000000</ele><time>2010-08-18T11:18:57Z</time></trkpt>
	<trkpt lat="51.94033" lon="-1.974326667"><ele>137.000000</ele><time>2010-08-18T11:19:02Z</time></trkpt>
	<trkpt lat="51.940355" lon="-1.974326667"><ele>138.000000</ele><time>2010-08-18T11:19:07Z</time></trkpt>
	<trkpt lat="51.94038" lon="-1.974333333"><ele>138.000000</ele><time>2010-08-18T11:19:12Z</time></trkpt>
	<trkpt lat="51.94041833" lon="-1.974288333"><ele>137.000000</ele><time>2010-08-18T11:19:17Z</time></trkpt>
	<trkpt lat="51.94046167" lon="-1.974245"><ele>137.000000</ele><time>2010-08-18T11:19:22Z</time></trkpt>
	<trkpt lat="51.94050333" lon="-1.974213333"><ele>137.000000</ele><time>2010-08-18T11:19:27Z</time></trkpt>
	<trkpt lat="51.94054833" lon="-1.974181667"><ele>137.000000</ele><time>2010-08-18T11:19:32Z</time></trkpt>
	<trkpt lat="51.9406" lon="-1.974163333"><ele>137.000000</ele><time>2010-08-18T11:19:37Z</time></trkpt>
	<trkpt lat="51.940655" lon="-1.974146667"><ele>137.000000</ele><time>2010-08-18T11:19:42Z</time></trkpt>
	<trkpt lat="51.94070333" lon="-1.97413"><ele>137.000000</ele><time>2010-08-18T11:19:47Z</time></trkpt>
	<trkpt lat="51.94075833" lon="-1.974115"><ele>137.000000</ele><time>2010-08-18T11:19:52Z</time></trkpt>
	<trkpt lat="51.94081" lon="-1.974096667"><ele>136.000000</ele><time>2010-08-18T11:19:57Z</time></trkpt>
	<trkpt lat="51.940865" lon="-1.974081667"><ele>135.000000</ele><time>2010-08-18T11:20:02Z</time></trkpt>
	<trkpt lat="51.940915" lon="-1.97407"><ele>135.000000</ele><time>2010-08-18T11:20:07Z</time></trkpt>
	<trkpt lat="51.94096333" lon="-1.974055"><ele>135.000000</ele><time>2010-08-18T11:20:12Z</time></trkpt>
	<trkpt lat="51.94101167" lon="-1.974038333"><ele>135.000000</ele><time>2010-08-18T11:20:17Z</time></trkpt>
	<trkpt lat="51.941065" lon="-1.974021667"><ele>135.000000</ele><time>2010-08-18T11:20:22Z</time></trkpt>
	<trkpt lat="51.94112" lon="-1.974005"><ele>134.000000</ele><time>2010-08-18T11:20:27Z</time></trkpt>
	<trkpt lat="51.94117667" lon="-1.973985"><ele>134.000000</ele><time>2010-08-18T11:20:32Z</time></trkpt>
	<trkpt lat="51.94122667" lon="-1.973968333"><ele>133.000000</ele><time>2010-08-18T11:20:37Z</time></trkpt>
	<trkpt lat="51.94128" lon="-1.973948333"><ele>133.000000</ele><time>2010-08-18T11:20:42Z</time></trkpt>
	<trkpt lat="51.94133833" lon="-1.973931667"><ele>133.000000</ele><time>2010-08-18T11:20:47Z</time></trkpt>
	<trkpt lat="51.94139833" lon="-1.973915"><ele>132.000000</ele><time>2010-08-18T11:20:52Z</time></trkpt>
	<trkpt lat="51.941455" lon="-1.9739"><ele>131.000000</ele><time>2010-08-18T11:20:57Z</time></trkpt>
	<trkpt lat="51.94151167" lon="-1.973885"><ele>131.000000</ele><time>2010-08-18T11:21:02Z</time></trkpt>
	<trkpt lat="51.94156667" lon="-1.973868333"><ele>130.000000</ele><time>2010-08-18T11:21:07Z</time></trkpt>
	<trkpt lat="51.94162333" lon="-1.97385"><ele>129.000000</ele><time>2010-08-18T11:21:12Z</time></trkpt>
	<trkpt lat="51.94167667" lon="-1.973835"><ele>129.000000</ele><time>2010-08-18T11:21:17Z</time></trkpt>
	<trkpt lat="51.941735" lon="-1.97382"><ele>128.000000</ele><time>2010-08-18T11:21:22Z</time></trkpt>
	<trkpt lat="51.94179167" lon="-1.973801667"><ele>128.000000</ele><time>2010-08-18T11:21:27Z</time></trkpt>
	<trkpt lat="51.94184833" lon="-1.973785"><ele>128.000000</ele><time>2010-08-18T11:21:32Z</time></trkpt>
	<trkpt lat="51.94190667" lon="-1.973765"><ele>127.000000</ele><time>2010-08-18T11:21:37Z</time></trkpt>
	<trkpt lat="51.94196667" lon="-1.973748333"><ele>126.000000</ele><time>2010-08-18T11:21:42Z</time></trkpt>
	<trkpt lat="51.94202833" lon="-1.973726667"><ele>126.000000</ele><time>2010-08-18T11:21:47Z</time></trkpt>
	<trkpt lat="51.942085" lon="-1.973711667"><ele>125.000000</ele><time>2010-08-18T11:21:52Z</time></trkpt>
	<trkpt lat="51.94214333" lon="-1.973691667"><ele>125.000000</ele><time>2010-08-18T11:21:57Z</time></trkpt>
	<trkpt lat="51.94219833" lon="-1.973673333"><ele>124.000000</ele><time>2010-08-18T11:22:02Z</time></trkpt>
	<trkpt lat="51.94225667" lon="-1.973656667"><ele>124.000000</ele><time>2010-08-18T11:22:07Z</time></trkpt>
	<trkpt lat="51.94231667" lon="-1.973636667"><ele>123.000000</ele><time>2010-08-18T11:22:12Z</time></trkpt>
	<trkpt lat="51.94237333" lon="-1.973621667"><ele>123.000000</ele><time>2010-08-18T11:22:17Z</time></trkpt>
	<trkpt lat="51.94242833" lon="-1.973601667"><ele>123.000000</ele><time>2010-08-18T11:22:22Z</time></trkpt>
	<trkpt lat="51.94247833" lon="-1.973585"><ele>123.000000</ele><time>2010-08-18T11:22:27Z</time></trkpt>
	<trkpt lat="51.94248833" lon="-1.973581667"><ele>123.000000</ele><time>2010-08-18T11:22:32Z</time></trkpt>
	<trkpt lat="51.94251833" lon="-1.973581667"><ele>123.000000</ele><time>2010-08-18T11:22:37Z</time></trkpt>
	<trkpt lat="51.94252833" lon="-1.973581667"><ele>122.000000</ele><time>2010-08-18T11:22:42Z</time></trkpt>
	<trkpt lat="51.94254333" lon="-1.973576667"><ele>122.000000</ele><time>2010-08-18T11:22:47Z</time></trkpt>
	<trkpt lat="51.94259167" lon="-1.973556667"><ele>122.000000</ele><time>2010-08-18T11:22:52Z</time></trkpt>
	<trkpt lat="51.94264333" lon="-1.97354"><ele>122.000000</ele><time>2010-08-18T11:22:57Z</time></trkpt>
	<trkpt lat="51.94269667" lon="-1.973521667"><ele>122.000000</ele><time>2010-08-18T11:23:02Z</time></trkpt>
	<trkpt lat="51.94274833" lon="-1.973508333"><ele>122.000000</ele><time>2010-08-18T11:23:07Z</time></trkpt>
	<trkpt lat="51.942805" lon="-1.97349"><ele>122.000000</ele><time>2010-08-18T11:23:12Z</time></trkpt>
	<trkpt lat="51.94286333" lon="-1.973475"><ele>121.000000</ele><time>2010-08-18T11:23:17Z</time></trkpt>
	<trkpt lat="51.94291667" lon="-1.97346"><ele>121.000000</ele><time>2010-08-18T11:23:22Z</time></trkpt>
	<trkpt lat="51.94297333" lon="-1.973445"><ele>121.000000</ele><time>2010-08-18T11:23:27Z</time></trkpt>
	<trkpt lat="51.94303333" lon="-1.973428333"><ele>121.000000</ele><time>2010-08-18T11:23:32Z</time></trkpt>
	<trkpt lat="51.94309" lon="-1.973416667"><ele>121.000000</ele><time>2010-08-18T11:23:37Z</time></trkpt>
	<trkpt lat="51.94315" lon="-1.973401667"><ele>120.000000</ele><time>2010-08-18T11:23:42Z</time></trkpt>
	<trkpt lat="51.943195" lon="-1.973408333"><ele>120.000000</ele><time>2010-08-18T11:23:47Z</time></trkpt>
	<trkpt lat="51.94322667" lon="-1.973416667"><ele>119.000000</ele><time>2010-08-18T11:23:52Z</time></trkpt>
	<trkpt lat="51.94323833" lon="-1.973396667"><ele>119.000000</ele><time>2010-08-18T11:23:57Z</time></trkpt>
	<trkpt lat="51.94328667" lon="-1.973368333"><ele>119.000000</ele><time>2010-08-18T11:24:02Z</time></trkpt>
	<trkpt lat="51.94334" lon="-1.973346667"><ele>119.000000</ele><time>2010-08-18T11:24:07Z</time></trkpt>
	<trkpt lat="51.94339667" lon="-1.973331667"><ele>119.000000</ele><time>2010-08-18T11:24:12Z</time></trkpt>
	<trkpt lat="51.943455" lon="-1.973315"><ele>119.000000</ele><time>2010-08-18T11:24:17Z</time></trkpt>
	<trkpt lat="51.94350833" lon="-1.973293333"><ele>119.000000</ele><time>2010-08-18T11:24:22Z</time></trkpt>
	<trkpt lat="51.943565" lon="-1.97328"><ele>119.000000</ele><time>2010-08-18T11:24:27Z</time></trkpt>
	<trkpt lat="51.94362167" lon="-1.973263333"><ele>118.000000</ele><time>2010-08-18T11:24:32Z</time></trkpt>
	<trkpt lat="51.94367833" lon="-1.973245"><ele>118.000000</ele><time>2010-08-18T11:24:37Z</time></trkpt>
	<trkpt lat="51.94373333" lon="-1.973235"><ele>118.000000</ele><time>2010-08-18T11:24:42Z</time></trkpt>
	<trkpt lat="51.94379" lon="-1.973226667"><ele>118.000000</ele><time>2010-08-18T11:24:47Z</time></trkpt>
	<trkpt lat="51.94384667" lon="-1.97323"><ele>118.000000</ele><time>2010-08-18T11:24:52Z</time></trkpt>
	<trkpt lat="51.943895" lon="-1.973235"><ele>119.000000</ele><time>2010-08-18T11:24:57Z</time></trkpt>
	<trkpt lat="51.94395167" lon="-1.97324"><ele>119.000000</ele><time>2010-08-18T11:25:02Z</time></trkpt>
	<trkpt lat="51.94400333" lon="-1.973253333"><ele>120.000000</ele><time>2010-08-18T11:25:07Z</time></trkpt>
	<trkpt lat="51.944055" lon="-1.973261667"><ele>120.000000</ele><time>2010-08-18T11:25:12Z</time></trkpt>
	<trkpt lat="51.94410667" lon="-1.973265"><ele>120.000000</ele><time>2010-08-18T11:25:17Z</time></trkpt>
	<trkpt lat="51.94415833" lon="-1.973271667"><ele>120.000000</ele><time>2010-08-18T11:25:22Z</time></trkpt>
	<trkpt lat="51.944215" lon="-1.973248333"><ele>120.000000</ele><time>2010-08-18T11:25:27Z</time></trkpt>
	<trkpt lat="51.94425667" lon="-1.973196667"><ele>120.000000</ele><time>2010-08-18T11:25:32Z</time></trkpt>
	<trkpt lat="51.94428167" lon="-1.973135"><ele>121.000000</ele><time>2010-08-18T11:25:37Z</time></trkpt>
	<trkpt lat="51.94431333" lon="-1.973063333"><ele>121.000000</ele><time>2010-08-18T11:25:42Z</time></trkpt>
	<trkpt lat="51.94433667" lon="-1.97299"><ele>122.000000</ele><time>2010-08-18T11:25:47Z</time></trkpt>
	<trkpt lat="51.94435167" lon="-1.972935"><ele>124.000000</ele><time>2010-08-18T11:25:52Z</time></trkpt>
	<trkpt lat="51.94438167" lon="-1.972896667"><ele>125.000000</ele><time>2010-08-18T11:25:57Z</time></trkpt>
	<trkpt lat="51.94442667" lon="-1.972863333"><ele>125.000000</ele><time>2010-08-18T11:26:02Z</time></trkpt>
	<trkpt lat="51.94447667" lon="-1.972833333"><ele>125.000000</ele><time>2010-08-18T11:26:07Z</time></trkpt>
	<trkpt lat="51.94451667" lon="-1.972803333"><ele>126.000000</ele><time>2010-08-18T11:26:12Z</time></trkpt>
	<trkpt lat="51.94457167" lon="-1.97279"><ele>125.000000</ele><time>2010-08-18T11:26:17Z</time></trkpt>
	<trkpt lat="51.94462167" lon="-1.97277"><ele>125.000000</ele><time>2010-08-18T11:26:22Z</time></trkpt>
	<trkpt lat="51.94467" lon="-1.972751667"><ele>125.000000</ele><time>2010-08-18T11:26:27Z</time></trkpt>
	<trkpt lat="51.94472167" lon="-1.97274"><ele>124.000000</ele><time>2010-08-18T11:26:32Z</time></trkpt>
	<trkpt lat="51.944765" lon="-1.97273"><ele>124.000000</ele><time>2010-08-18T11:26:37Z</time></trkpt>
	<trkpt lat="51.94480167" lon="-1.972723333"><ele>126.000000</ele><time>2010-08-18T11:26:42Z</time></trkpt>
	<trkpt lat="51.944845" lon="-1.972711667"><ele>127.000000</ele><time>2010-08-18T11:26:47Z</time></trkpt>
	<trkpt lat="51.9449" lon="-1.9727"><ele>127.000000</ele><time>2010-08-18T11:26:52Z</time></trkpt>
	<trkpt lat="51.94492833" lon="-1.972686667"><ele>127.000000</ele><time>2010-08-18T11:26:57Z</time></trkpt>
	<trkpt lat="51.944985" lon="-1.972671667"><ele>125.000000</ele><time>2010-08-18T11:27:02Z</time></trkpt>
	<trkpt lat="51.94504833" lon="-1.972655"><ele>125.000000</ele><time>2010-08-18T11:27:07Z</time></trkpt>
	<trkpt lat="51.94513833" lon="-1.972651667"><ele>122.000000</ele><time>2010-08-18T11:27:12Z</time></trkpt>
	<trkpt lat="51.94517667" lon="-1.972635"><ele>122.000000</ele><time>2010-08-18T11:27:17Z</time></trkpt>
	<trkpt lat="51.94524" lon="-1.972628333"><ele>122.000000</ele><time>2010-08-18T11:27:22Z</time></trkpt>
	<trkpt lat="51.94531333" lon="-1.972628333"><ele>122.000000</ele><time>2010-08-18T11:27:27Z</time></trkpt>
	<trkpt lat="51.94539167" lon="-1.972623333"><ele>122.000000</ele><time>2010-08-18T11:27:32Z</time></trkpt>
	<trkpt lat="51.94544833" lon="-1.972616667"><ele>122.000000</ele><time>2010-08-18T11:27:37Z</time></trkpt>
	<trkpt lat="51.94549667" lon="-1.972621667"><ele>122.000000</ele><time>2010-08-18T11:27:42Z</time></trkpt>
	<trkpt lat="51.94557333" lon="-1.972633333"><ele>121.000000</ele><time>2010-08-18T11:27:47Z</time></trkpt>
	<trkpt lat="51.94568667" lon="-1.972646667"><ele>120.000000</ele><time>2010-08-18T11:27:52Z</time></trkpt>
	<trkpt lat="51.94576167" lon="-1.972658333"><ele>121.000000</ele><time>2010-08-18T11:27:57Z</time></trkpt>
	<trkpt lat="51.94580333" lon="-1.972665"><ele>121.000000</ele><time>2010-08-18T11:28:02Z</time></trkpt>
	<trkpt lat="51.94589167" lon="-1.972678333"><ele>121.000000</ele><time>2010-08-18T11:28:07Z</time></trkpt>
	<trkpt lat="51.94596667" lon="-1.972686667"><ele>122.000000</ele><time>2010-08-18T11:28:12Z</time></trkpt>
	<trkpt lat="51.94603167" lon="-1.972701667"><ele>122.000000</ele><time>2010-08-18T11:28:17Z</time></trkpt>
	<trkpt lat="51.94611333" lon="-1.972721667"><ele>122.000000</ele><time>2010-08-18T11:28:22Z</time></trkpt>
	<trkpt lat="51.94617" lon="-1.97274"><ele>121.000000</ele><time>2010-08-18T11:28:27Z</time></trkpt>
	<trkpt lat="51.94622333" lon="-1.97275"><ele>121.000000</ele><time>2010-08-18T11:28:32Z</time></trkpt>
	<trkpt lat="51.946265" lon="-1.97276"><ele>121.000000</ele><time>2010-08-18T11:28:37Z</time></trkpt>
	<trkpt lat="51.94630667" lon="-1.972773333"><ele>121.000000</ele><time>2010-08-18T11:28:42Z</time></trkpt>
	<trkpt lat="51.94636667" lon="-1.97279"><ele>121.000000</ele><time>2010-08-18T11:28:47Z</time></trkpt>
	<trkpt lat="51.946455" lon="-1.972811667"><ele>122.000000</ele><time>2010-08-18T11:28:52Z</time></trkpt>
	<trkpt lat="51.94652833" lon="-1.972836667"><ele>122.000000</ele><time>2010-08-18T11:28:57Z</time></trkpt>
	<trkpt lat="51.946595" lon="-1.972878333"><ele>121.000000</ele><time>2010-08-18T11:29:02Z</time></trkpt>
	<trkpt lat="51.94663" lon="-1.972906667"><ele>120.000000</ele><time>2010-08-18T11:29:07Z</time></trkpt>
	<trkpt lat="51.94671833" lon="-1.972901667"><ele>119.000000</ele><time>2010-08-18T11:29:12Z</time></trkpt>
	<trkpt lat="51.94674833" lon="-1.972905"><ele>120.000000</ele><time>2010-08-18T11:29:17Z</time></trkpt>
	<trkpt lat="51.94681333" lon="-1.972933333"><ele>121.000000</ele><time>2010-08-18T11:29:22Z</time></trkpt>
	<trkpt lat="51.946885" lon="-1.972958333"><ele>121.000000</ele><time>2010-08-18T11:29:27Z</time></trkpt>
	<trkpt lat="51.94693667" lon="-1.972978333"><ele>121.000000</ele><time>2010-08-18T11:29:32Z</time></trkpt>
	<trkpt lat="51.94698333" lon="-1.973003333"><ele>121.000000</ele><time>2010-08-18T11:29:37Z</time></trkpt>
	<trkpt lat="51.94703167" lon="-1.973028333"><ele>119.000000</ele><time>2010-08-18T11:29:42Z</time></trkpt>
	<trkpt lat="51.947095" lon="-1.973068333"><ele>118.000000</ele><time>2010-08-18T11:29:47Z</time></trkpt>
	<trkpt lat="51.94715" lon="-1.973101667"><ele>118.000000</ele><time>2010-08-18T11:29:52Z</time></trkpt>
	<trkpt lat="51.94719333" lon="-1.97313"><ele>117.000000</ele><time>2010-08-18T11:29:57Z</time></trkpt>
	<trkpt lat="51.94722333" lon="-1.97314"><ele>117.000000</ele><time>2010-08-18T11:30:02Z</time></trkpt>
	<trkpt lat="51.94724667" lon="-1.97315"><ele>116.000000</ele><time>2010-08-18T11:30:07Z</time></trkpt>
	<trkpt lat="51.94727" lon="-1.973136667"><ele>118.000000</ele><time>2010-08-18T11:30:12Z</time></trkpt>
	<trkpt lat="51.94729167" lon="-1.973116667"><ele>118.000000</ele><time>2010-08-18T11:30:17Z</time></trkpt>
	<trkpt lat="51.9473" lon="-1.9731"><ele>118.000000</ele><time>2010-08-18T11:30:22Z</time></trkpt>
	<trkpt lat="51.947335" lon="-1.973098333"><ele>119.000000</ele><time>2010-08-18T11:30:27Z</time></trkpt>
	<trkpt lat="51.94737333" lon="-1.9731"><ele>119.000000</ele><time>2010-08-18T11:30:32Z</time></trkpt>
	<trkpt lat="51.94742" lon="-1.973103333"><ele>117.000000</ele><time>2010-08-18T11:30:37Z</time></trkpt>
	<trkpt lat="51.94746167" lon="-1.973093333"><ele>116.000000</ele><time>2010-08-18T11:30:42Z</time></trkpt>
	<trkpt lat="51.947505" lon="-1.973103333"><ele>115.000000</ele><time>2010-08-18T11:30:47Z</time></trkpt>
	<trkpt lat="51.94752167" lon="-1.973106667"><ele>114.000000</ele><time>2010-08-18T11:30:52Z</time></trkpt>
	<trkpt lat="51.94753" lon="-1.973105"><ele>113.000000</ele><time>2010-08-18T11:30:57Z</time></trkpt>
	<trkpt lat="51.94757167" lon="-1.9731"><ele>113.000000</ele><time>2010-08-18T11:31:02Z</time></trkpt>
	<trkpt lat="51.947625" lon="-1.973103333"><ele>112.000000</ele><time>2010-08-18T11:31:07Z</time></trkpt>
	<trkpt lat="51.94767833" lon="-1.9731"><ele>112.000000</ele><time>2010-08-18T11:31:12Z</time></trkpt>
	<trkpt lat="51.94773167" lon="-1.973101667"><ele>112.000000</ele><time>2010-08-18T11:31:17Z</time></trkpt>
	<trkpt lat="51.94778833" lon="-1.973105"><ele>112.000000</ele><time>2010-08-18T11:31:22Z</time></trkpt>
	<trkpt lat="51.94784" lon="-1.973113333"><ele>111.000000</ele><time>2010-08-18T11:31:27Z</time></trkpt>
	<trkpt lat="51.947885" lon="-1.973111667"><ele>111.000000</ele><time>2010-08-18T11:31:32Z</time></trkpt>
	<trkpt lat="51.94793667" lon="-1.973113333"><ele>110.000000</ele><time>2010-08-18T11:31:37Z</time></trkpt>
	<trkpt lat="51.94799" lon="-1.97312"><ele>110.000000</ele><time>2010-08-18T11:31:42Z</time></trkpt>
	<trkpt lat="51.94804333" lon="-1.97313"><ele>109.000000</ele><time>2010-08-18T11:31:47Z</time></trkpt>
	<trkpt lat="51.948095" lon="-1.973131667"><ele>108.000000</ele><time>2010-08-18T11:31:52Z</time></trkpt>
	<trkpt lat="51.94814667" lon="-1.97313"><ele>107.000000</ele><time>2010-08-18T11:31:57Z</time></trkpt>
	<trkpt lat="51.94819667" lon="-1.97313"><ele>107.000000</ele><time>2010-08-18T11:32:02Z</time></trkpt>
	<trkpt lat="51.94825167" lon="-1.97313"><ele>107.000000</ele><time>2010-08-18T11:32:07Z</time></trkpt>
	<trkpt lat="51.94830333" lon="-1.973136667"><ele>106.000000</ele><time>2010-08-18T11:32:12Z</time></trkpt>
	<trkpt lat="51.94835833" lon="-1.973141667"><ele>106.000000</ele><time>2010-08-18T11:32:17Z</time></trkpt>
	<trkpt lat="51.94841" lon="-1.97315"><ele>106.000000</ele><time>2010-08-18T11:32:22Z</time></trkpt>
	<trkpt lat="51.94845833" lon="-1.97316"><ele>106.000000</ele><time>2010-08-18T11:32:27Z</time></trkpt>
	<trkpt lat="51.94850167" lon="-1.973165"><ele>105.000000</ele><time>2010-08-18T11:32:32Z</time></trkpt>
	<trkpt lat="51.94853667" lon="-1.973173333"><ele>105.000000</ele><time>2010-08-18T11:32:37Z</time></trkpt>
	<trkpt lat="51.94855833" lon="-1.973178333"><ele>105.000000</ele><time>2010-08-18T11:32:42Z</time></trkpt>
	<trkpt lat="51.948605" lon="-1.97318"><ele>105.000000</ele><time>2010-08-18T11:32:47Z</time></trkpt>
	<trkpt lat="51.94865667" lon="-1.97318"><ele>104.000000</ele><time>2010-08-18T11:32:52Z</time></trkpt>
	<trkpt lat="51.94870333" lon="-1.973175"><ele>104.000000</ele><time>2010-08-18T11:32:57Z</time></trkpt>
	<trkpt lat="51.94875333" lon="-1.973178333"><ele>104.000000</ele><time>2010-08-18T11:33:02Z</time></trkpt>
	<trkpt lat="51.94880167" lon="-1.973185"><ele>104.000000</ele><time>2010-08-18T11:33:07Z</time></trkpt>
	<trkpt lat="51.94884833" lon="-1.973198333"><ele>104.000000</ele><time>2010-08-18T11:33:12Z</time></trkpt>
	<trkpt lat="51.94889333" lon="-1.973208333"><ele>103.000000</ele><time>2010-08-18T11:33:17Z</time></trkpt>
	<trkpt lat="51.94893833" lon="-1.973218333"><ele>103.000000</ele><time>2010-08-18T11:33:22Z</time></trkpt>
	<trkpt lat="51.94898167" lon="-1.973226667"><ele>102.000000</ele><time>2010-08-18T11:33:27Z</time></trkpt>
	<trkpt lat="51.94902167" lon="-1.973236667"><ele>102.000000</ele><time>2010-08-18T11:33:32Z</time></trkpt>
	<trkpt lat="51.94906667" lon="-1.973251667"><ele>102.000000</ele><time>2010-08-18T11:33:37Z</time></trkpt>
	<trkpt lat="51.94911333" lon="-1.973261667"><ele>101.000000</ele><time>2010-08-18T11:33:42Z</time></trkpt>
	<trkpt lat="51.94915833" lon="-1.97327"><ele>101.000000</ele><time>2010-08-18T11:33:47Z</time></trkpt>
	<trkpt lat="51.949205" lon="-1.973288333"><ele>101.000000</ele><time>2010-08-18T11:33:52Z</time></trkpt>
	<trkpt lat="51.94925167" lon="-1.973315"><ele>101.000000</ele><time>2010-08-18T11:33:57Z</time></trkpt>
	<trkpt lat="51.949295" lon="-1.973343333"><ele>102.000000</ele><time>2010-08-18T11:34:02Z</time></trkpt>
	<trkpt lat="51.949335" lon="-1.973378333"><ele>102.000000</ele><time>2010-08-18T11:34:07Z</time></trkpt>
	<trkpt lat="51.94938667" lon="-1.973408333"><ele>104.000000</ele><time>2010-08-18T11:34:12Z</time></trkpt>
	<trkpt lat="51.94943667" lon="-1.973465"><ele>105.000000</ele><time>2010-08-18T11:34:17Z</time></trkpt>
	<trkpt lat="51.94947833" lon="-1.973521667"><ele>106.000000</ele><time>2010-08-18T11:34:22Z</time></trkpt>
	<trkpt lat="51.94950833" lon="-1.973561667"><ele>104.000000</ele><time>2010-08-18T11:34:27Z</time></trkpt>
	<trkpt lat="51.94954167" lon="-1.973593333"><ele>103.000000</ele><time>2010-08-18T11:34:32Z</time></trkpt>
	<trkpt lat="51.94953667" lon="-1.973628333"><ele>104.000000</ele><time>2010-08-18T11:34:37Z</time></trkpt>
	<trkpt lat="51.949545" lon="-1.973665"><ele>105.000000</ele><time>2010-08-18T11:34:42Z</time></trkpt>
	<trkpt lat="51.949555" lon="-1.973683333"><ele>106.000000</ele><time>2010-08-18T11:34:47Z</time></trkpt>
	<trkpt lat="51.949575" lon="-1.973713333"><ele>107.000000</ele><time>2010-08-18T11:34:52Z</time></trkpt>
	<trkpt lat="51.949625" lon="-1.973768333"><ele>108.000000</ele><time>2010-08-18T11:34:57Z</time></trkpt>
	<trkpt lat="51.94966167" lon="-1.973821667"><ele>109.000000</ele><time>2010-08-18T11:35:02Z</time></trkpt>
	<trkpt lat="51.94969833" lon="-1.973878333"><ele>111.000000</ele><time>2010-08-18T11:35:07Z</time></trkpt>
	<trkpt lat="51.94973" lon="-1.973933333"><ele>111.000000</ele><time>2010-08-18T11:35:12Z</time></trkpt>
	<trkpt lat="51.94975333" lon="-1.973996667"><ele>110.000000</ele><time>2010-08-18T11:35:17Z</time></trkpt>
	<trkpt lat="51.94975167" lon="-1.974058333"><ele>109.000000</ele><time>2010-08-18T11:35:22Z</time></trkpt>
	<trkpt lat="51.94974" lon="-1.974083333"><ele>107.000000</ele><time>2010-08-18T11:35:27Z</time></trkpt>
	<trkpt lat="51.94972833" lon="-1.974071667"><ele>107.000000</ele><time>2010-08-18T11:35:32Z</time></trkpt>
	<trkpt lat="51.94974" lon="-1.974073333"><ele>110.000000</ele><time>2010-08-18T11:35:37Z</time></trkpt>
	<trkpt lat="51.94978833" lon="-1.974076667"><ele>112.000000</ele><time>2010-08-18T11:35:42Z</time></trkpt>
	<trkpt lat="51.94982667" lon="-1.974058333"><ele>115.000000</ele><time>2010-08-18T11:35:47Z</time></trkpt>
	<trkpt lat="51.94985" lon="-1.974011667"><ele>114.000000</ele><time>2010-08-18T11:35:52Z</time></trkpt>
	<trkpt lat="51.949905" lon="-1.973991667"><ele>115.000000</ele><time>2010-08-18T11:35:57Z</time></trkpt>
	<trkpt lat="51.94994167" lon="-1.973936667"><ele>114.000000</ele><time>2010-08-18T11:36:02Z</time></trkpt>
	<trkpt lat="51.94998333" lon="-1.973886667"><ele>114.000000</ele><time>2010-08-18T11:36:07Z</time></trkpt>
	<trkpt lat="51.95002" lon="-1.97384"><ele>115.000000</ele><time>2010-08-18T11:36:12Z</time></trkpt>
	<trkpt lat="51.950055" lon="-1.97379"><ele>114.000000</ele><time>2010-08-18T11:36:17Z</time></trkpt>
	<trkpt lat="51.95008833" lon="-1.97374"><ele>113.000000</ele><time>2010-08-18T11:36:22Z</time></trkpt>
	<trkpt lat="51.95012333" lon="-1.973691667"><ele>113.000000</ele><time>2010-08-18T11:36:27Z</time></trkpt>
	<trkpt lat="51.950165" lon="-1.973656667"><ele>114.000000</ele><time>2010-08-18T11:36:32Z</time></trkpt>
	<trkpt lat="51.95019833" lon="-1.973616667"><ele>116.000000</ele><time>2010-08-18T11:36:37Z</time></trkpt>
	<trkpt lat="51.95023" lon="-1.973575"><ele>116.000000</ele><time>2010-08-18T11:36:42Z</time></trkpt>
	<trkpt lat="51.950265" lon="-1.973531667"><ele>117.000000</ele><time>2010-08-18T11:36:47Z</time></trkpt>
	<trkpt lat="51.95029333" lon="-1.97349"><ele>117.000000</ele><time>2010-08-18T11:36:52Z</time></trkpt>
	<trkpt lat="51.95031833" lon="-1.973465"><ele>115.000000</ele><time>2010-08-18T11:36:57Z</time></trkpt>
	<trkpt lat="51.95032333" lon="-1.973458333"><ele>113.000000</ele><time>2010-08-18T11:37:02Z</time></trkpt>
	<trkpt lat="51.95034333" lon="-1.973425"><ele>113.000000</ele><time>2010-08-18T11:37:07Z</time></trkpt>
	<trkpt lat="51.95036167" lon="-1.973408333"><ele>112.000000</ele><time>2010-08-18T11:37:12Z</time></trkpt>
	<trkpt lat="51.95039667" lon="-1.973365"><ele>112.000000</ele><time>2010-08-18T11:37:17Z</time></trkpt>
	<trkpt lat="51.95043667" lon="-1.973331667"><ele>113.000000</ele><time>2010-08-18T11:37:22Z</time></trkpt>
	<trkpt lat="51.95046667" lon="-1.973288333"><ele>113.000000</ele><time>2010-08-18T11:37:27Z</time></trkpt>
	<trkpt lat="51.95049333" lon="-1.973245"><ele>115.000000</ele><time>2010-08-18T11:37:32Z</time></trkpt>
	<trkpt lat="51.95052667" lon="-1.97319"><ele>115.000000</ele><time>2010-08-18T11:37:37Z</time></trkpt>
	<trkpt lat="51.95057167" lon="-1.973165"><ele>116.000000</ele><time>2010-08-18T11:37:42Z</time></trkpt>
	<trkpt lat="51.95059667" lon="-1.973161667"><ele>115.000000</ele><time>2010-08-18T11:37:47Z</time></trkpt>
	<trkpt lat="51.950645" lon="-1.97318"><ele>115.000000</ele><time>2010-08-18T11:37:52Z</time></trkpt>
	<trkpt lat="51.95068667" lon="-1.973185"><ele>116.000000</ele><time>2010-08-18T11:37:57Z</time></trkpt>
	<trkpt lat="51.95071333" lon="-1.973165"><ele>119.000000</ele><time>2010-08-18T11:38:02Z</time></trkpt>
	<trkpt lat="51.95074667" lon="-1.973128333"><ele>121.000000</ele><time>2010-08-18T11:38:07Z</time></trkpt>
	<trkpt lat="51.950785" lon="-1.973091667"><ele>121.000000</ele><time>2010-08-18T11:38:12Z</time></trkpt>
	<trkpt lat="51.95082167" lon="-1.973051667"><ele>121.000000</ele><time>2010-08-18T11:38:17Z</time></trkpt>
	<trkpt lat="51.950845" lon="-1.972996667"><ele>122.000000</ele><time>2010-08-18T11:38:22Z</time></trkpt>
	<trkpt lat="51.95088167" lon="-1.972956667"><ele>122.000000</ele><time>2010-08-18T11:38:27Z</time></trkpt>
	<trkpt lat="51.95091333" lon="-1.972918333"><ele>122.000000</ele><time>2010-08-18T11:38:32Z</time></trkpt>
	<trkpt lat="51.95096" lon="-1.972868333"><ele>121.000000</ele><time>2010-08-18T11:38:37Z</time></trkpt>
	<trkpt lat="51.95097333" lon="-1.972831667"><ele>121.000000</ele><time>2010-08-18T11:38:42Z</time></trkpt>
	<trkpt lat="51.95100333" lon="-1.972791667"><ele>123.000000</ele><time>2010-08-18T11:38:47Z</time></trkpt>
	<trkpt lat="51.95103333" lon="-1.972745"><ele>124.000000</ele><time>2010-08-18T11:38:52Z</time></trkpt>
	<trkpt lat="51.951055" lon="-1.972711667"><ele>124.000000</ele><time>2010-08-18T11:38:57Z</time></trkpt>
	<trkpt lat="51.9511" lon="-1.972671667"><ele>124.000000</ele><time>2010-08-18T11:39:02Z</time></trkpt>
	<trkpt lat="51.95113833" lon="-1.972623333"><ele>124.000000</ele><time>2010-08-18T11:39:07Z</time></trkpt>
	<trkpt lat="51.95117167" lon="-1.972576667"><ele>124.000000</ele><time>2010-08-18T11:39:12Z</time></trkpt>
	<trkpt lat="51.95121" lon="-1.972523333"><ele>124.000000</ele><time>2010-08-18T11:39:17Z</time></trkpt>
	<trkpt lat="51.95124" lon="-1.972466667"><ele>124.000000</ele><time>2010-08-18T11:39:22Z</time></trkpt>
	<trkpt lat="51.95128" lon="-1.972416667"><ele>124.000000</ele><time>2010-08-18T11:39:27Z</time></trkpt>
	<trkpt lat="51.95131667" lon="-1.97237"><ele>124.000000</ele><time>2010-08-18T11:39:32Z</time></trkpt>
	<trkpt lat="51.95135167" lon="-1.972318333"><ele>123.000000</ele><time>2010-08-18T11:39:37Z</time></trkpt>
	<trkpt lat="51.951385" lon="-1.972256667"><ele>122.000000</ele><time>2010-08-18T11:39:42Z</time></trkpt>
	<trkpt lat="51.95139" lon="-1.9722"><ele>124.000000</ele><time>2010-08-18T11:39:47Z</time></trkpt>
	<trkpt lat="51.95134833" lon="-1.972151667"><ele>128.000000</ele><time>2010-08-18T11:39:52Z</time></trkpt>
	<trkpt lat="51.95129167" lon="-1.972095"><ele>132.000000</ele><time>2010-08-18T11:39:57Z</time></trkpt>
	<trkpt lat="51.95130667" lon="-1.972031667"><ele>132.000000</ele><time>2010-08-18T11:40:02Z</time></trkpt>
	<trkpt lat="51.95137833" lon="-1.971971667"><ele>129.000000</ele><time>2010-08-18T11:40:07Z</time></trkpt>
	<trkpt lat="51.95146333" lon="-1.971956667"><ele>126.000000</ele><time>2010-08-18T11:40:12Z</time></trkpt>
	<trkpt lat="51.95151833" lon="-1.971983333"><ele>127.000000</ele><time>2010-08-18T11:40:17Z</time></trkpt>
	<trkpt lat="51.95160667" lon="-1.972023333"><ele>125.000000</ele><time>2010-08-18T11:40:22Z</time></trkpt>
	<trkpt lat="51.95171" lon="-1.972083333"><ele>123.000000</ele><time>2010-08-18T11:40:27Z</time></trkpt>
	<trkpt lat="51.95176667" lon="-1.972156667"><ele>123.000000</ele><time>2010-08-18T11:40:32Z</time></trkpt>
	<trkpt lat="51.95178667" lon="-1.972206667"><ele>125.000000</ele><time>2010-08-18T11:40:37Z</time></trkpt>
	<trkpt lat="51.95184333" lon="-1.972266667"><ele>126.000000</ele><time>2010-08-18T11:40:42Z</time></trkpt>
	<trkpt lat="51.95189833" lon="-1.972326667"><ele>126.000000</ele><time>2010-08-18T11:40:47Z</time></trkpt>
	<trkpt lat="51.95194833" lon="-1.972355"><ele>125.000000</ele><time>2010-08-18T11:40:52Z</time></trkpt>
	<trkpt lat="51.95197333" lon="-1.972386667"><ele>124.000000</ele><time>2010-08-18T11:40:57Z</time></trkpt>
	<trkpt lat="51.95202167" lon="-1.972416667"><ele>122.000000</ele><time>2010-08-18T11:41:02Z</time></trkpt>
	<trkpt lat="51.95206333" lon="-1.972408333"><ele>122.000000</ele><time>2010-08-18T11:41:07Z</time></trkpt>
	<trkpt lat="51.95207833" lon="-1.97236"><ele>123.000000</ele><time>2010-08-18T11:41:12Z</time></trkpt>
	<trkpt lat="51.952085" lon="-1.972323333"><ele>125.000000</ele><time>2010-08-18T11:41:17Z</time></trkpt>
	<trkpt lat="51.95208333" lon="-1.972298333"><ele>123.000000</ele><time>2010-08-18T11:41:22Z</time></trkpt>
	<trkpt lat="51.95209167" lon="-1.972273333"><ele>122.000000</ele><time>2010-08-18T11:41:27Z</time></trkpt>
	<trkpt lat="51.95208833" lon="-1.972261667"><ele>119.000000</ele><time>2010-08-18T11:41:32Z</time></trkpt>
	<trkpt lat="51.95208833" lon="-1.972261667"><ele>118.000000</ele><time>2010-08-18T11:41:37Z</time></trkpt>
</trkseg>
</trk>
</gpx>
